<?xml version="1.0" encoding="UTF-8" standalone="no" ?>
<gpx xmlns="http://www.topografix.com/GPX/1/1" xmlns:xsi="http://www.w3.org/2001/XMLSchema-instance" xsi:schemaLocation="http://www.topografix.com/GPX/1/1 http://www.topografix.com/GPX/1/1/gpx.xsd" version="1.1" creator="VisuGPX - https://www.visugpx.com">
  <metadata>
    <name>ski Bellacha Tete Pelouse</name>
    <desc><![CDATA[
]]></desc>
  </metadata>
  <trk>
    <name><![CDATA[ski Bellacha Tete Pelouse]]></name>
    <trkseg>
      <trkpt lat="45.92345" lon="6.48238">
        <ele>1436</ele>
        <time>2011-03-06T08:29:28.000Z</time>
      </trkpt>
      <trkpt lat="45.92346" lon="6.48242">
        <ele>1435.8000488281</ele>
        <time>2011-03-06T08:29:34.000Z</time>
      </trkpt>
      <trkpt lat="45.92346" lon="6.48242">
        <ele>1435.8000488281</ele>
        <time>2011-03-06T08:29:35.000Z</time>
      </trkpt>
      <trkpt lat="45.92343" lon="6.48243">
        <ele>1435.8000488281</ele>
        <time>2011-03-06T08:31:06.000Z</time>
      </trkpt>
      <trkpt lat="45.92335" lon="6.48255">
        <ele>1435.4000244141</ele>
        <time>2011-03-06T08:31:32.000Z</time>
      </trkpt>
      <trkpt lat="45.92334" lon="6.48255">
        <ele>1435.4000244141</ele>
        <time>2011-03-06T08:31:34.000Z</time>
      </trkpt>
      <trkpt lat="45.92334" lon="6.48251">
        <ele>1435.1999511719</ele>
        <time>2011-03-06T08:32:10.000Z</time>
      </trkpt>
      <trkpt lat="45.92332" lon="6.48249">
        <ele>1435</ele>
        <time>2011-03-06T08:32:14.000Z</time>
      </trkpt>
      <trkpt lat="45.92327" lon="6.48254">
        <ele>1435.4000244141</ele>
        <time>2011-03-06T08:32:32.000Z</time>
      </trkpt>
      <trkpt lat="45.92327" lon="6.48254">
        <ele>1435.4000244141</ele>
        <time>2011-03-06T08:32:34.000Z</time>
      </trkpt>
      <trkpt lat="45.92323" lon="6.48256">
        <ele>1435.1999511719</ele>
        <time>2011-03-06T08:33:03.000Z</time>
      </trkpt>
      <trkpt lat="45.92311" lon="6.48254">
        <ele>1434.5999755859</ele>
        <time>2011-03-06T08:33:19.000Z</time>
      </trkpt>
      <trkpt lat="45.92301" lon="6.48254">
        <ele>1434.5999755859</ele>
        <time>2011-03-06T08:33:30.000Z</time>
      </trkpt>
      <trkpt lat="45.92292" lon="6.48257">
        <ele>1435</ele>
        <time>2011-03-06T08:33:38.000Z</time>
      </trkpt>
      <trkpt lat="45.92282" lon="6.48263">
        <ele>1435</ele>
        <time>2011-03-06T08:33:48.000Z</time>
      </trkpt>
      <trkpt lat="45.92273" lon="6.4827">
        <ele>1435</ele>
        <time>2011-03-06T08:33:57.000Z</time>
      </trkpt>
      <trkpt lat="45.92266" lon="6.48275">
        <ele>1434.8000488281</ele>
        <time>2011-03-06T08:34:05.000Z</time>
      </trkpt>
      <trkpt lat="45.92259" lon="6.48281">
        <ele>1434.5999755859</ele>
        <time>2011-03-06T08:34:14.000Z</time>
      </trkpt>
      <trkpt lat="45.92253" lon="6.48286">
        <ele>1435.1999511719</ele>
        <time>2011-03-06T08:34:22.000Z</time>
      </trkpt>
      <trkpt lat="45.92252" lon="6.48286">
        <ele>1435.1999511719</ele>
        <time>2011-03-06T08:34:25.000Z</time>
      </trkpt>
      <trkpt lat="45.92248" lon="6.48291">
        <ele>1435.5999755859</ele>
        <time>2011-03-06T08:34:43.000Z</time>
      </trkpt>
      <trkpt lat="45.92246" lon="6.48292">
        <ele>1435.5999755859</ele>
        <time>2011-03-06T08:34:48.000Z</time>
      </trkpt>
      <trkpt lat="45.92241" lon="6.483">
        <ele>1436.1999511719</ele>
        <time>2011-03-06T08:35:40.000Z</time>
      </trkpt>
      <trkpt lat="45.92238" lon="6.48301">
        <ele>1436.4000244141</ele>
        <time>2011-03-06T08:35:46.000Z</time>
      </trkpt>
      <trkpt lat="45.9223" lon="6.48303">
        <ele>1437.1999511719</ele>
        <time>2011-03-06T08:35:55.000Z</time>
      </trkpt>
      <trkpt lat="45.92221" lon="6.48309">
        <ele>1438.5999755859</ele>
        <time>2011-03-06T08:36:06.000Z</time>
      </trkpt>
      <trkpt lat="45.92212" lon="6.48315">
        <ele>1439.4000244141</ele>
        <time>2011-03-06T08:36:15.000Z</time>
      </trkpt>
      <trkpt lat="45.92204" lon="6.4832">
        <ele>1439.1999511719</ele>
        <time>2011-03-06T08:36:23.000Z</time>
      </trkpt>
      <trkpt lat="45.92194" lon="6.48327">
        <ele>1440.1999511719</ele>
        <time>2011-03-06T08:36:34.000Z</time>
      </trkpt>
      <trkpt lat="45.92188" lon="6.48331">
        <ele>1440.5999755859</ele>
        <time>2011-03-06T08:36:42.000Z</time>
      </trkpt>
      <trkpt lat="45.92182" lon="6.48336">
        <ele>1441.8000488281</ele>
        <time>2011-03-06T08:36:50.000Z</time>
      </trkpt>
      <trkpt lat="45.92176" lon="6.48343">
        <ele>1443.8000488281</ele>
        <time>2011-03-06T08:36:59.000Z</time>
      </trkpt>
      <trkpt lat="45.9217" lon="6.48344">
        <ele>1445.1999511719</ele>
        <time>2011-03-06T08:37:07.000Z</time>
      </trkpt>
      <trkpt lat="45.92166" lon="6.48344">
        <ele>1446.5999755859</ele>
        <time>2011-03-06T08:37:15.000Z</time>
      </trkpt>
      <trkpt lat="45.92163" lon="6.48344">
        <ele>1447.1999511719</ele>
        <time>2011-03-06T08:37:22.000Z</time>
      </trkpt>
      <trkpt lat="45.92156" lon="6.48348">
        <ele>1448.4000244141</ele>
        <time>2011-03-06T08:37:31.000Z</time>
      </trkpt>
      <trkpt lat="45.92152" lon="6.48354">
        <ele>1450</ele>
        <time>2011-03-06T08:37:39.000Z</time>
      </trkpt>
      <trkpt lat="45.92147" lon="6.4836">
        <ele>1450.8000488281</ele>
        <time>2011-03-06T08:37:47.000Z</time>
      </trkpt>
      <trkpt lat="45.92143" lon="6.48367">
        <ele>1452</ele>
        <time>2011-03-06T08:37:54.000Z</time>
      </trkpt>
      <trkpt lat="45.92138" lon="6.48377">
        <ele>1453.1999511719</ele>
        <time>2011-03-06T08:38:04.000Z</time>
      </trkpt>
      <trkpt lat="45.9213" lon="6.48386">
        <ele>1453.5999755859</ele>
        <time>2011-03-06T08:38:13.000Z</time>
      </trkpt>
      <trkpt lat="45.92125" lon="6.48393">
        <ele>1454</ele>
        <time>2011-03-06T08:38:20.000Z</time>
      </trkpt>
      <trkpt lat="45.92117" lon="6.48403">
        <ele>1455.1999511719</ele>
        <time>2011-03-06T08:38:31.000Z</time>
      </trkpt>
      <trkpt lat="45.92111" lon="6.48411">
        <ele>1455.5999755859</ele>
        <time>2011-03-06T08:38:39.000Z</time>
      </trkpt>
      <trkpt lat="45.92108" lon="6.48415">
        <ele>1456.1999511719</ele>
        <time>2011-03-06T08:38:45.000Z</time>
      </trkpt>
      <trkpt lat="45.92107" lon="6.48417">
        <ele>1456.5999755859</ele>
        <time>2011-03-06T08:38:52.000Z</time>
      </trkpt>
      <trkpt lat="45.921" lon="6.48425">
        <ele>1457.5999755859</ele>
        <time>2011-03-06T08:39:01.000Z</time>
      </trkpt>
      <trkpt lat="45.92094" lon="6.48432">
        <ele>1459</ele>
        <time>2011-03-06T08:39:10.000Z</time>
      </trkpt>
      <trkpt lat="45.92088" lon="6.48439">
        <ele>1460.4000244141</ele>
        <time>2011-03-06T08:39:19.000Z</time>
      </trkpt>
      <trkpt lat="45.92083" lon="6.48445">
        <ele>1460.8000488281</ele>
        <time>2011-03-06T08:39:25.000Z</time>
      </trkpt>
      <trkpt lat="45.92081" lon="6.48452">
        <ele>1461</ele>
        <time>2011-03-06T08:39:34.000Z</time>
      </trkpt>
      <trkpt lat="45.92075" lon="6.48455">
        <ele>1461.8000488281</ele>
        <time>2011-03-06T08:39:41.000Z</time>
      </trkpt>
      <trkpt lat="45.92071" lon="6.48461">
        <ele>1463</ele>
        <time>2011-03-06T08:39:49.000Z</time>
      </trkpt>
      <trkpt lat="45.92065" lon="6.48464">
        <ele>1464</ele>
        <time>2011-03-06T08:39:56.000Z</time>
      </trkpt>
      <trkpt lat="45.92059" lon="6.48471">
        <ele>1465.1999511719</ele>
        <time>2011-03-06T08:40:05.000Z</time>
      </trkpt>
      <trkpt lat="45.9206" lon="6.48471">
        <ele>1465.5999755859</ele>
        <time>2011-03-06T08:40:07.000Z</time>
      </trkpt>
      <trkpt lat="45.92062" lon="6.48473">
        <ele>1465.8000488281</ele>
        <time>2011-03-06T08:40:15.000Z</time>
      </trkpt>
      <trkpt lat="45.92058" lon="6.48483">
        <ele>1467</ele>
        <time>2011-03-06T08:40:23.000Z</time>
      </trkpt>
      <trkpt lat="45.92052" lon="6.48494">
        <ele>1468.1999511719</ele>
        <time>2011-03-06T08:40:32.000Z</time>
      </trkpt>
      <trkpt lat="45.92047" lon="6.48505">
        <ele>1469.4000244141</ele>
        <time>2011-03-06T08:40:42.000Z</time>
      </trkpt>
      <trkpt lat="45.92043" lon="6.48513">
        <ele>1471</ele>
        <time>2011-03-06T08:40:50.000Z</time>
      </trkpt>
      <trkpt lat="45.92039" lon="6.48522">
        <ele>1472.5999755859</ele>
        <time>2011-03-06T08:40:58.000Z</time>
      </trkpt>
      <trkpt lat="45.92034" lon="6.48532">
        <ele>1474</ele>
        <time>2011-03-06T08:41:07.000Z</time>
      </trkpt>
      <trkpt lat="45.9203" lon="6.4854">
        <ele>1475.5999755859</ele>
        <time>2011-03-06T08:41:15.000Z</time>
      </trkpt>
      <trkpt lat="45.92026" lon="6.48549">
        <ele>1477.5999755859</ele>
        <time>2011-03-06T08:41:24.000Z</time>
      </trkpt>
      <trkpt lat="45.9202" lon="6.48561">
        <ele>1479.1999511719</ele>
        <time>2011-03-06T08:41:36.000Z</time>
      </trkpt>
      <trkpt lat="45.92014" lon="6.48569">
        <ele>1480.1999511719</ele>
        <time>2011-03-06T08:41:45.000Z</time>
      </trkpt>
      <trkpt lat="45.9201" lon="6.48578">
        <ele>1481.1999511719</ele>
        <time>2011-03-06T08:41:54.000Z</time>
      </trkpt>
      <trkpt lat="45.92007" lon="6.48586">
        <ele>1482.4000244141</ele>
        <time>2011-03-06T08:42:01.000Z</time>
      </trkpt>
      <trkpt lat="45.92003" lon="6.48596">
        <ele>1483</ele>
        <time>2011-03-06T08:42:10.000Z</time>
      </trkpt>
      <trkpt lat="45.91998" lon="6.48604">
        <ele>1484.4000244141</ele>
        <time>2011-03-06T08:42:20.000Z</time>
      </trkpt>
      <trkpt lat="45.91994" lon="6.48607">
        <ele>1485.1999511719</ele>
        <time>2011-03-06T08:42:26.000Z</time>
      </trkpt>
      <trkpt lat="45.91988" lon="6.48614">
        <ele>1486.5999755859</ele>
        <time>2011-03-06T08:42:35.000Z</time>
      </trkpt>
      <trkpt lat="45.91982" lon="6.48622">
        <ele>1487.4000244141</ele>
        <time>2011-03-06T08:42:44.000Z</time>
      </trkpt>
      <trkpt lat="45.91981" lon="6.48622">
        <ele>1487.4000244141</ele>
        <time>2011-03-06T08:42:46.000Z</time>
      </trkpt>
      <trkpt lat="45.91979" lon="6.48627">
        <ele>1487.5999755859</ele>
        <time>2011-03-06T08:42:54.000Z</time>
      </trkpt>
      <trkpt lat="45.91975" lon="6.48634">
        <ele>1488.4000244141</ele>
        <time>2011-03-06T08:43:01.000Z</time>
      </trkpt>
      <trkpt lat="45.91969" lon="6.4864">
        <ele>1489</ele>
        <time>2011-03-06T08:43:09.000Z</time>
      </trkpt>
      <trkpt lat="45.91963" lon="6.48646">
        <ele>1489.8000488281</ele>
        <time>2011-03-06T08:43:17.000Z</time>
      </trkpt>
      <trkpt lat="45.91959" lon="6.48649">
        <ele>1490.4000244141</ele>
        <time>2011-03-06T08:43:22.000Z</time>
      </trkpt>
      <trkpt lat="45.91953" lon="6.48654">
        <ele>1491.4000244141</ele>
        <time>2011-03-06T08:43:30.000Z</time>
      </trkpt>
      <trkpt lat="45.91947" lon="6.48655">
        <ele>1493.1999511719</ele>
        <time>2011-03-06T08:43:39.000Z</time>
      </trkpt>
      <trkpt lat="45.91942" lon="6.48656">
        <ele>1494</ele>
        <time>2011-03-06T08:43:46.000Z</time>
      </trkpt>
      <trkpt lat="45.91935" lon="6.48656">
        <ele>1495.1999511719</ele>
        <time>2011-03-06T08:43:55.000Z</time>
      </trkpt>
      <trkpt lat="45.91927" lon="6.48661">
        <ele>1497.8000488281</ele>
        <time>2011-03-06T08:44:07.000Z</time>
      </trkpt>
      <trkpt lat="45.91922" lon="6.48665">
        <ele>1498.5999755859</ele>
        <time>2011-03-06T08:44:15.000Z</time>
      </trkpt>
      <trkpt lat="45.91919" lon="6.48675">
        <ele>1500</ele>
        <time>2011-03-06T08:44:24.000Z</time>
      </trkpt>
      <trkpt lat="45.91919" lon="6.48676">
        <ele>1500.5999755859</ele>
        <time>2011-03-06T08:44:25.000Z</time>
      </trkpt>
      <trkpt lat="45.91919" lon="6.48681">
        <ele>1501.1999511719</ele>
        <time>2011-03-06T08:44:30.000Z</time>
      </trkpt>
      <trkpt lat="45.91919" lon="6.48689">
        <ele>1502.8000488281</ele>
        <time>2011-03-06T08:44:37.000Z</time>
      </trkpt>
      <trkpt lat="45.91919" lon="6.48691">
        <ele>1503</ele>
        <time>2011-03-06T08:44:38.000Z</time>
      </trkpt>
      <trkpt lat="45.9192" lon="6.48695">
        <ele>1504</ele>
        <time>2011-03-06T08:44:42.000Z</time>
      </trkpt>
      <trkpt lat="45.91921" lon="6.48702">
        <ele>1505.8000488281</ele>
        <time>2011-03-06T08:44:49.000Z</time>
      </trkpt>
      <trkpt lat="45.91926" lon="6.48704">
        <ele>1507.4000244141</ele>
        <time>2011-03-06T08:44:57.000Z</time>
      </trkpt>
      <trkpt lat="45.91928" lon="6.48712">
        <ele>1508.5999755859</ele>
        <time>2011-03-06T08:45:04.000Z</time>
      </trkpt>
      <trkpt lat="45.9193" lon="6.48719">
        <ele>1510.1999511719</ele>
        <time>2011-03-06T08:45:11.000Z</time>
      </trkpt>
      <trkpt lat="45.91927" lon="6.48722">
        <ele>1511.5999755859</ele>
        <time>2011-03-06T08:45:16.000Z</time>
      </trkpt>
      <trkpt lat="45.91922" lon="6.48726">
        <ele>1512.8000488281</ele>
        <time>2011-03-06T08:45:23.000Z</time>
      </trkpt>
      <trkpt lat="45.91916" lon="6.48729">
        <ele>1514.4000244141</ele>
        <time>2011-03-06T08:45:32.000Z</time>
      </trkpt>
      <trkpt lat="45.91914" lon="6.48732">
        <ele>1515.1999511719</ele>
        <time>2011-03-06T08:45:38.000Z</time>
      </trkpt>
      <trkpt lat="45.91909" lon="6.48733">
        <ele>1516.1999511719</ele>
        <time>2011-03-06T08:45:44.000Z</time>
      </trkpt>
      <trkpt lat="45.91904" lon="6.48738">
        <ele>1517.4000244141</ele>
        <time>2011-03-06T08:45:52.000Z</time>
      </trkpt>
      <trkpt lat="45.91903" lon="6.48743">
        <ele>1518</ele>
        <time>2011-03-06T08:45:59.000Z</time>
      </trkpt>
      <trkpt lat="45.91901" lon="6.48746">
        <ele>1519</ele>
        <time>2011-03-06T08:46:05.000Z</time>
      </trkpt>
      <trkpt lat="45.919" lon="6.48746">
        <ele>1519.4000244141</ele>
        <time>2011-03-06T08:46:08.000Z</time>
      </trkpt>
      <trkpt lat="45.91899" lon="6.48747">
        <ele>1519.5999755859</ele>
        <time>2011-03-06T08:46:33.000Z</time>
      </trkpt>
      <trkpt lat="45.91896" lon="6.48748">
        <ele>1520.5999755859</ele>
        <time>2011-03-06T08:46:40.000Z</time>
      </trkpt>
      <trkpt lat="45.91891" lon="6.48748">
        <ele>1521.1999511719</ele>
        <time>2011-03-06T08:46:48.000Z</time>
      </trkpt>
      <trkpt lat="45.91887" lon="6.48748">
        <ele>1522.1999511719</ele>
        <time>2011-03-06T08:46:55.000Z</time>
      </trkpt>
      <trkpt lat="45.91881" lon="6.48748">
        <ele>1523.1999511719</ele>
        <time>2011-03-06T08:47:03.000Z</time>
      </trkpt>
      <trkpt lat="45.91873" lon="6.48745">
        <ele>1524</ele>
        <time>2011-03-06T08:47:11.000Z</time>
      </trkpt>
      <trkpt lat="45.91865" lon="6.48741">
        <ele>1525</ele>
        <time>2011-03-06T08:47:20.000Z</time>
      </trkpt>
      <trkpt lat="45.91859" lon="6.4874">
        <ele>1526.4000244141</ele>
        <time>2011-03-06T08:47:27.000Z</time>
      </trkpt>
      <trkpt lat="45.91852" lon="6.48737">
        <ele>1527.8000488281</ele>
        <time>2011-03-06T08:47:35.000Z</time>
      </trkpt>
      <trkpt lat="45.91848" lon="6.48738">
        <ele>1529.1999511719</ele>
        <time>2011-03-06T08:47:42.000Z</time>
      </trkpt>
      <trkpt lat="45.91843" lon="6.48737">
        <ele>1530</ele>
        <time>2011-03-06T08:47:47.000Z</time>
      </trkpt>
      <trkpt lat="45.91843" lon="6.48737">
        <ele>1530</ele>
        <time>2011-03-06T08:47:48.000Z</time>
      </trkpt>
      <trkpt lat="45.91834" lon="6.48736">
        <ele>1531.4000244141</ele>
        <time>2011-03-06T08:48:00.000Z</time>
      </trkpt>
      <trkpt lat="45.91829" lon="6.48736">
        <ele>1532.1999511719</ele>
        <time>2011-03-06T08:48:07.000Z</time>
      </trkpt>
      <trkpt lat="45.91828" lon="6.48736">
        <ele>1532.1999511719</ele>
        <time>2011-03-06T08:48:08.000Z</time>
      </trkpt>
      <trkpt lat="45.91823" lon="6.48733">
        <ele>1531.5999755859</ele>
        <time>2011-03-06T08:48:14.000Z</time>
      </trkpt>
      <trkpt lat="45.91819" lon="6.4873">
        <ele>1531.5999755859</ele>
        <time>2011-03-06T08:48:21.000Z</time>
      </trkpt>
      <trkpt lat="45.91814" lon="6.48727">
        <ele>1532</ele>
        <time>2011-03-06T08:48:30.000Z</time>
      </trkpt>
      <trkpt lat="45.9181" lon="6.48726">
        <ele>1532.8000488281</ele>
        <time>2011-03-06T08:48:36.000Z</time>
      </trkpt>
      <trkpt lat="45.91805" lon="6.48721">
        <ele>1534.4000244141</ele>
        <time>2011-03-06T08:48:44.000Z</time>
      </trkpt>
      <trkpt lat="45.91804" lon="6.4872">
        <ele>1534.5999755859</ele>
        <time>2011-03-06T08:48:47.000Z</time>
      </trkpt>
      <trkpt lat="45.91801" lon="6.48717">
        <ele>1534.8000488281</ele>
        <time>2011-03-06T08:48:53.000Z</time>
      </trkpt>
      <trkpt lat="45.91796" lon="6.48713">
        <ele>1535.4000244141</ele>
        <time>2011-03-06T08:49:00.000Z</time>
      </trkpt>
      <trkpt lat="45.91796" lon="6.48713">
        <ele>1535.4000244141</ele>
        <time>2011-03-06T08:49:01.000Z</time>
      </trkpt>
      <trkpt lat="45.91779" lon="6.48722">
        <ele>1543.4000244141</ele>
        <time>2011-03-06T08:50:11.000Z</time>
      </trkpt>
      <trkpt lat="45.91774" lon="6.48723">
        <ele>1544.4000244141</ele>
        <time>2011-03-06T08:50:17.000Z</time>
      </trkpt>
      <trkpt lat="45.91773" lon="6.48723">
        <ele>1544.5999755859</ele>
        <time>2011-03-06T08:50:18.000Z</time>
      </trkpt>
      <trkpt lat="45.91769" lon="6.48724">
        <ele>1545</ele>
        <time>2011-03-06T08:50:23.000Z</time>
      </trkpt>
      <trkpt lat="45.91763" lon="6.48723">
        <ele>1545.5999755859</ele>
        <time>2011-03-06T08:50:28.000Z</time>
      </trkpt>
      <trkpt lat="45.91759" lon="6.48724">
        <ele>1546.8000488281</ele>
        <time>2011-03-06T08:50:34.000Z</time>
      </trkpt>
      <trkpt lat="45.91756" lon="6.48733">
        <ele>1546.8000488281</ele>
        <time>2011-03-06T08:52:01.000Z</time>
      </trkpt>
      <trkpt lat="45.91752" lon="6.48743">
        <ele>1546.5999755859</ele>
        <time>2011-03-06T08:52:09.000Z</time>
      </trkpt>
      <trkpt lat="45.91749" lon="6.48747">
        <ele>1546.1999511719</ele>
        <time>2011-03-06T08:52:14.000Z</time>
      </trkpt>
      <trkpt lat="45.91748" lon="6.48753">
        <ele>1545.5999755859</ele>
        <time>2011-03-06T08:52:20.000Z</time>
      </trkpt>
      <trkpt lat="45.91747" lon="6.48761">
        <ele>1545.4000244141</ele>
        <time>2011-03-06T08:52:25.000Z</time>
      </trkpt>
      <trkpt lat="45.9174" lon="6.4877">
        <ele>1544.8000488281</ele>
        <time>2011-03-06T08:52:42.000Z</time>
      </trkpt>
      <trkpt lat="45.91739" lon="6.4877">
        <ele>1544.8000488281</ele>
        <time>2011-03-06T08:52:43.000Z</time>
      </trkpt>
      <trkpt lat="45.91734" lon="6.48771">
        <ele>1544.4000244141</ele>
        <time>2011-03-06T08:52:51.000Z</time>
      </trkpt>
      <trkpt lat="45.91724" lon="6.48766">
        <ele>1543.8000488281</ele>
        <time>2011-03-06T08:53:07.000Z</time>
      </trkpt>
      <trkpt lat="45.91723" lon="6.48767">
        <ele>1544</ele>
        <time>2011-03-06T08:53:10.000Z</time>
      </trkpt>
      <trkpt lat="45.91715" lon="6.48768">
        <ele>1544.5999755859</ele>
        <time>2011-03-06T08:53:20.000Z</time>
      </trkpt>
      <trkpt lat="45.9171" lon="6.48771">
        <ele>1544.4000244141</ele>
        <time>2011-03-06T08:53:27.000Z</time>
      </trkpt>
      <trkpt lat="45.91706" lon="6.48775">
        <ele>1544.4000244141</ele>
        <time>2011-03-06T08:53:35.000Z</time>
      </trkpt>
      <trkpt lat="45.91702" lon="6.48776">
        <ele>1544.8000488281</ele>
        <time>2011-03-06T08:53:41.000Z</time>
      </trkpt>
      <trkpt lat="45.91703" lon="6.48776">
        <ele>1544.8000488281</ele>
        <time>2011-03-06T08:53:46.000Z</time>
      </trkpt>
      <trkpt lat="45.917" lon="6.48773">
        <ele>1545</ele>
        <time>2011-03-06T08:53:50.000Z</time>
      </trkpt>
      <trkpt lat="45.91693" lon="6.48776">
        <ele>1545.5999755859</ele>
        <time>2011-03-06T08:53:59.000Z</time>
      </trkpt>
      <trkpt lat="45.91685" lon="6.48777">
        <ele>1546.5999755859</ele>
        <time>2011-03-06T08:54:08.000Z</time>
      </trkpt>
      <trkpt lat="45.91681" lon="6.48777">
        <ele>1547.1999511719</ele>
        <time>2011-03-06T08:54:14.000Z</time>
      </trkpt>
      <trkpt lat="45.91676" lon="6.48779">
        <ele>1548</ele>
        <time>2011-03-06T08:54:21.000Z</time>
      </trkpt>
      <trkpt lat="45.91673" lon="6.4878">
        <ele>1548.8000488281</ele>
        <time>2011-03-06T08:54:26.000Z</time>
      </trkpt>
      <trkpt lat="45.91671" lon="6.48779">
        <ele>1549.1999511719</ele>
        <time>2011-03-06T08:54:28.000Z</time>
      </trkpt>
      <trkpt lat="45.91665" lon="6.48779">
        <ele>1550.5999755859</ele>
        <time>2011-03-06T08:54:36.000Z</time>
      </trkpt>
      <trkpt lat="45.91661" lon="6.48781">
        <ele>1552.1999511719</ele>
        <time>2011-03-06T08:54:43.000Z</time>
      </trkpt>
      <trkpt lat="45.91657" lon="6.48783">
        <ele>1553.1999511719</ele>
        <time>2011-03-06T08:54:48.000Z</time>
      </trkpt>
      <trkpt lat="45.91652" lon="6.48785">
        <ele>1554.5999755859</ele>
        <time>2011-03-06T08:54:56.000Z</time>
      </trkpt>
      <trkpt lat="45.91645" lon="6.48789">
        <ele>1556.1999511719</ele>
        <time>2011-03-06T08:55:05.000Z</time>
      </trkpt>
      <trkpt lat="45.91639" lon="6.48795">
        <ele>1557.4000244141</ele>
        <time>2011-03-06T08:55:14.000Z</time>
      </trkpt>
      <trkpt lat="45.91634" lon="6.48799">
        <ele>1558.8000488281</ele>
        <time>2011-03-06T08:55:22.000Z</time>
      </trkpt>
      <trkpt lat="45.91629" lon="6.48803">
        <ele>1560</ele>
        <time>2011-03-06T08:55:30.000Z</time>
      </trkpt>
      <trkpt lat="45.91624" lon="6.48808">
        <ele>1561.1999511719</ele>
        <time>2011-03-06T08:55:38.000Z</time>
      </trkpt>
      <trkpt lat="45.9162" lon="6.4881">
        <ele>1562.1999511719</ele>
        <time>2011-03-06T08:55:43.000Z</time>
      </trkpt>
      <trkpt lat="45.91614" lon="6.48812">
        <ele>1563.4000244141</ele>
        <time>2011-03-06T08:55:51.000Z</time>
      </trkpt>
      <trkpt lat="45.91608" lon="6.48814">
        <ele>1564.5999755859</ele>
        <time>2011-03-06T08:55:58.000Z</time>
      </trkpt>
      <trkpt lat="45.91601" lon="6.48819">
        <ele>1566.1999511719</ele>
        <time>2011-03-06T08:56:08.000Z</time>
      </trkpt>
      <trkpt lat="45.916" lon="6.48822">
        <ele>1566.8000488281</ele>
        <time>2011-03-06T08:56:11.000Z</time>
      </trkpt>
      <trkpt lat="45.91595" lon="6.48828">
        <ele>1568.4000244141</ele>
        <time>2011-03-06T08:56:20.000Z</time>
      </trkpt>
      <trkpt lat="45.91591" lon="6.4883">
        <ele>1568.8000488281</ele>
        <time>2011-03-06T08:56:26.000Z</time>
      </trkpt>
      <trkpt lat="45.91588" lon="6.48831">
        <ele>1569.4000244141</ele>
        <time>2011-03-06T08:56:35.000Z</time>
      </trkpt>
      <trkpt lat="45.91586" lon="6.48832">
        <ele>1570</ele>
        <time>2011-03-06T08:56:38.000Z</time>
      </trkpt>
      <trkpt lat="45.91581" lon="6.48831">
        <ele>1571</ele>
        <time>2011-03-06T08:56:44.000Z</time>
      </trkpt>
      <trkpt lat="45.91576" lon="6.48836">
        <ele>1572.4000244141</ele>
        <time>2011-03-06T08:56:52.000Z</time>
      </trkpt>
      <trkpt lat="45.91571" lon="6.48837">
        <ele>1573.8000488281</ele>
        <time>2011-03-06T08:56:59.000Z</time>
      </trkpt>
      <trkpt lat="45.9157" lon="6.48837">
        <ele>1574</ele>
        <time>2011-03-06T08:57:00.000Z</time>
      </trkpt>
      <trkpt lat="45.91568" lon="6.48843">
        <ele>1575.5999755859</ele>
        <time>2011-03-06T08:57:07.000Z</time>
      </trkpt>
      <trkpt lat="45.91568" lon="6.48843">
        <ele>1576</ele>
        <time>2011-03-06T08:57:08.000Z</time>
      </trkpt>
      <trkpt lat="45.91566" lon="6.48846">
        <ele>1577.1999511719</ele>
        <time>2011-03-06T08:57:13.000Z</time>
      </trkpt>
      <trkpt lat="45.91565" lon="6.4885">
        <ele>1578</ele>
        <time>2011-03-06T08:57:18.000Z</time>
      </trkpt>
      <trkpt lat="45.91564" lon="6.48855">
        <ele>1579.1999511719</ele>
        <time>2011-03-06T08:57:23.000Z</time>
      </trkpt>
      <trkpt lat="45.91562" lon="6.48858">
        <ele>1580.1999511719</ele>
        <time>2011-03-06T08:57:28.000Z</time>
      </trkpt>
      <trkpt lat="45.91561" lon="6.48861">
        <ele>1581.1999511719</ele>
        <time>2011-03-06T08:57:32.000Z</time>
      </trkpt>
      <trkpt lat="45.91559" lon="6.48865">
        <ele>1582.4000244141</ele>
        <time>2011-03-06T08:57:38.000Z</time>
      </trkpt>
      <trkpt lat="45.91557" lon="6.48868">
        <ele>1583.5999755859</ele>
        <time>2011-03-06T08:57:44.000Z</time>
      </trkpt>
      <trkpt lat="45.91555" lon="6.48875">
        <ele>1585</ele>
        <time>2011-03-06T08:57:51.000Z</time>
      </trkpt>
      <trkpt lat="45.91554" lon="6.48879">
        <ele>1585.8000488281</ele>
        <time>2011-03-06T08:57:54.000Z</time>
      </trkpt>
      <trkpt lat="45.91552" lon="6.48881">
        <ele>1586.8000488281</ele>
        <time>2011-03-06T08:57:59.000Z</time>
      </trkpt>
      <trkpt lat="45.91551" lon="6.48886">
        <ele>1587.4000244141</ele>
        <time>2011-03-06T08:58:06.000Z</time>
      </trkpt>
      <trkpt lat="45.91549" lon="6.48891">
        <ele>1588.4000244141</ele>
        <time>2011-03-06T08:58:11.000Z</time>
      </trkpt>
      <trkpt lat="45.91546" lon="6.48895">
        <ele>1590.1999511719</ele>
        <time>2011-03-06T08:58:20.000Z</time>
      </trkpt>
      <trkpt lat="45.91548" lon="6.48898">
        <ele>1591.4000244141</ele>
        <time>2011-03-06T08:58:25.000Z</time>
      </trkpt>
      <trkpt lat="45.91563" lon="6.48914">
        <ele>1600</ele>
        <time>2011-03-06T08:59:12.000Z</time>
      </trkpt>
      <trkpt lat="45.91561" lon="6.48918">
        <ele>1601.1999511719</ele>
        <time>2011-03-06T08:59:18.000Z</time>
      </trkpt>
      <trkpt lat="45.9156" lon="6.48918">
        <ele>1601.5999755859</ele>
        <time>2011-03-06T08:59:20.000Z</time>
      </trkpt>
      <trkpt lat="45.91558" lon="6.48926">
        <ele>1602.8000488281</ele>
        <time>2011-03-06T08:59:35.000Z</time>
      </trkpt>
      <trkpt lat="45.91558" lon="6.48928">
        <ele>1603.4000244141</ele>
        <time>2011-03-06T08:59:38.000Z</time>
      </trkpt>
      <trkpt lat="45.91556" lon="6.48934">
        <ele>1604.5999755859</ele>
        <time>2011-03-06T08:59:44.000Z</time>
      </trkpt>
      <trkpt lat="45.91552" lon="6.48935">
        <ele>1605.5999755859</ele>
        <time>2011-03-06T08:59:50.000Z</time>
      </trkpt>
      <trkpt lat="45.91551" lon="6.48935">
        <ele>1606</ele>
        <time>2011-03-06T08:59:51.000Z</time>
      </trkpt>
      <trkpt lat="45.9155" lon="6.48939">
        <ele>1607</ele>
        <time>2011-03-06T08:59:59.000Z</time>
      </trkpt>
      <trkpt lat="45.91563" lon="6.48946">
        <ele>1611.8000488281</ele>
        <time>2011-03-06T09:00:25.000Z</time>
      </trkpt>
      <trkpt lat="45.91565" lon="6.48946">
        <ele>1612.5999755859</ele>
        <time>2011-03-06T09:00:29.000Z</time>
      </trkpt>
      <trkpt lat="45.91567" lon="6.48946">
        <ele>1613.5999755859</ele>
        <time>2011-03-06T09:00:33.000Z</time>
      </trkpt>
      <trkpt lat="45.91572" lon="6.48945">
        <ele>1615.5999755859</ele>
        <time>2011-03-06T09:00:45.000Z</time>
      </trkpt>
      <trkpt lat="45.91574" lon="6.48944">
        <ele>1616.4000244141</ele>
        <time>2011-03-06T09:00:48.000Z</time>
      </trkpt>
      <trkpt lat="45.91577" lon="6.48947">
        <ele>1617</ele>
        <time>2011-03-06T09:00:54.000Z</time>
      </trkpt>
      <trkpt lat="45.91577" lon="6.48947">
        <ele>1617.4000244141</ele>
        <time>2011-03-06T09:00:55.000Z</time>
      </trkpt>
      <trkpt lat="45.9158" lon="6.48948">
        <ele>1618</ele>
        <time>2011-03-06T09:00:59.000Z</time>
      </trkpt>
      <trkpt lat="45.91587" lon="6.48951">
        <ele>1619.1999511719</ele>
        <time>2011-03-06T09:01:06.000Z</time>
      </trkpt>
      <trkpt lat="45.91591" lon="6.48957">
        <ele>1620.4000244141</ele>
        <time>2011-03-06T09:01:12.000Z</time>
      </trkpt>
      <trkpt lat="45.91596" lon="6.48963">
        <ele>1621.4000244141</ele>
        <time>2011-03-06T09:01:18.000Z</time>
      </trkpt>
      <trkpt lat="45.91598" lon="6.48966">
        <ele>1622</ele>
        <time>2011-03-06T09:01:22.000Z</time>
      </trkpt>
      <trkpt lat="45.916" lon="6.48967">
        <ele>1622.5999755859</ele>
        <time>2011-03-06T09:01:25.000Z</time>
      </trkpt>
      <trkpt lat="45.91605" lon="6.48968">
        <ele>1625.1999511719</ele>
        <time>2011-03-06T09:01:48.000Z</time>
      </trkpt>
      <trkpt lat="45.916" lon="6.48969">
        <ele>1625.8000488281</ele>
        <time>2011-03-06T09:01:57.000Z</time>
      </trkpt>
      <trkpt lat="45.91598" lon="6.4897">
        <ele>1626.5999755859</ele>
        <time>2011-03-06T09:02:02.000Z</time>
      </trkpt>
      <trkpt lat="45.91595" lon="6.48972">
        <ele>1627.4000244141</ele>
        <time>2011-03-06T09:02:06.000Z</time>
      </trkpt>
      <trkpt lat="45.91591" lon="6.48973">
        <ele>1628.1999511719</ele>
        <time>2011-03-06T09:02:11.000Z</time>
      </trkpt>
      <trkpt lat="45.91586" lon="6.48974">
        <ele>1629.4000244141</ele>
        <time>2011-03-06T09:02:17.000Z</time>
      </trkpt>
      <trkpt lat="45.91583" lon="6.48975">
        <ele>1629.8000488281</ele>
        <time>2011-03-06T09:02:22.000Z</time>
      </trkpt>
      <trkpt lat="45.9158" lon="6.48978">
        <ele>1631</ele>
        <time>2011-03-06T09:02:28.000Z</time>
      </trkpt>
      <trkpt lat="45.91578" lon="6.48982">
        <ele>1631.5999755859</ele>
        <time>2011-03-06T09:02:33.000Z</time>
      </trkpt>
      <trkpt lat="45.91574" lon="6.48985">
        <ele>1632</ele>
        <time>2011-03-06T09:02:38.000Z</time>
      </trkpt>
      <trkpt lat="45.91572" lon="6.48987">
        <ele>1632.4000244141</ele>
        <time>2011-03-06T09:02:43.000Z</time>
      </trkpt>
      <trkpt lat="45.91565" lon="6.48987">
        <ele>1632.5999755859</ele>
        <time>2011-03-06T09:02:50.000Z</time>
      </trkpt>
      <trkpt lat="45.91562" lon="6.48986">
        <ele>1632.8000488281</ele>
        <time>2011-03-06T09:02:55.000Z</time>
      </trkpt>
      <trkpt lat="45.91562" lon="6.48986">
        <ele>1633.4000244141</ele>
        <time>2011-03-06T09:02:57.000Z</time>
      </trkpt>
      <trkpt lat="45.91555" lon="6.48985">
        <ele>1635.5999755859</ele>
        <time>2011-03-06T09:03:14.000Z</time>
      </trkpt>
      <trkpt lat="45.91553" lon="6.48984">
        <ele>1636.8000488281</ele>
        <time>2011-03-06T09:03:18.000Z</time>
      </trkpt>
      <trkpt lat="45.91547" lon="6.48992">
        <ele>1639.8000488281</ele>
        <time>2011-03-06T09:04:22.000Z</time>
      </trkpt>
      <trkpt lat="45.91546" lon="6.48993">
        <ele>1640.1999511719</ele>
        <time>2011-03-06T09:04:24.000Z</time>
      </trkpt>
      <trkpt lat="45.91548" lon="6.48981">
        <ele>1640.4000244141</ele>
        <time>2011-03-06T09:04:58.000Z</time>
      </trkpt>
      <trkpt lat="45.91549" lon="6.48989">
        <ele>1640.1999511719</ele>
        <time>2011-03-06T09:06:30.000Z</time>
      </trkpt>
      <trkpt lat="45.91551" lon="6.48991">
        <ele>1639.8000488281</ele>
        <time>2011-03-06T09:06:35.000Z</time>
      </trkpt>
      <trkpt lat="45.91551" lon="6.48989">
        <ele>1640.8000488281</ele>
        <time>2011-03-06T09:06:38.000Z</time>
      </trkpt>
      <trkpt lat="45.91544" lon="6.48993">
        <ele>1641.8000488281</ele>
        <time>2011-03-06T09:08:28.000Z</time>
      </trkpt>
      <trkpt lat="45.9154" lon="6.48992">
        <ele>1642.5999755859</ele>
        <time>2011-03-06T09:08:33.000Z</time>
      </trkpt>
      <trkpt lat="45.91537" lon="6.48993">
        <ele>1643.1999511719</ele>
        <time>2011-03-06T09:08:39.000Z</time>
      </trkpt>
      <trkpt lat="45.91534" lon="6.48992">
        <ele>1643.8000488281</ele>
        <time>2011-03-06T09:08:54.000Z</time>
      </trkpt>
      <trkpt lat="45.91533" lon="6.48992">
        <ele>1643.8000488281</ele>
        <time>2011-03-06T09:08:55.000Z</time>
      </trkpt>
      <trkpt lat="45.91528" lon="6.4899">
        <ele>1644</ele>
        <time>2011-03-06T09:09:05.000Z</time>
      </trkpt>
      <trkpt lat="45.91524" lon="6.48991">
        <ele>1644.1999511719</ele>
        <time>2011-03-06T09:09:11.000Z</time>
      </trkpt>
      <trkpt lat="45.91523" lon="6.48991">
        <ele>1644.1999511719</ele>
        <time>2011-03-06T09:09:12.000Z</time>
      </trkpt>
      <trkpt lat="45.91518" lon="6.48991">
        <ele>1645.1999511719</ele>
        <time>2011-03-06T09:09:20.000Z</time>
      </trkpt>
      <trkpt lat="45.91513" lon="6.48991">
        <ele>1646.5999755859</ele>
        <time>2011-03-06T09:09:27.000Z</time>
      </trkpt>
      <trkpt lat="45.91509" lon="6.48993">
        <ele>1647.8000488281</ele>
        <time>2011-03-06T09:09:33.000Z</time>
      </trkpt>
      <trkpt lat="45.91507" lon="6.48994">
        <ele>1648.1999511719</ele>
        <time>2011-03-06T09:09:35.000Z</time>
      </trkpt>
      <trkpt lat="45.91503" lon="6.48994">
        <ele>1649</ele>
        <time>2011-03-06T09:09:42.000Z</time>
      </trkpt>
      <trkpt lat="45.91499" lon="6.48995">
        <ele>1649.5999755859</ele>
        <time>2011-03-06T09:09:48.000Z</time>
      </trkpt>
      <trkpt lat="45.91493" lon="6.48997">
        <ele>1650.5999755859</ele>
        <time>2011-03-06T09:09:54.000Z</time>
      </trkpt>
      <trkpt lat="45.91493" lon="6.48995">
        <ele>1651</ele>
        <time>2011-03-06T09:09:56.000Z</time>
      </trkpt>
      <trkpt lat="45.9149" lon="6.48995">
        <ele>1652</ele>
        <time>2011-03-06T09:10:01.000Z</time>
      </trkpt>
      <trkpt lat="45.91486" lon="6.48996">
        <ele>1652.5999755859</ele>
        <time>2011-03-06T09:10:06.000Z</time>
      </trkpt>
      <trkpt lat="45.91482" lon="6.48999">
        <ele>1653.4000244141</ele>
        <time>2011-03-06T09:10:11.000Z</time>
      </trkpt>
      <trkpt lat="45.9148" lon="6.49">
        <ele>1654</ele>
        <time>2011-03-06T09:10:14.000Z</time>
      </trkpt>
      <trkpt lat="45.91477" lon="6.49004">
        <ele>1657.8000488281</ele>
        <time>2011-03-06T09:10:36.000Z</time>
      </trkpt>
      <trkpt lat="45.91473" lon="6.49007">
        <ele>1658.4000244141</ele>
        <time>2011-03-06T09:10:42.000Z</time>
      </trkpt>
      <trkpt lat="45.9147" lon="6.49008">
        <ele>1659.1999511719</ele>
        <time>2011-03-06T09:10:46.000Z</time>
      </trkpt>
      <trkpt lat="45.91467" lon="6.49009">
        <ele>1659.8000488281</ele>
        <time>2011-03-06T09:10:51.000Z</time>
      </trkpt>
      <trkpt lat="45.91463" lon="6.4901">
        <ele>1660.5999755859</ele>
        <time>2011-03-06T09:10:58.000Z</time>
      </trkpt>
      <trkpt lat="45.91458" lon="6.49011">
        <ele>1661.5999755859</ele>
        <time>2011-03-06T09:11:04.000Z</time>
      </trkpt>
      <trkpt lat="45.91457" lon="6.49012">
        <ele>1662</ele>
        <time>2011-03-06T09:11:07.000Z</time>
      </trkpt>
      <trkpt lat="45.91459" lon="6.49018">
        <ele>1664</ele>
        <time>2011-03-06T09:11:19.000Z</time>
      </trkpt>
      <trkpt lat="45.91459" lon="6.49018">
        <ele>1664.4000244141</ele>
        <time>2011-03-06T09:11:20.000Z</time>
      </trkpt>
      <trkpt lat="45.91461" lon="6.49026">
        <ele>1666.1999511719</ele>
        <time>2011-03-06T09:11:30.000Z</time>
      </trkpt>
      <trkpt lat="45.91462" lon="6.49026">
        <ele>1666.4000244141</ele>
        <time>2011-03-06T09:11:31.000Z</time>
      </trkpt>
      <trkpt lat="45.9147" lon="6.49034">
        <ele>1668.1999511719</ele>
        <time>2011-03-06T09:11:47.000Z</time>
      </trkpt>
      <trkpt lat="45.91468" lon="6.49039">
        <ele>1671.5999755859</ele>
        <time>2011-03-06T09:12:07.000Z</time>
      </trkpt>
      <trkpt lat="45.91465" lon="6.49039">
        <ele>1672.4000244141</ele>
        <time>2011-03-06T09:12:12.000Z</time>
      </trkpt>
      <trkpt lat="45.91463" lon="6.49037">
        <ele>1673</ele>
        <time>2011-03-06T09:12:17.000Z</time>
      </trkpt>
      <trkpt lat="45.91463" lon="6.49037">
        <ele>1673.1999511719</ele>
        <time>2011-03-06T09:12:18.000Z</time>
      </trkpt>
      <trkpt lat="45.9146" lon="6.4904">
        <ele>1674.4000244141</ele>
        <time>2011-03-06T09:12:25.000Z</time>
      </trkpt>
      <trkpt lat="45.91463" lon="6.49048">
        <ele>1675.8000488281</ele>
        <time>2011-03-06T09:12:36.000Z</time>
      </trkpt>
      <trkpt lat="45.91472" lon="6.49072">
        <ele>1683.1999511719</ele>
        <time>2011-03-06T09:13:28.000Z</time>
      </trkpt>
      <trkpt lat="45.9147" lon="6.49073">
        <ele>1683.5999755859</ele>
        <time>2011-03-06T09:13:31.000Z</time>
      </trkpt>
      <trkpt lat="45.91467" lon="6.49071">
        <ele>1684.5999755859</ele>
        <time>2011-03-06T09:13:38.000Z</time>
      </trkpt>
      <trkpt lat="45.91454" lon="6.4907">
        <ele>1689</ele>
        <time>2011-03-06T09:14:03.000Z</time>
      </trkpt>
      <trkpt lat="45.91452" lon="6.49071">
        <ele>1689.5999755859</ele>
        <time>2011-03-06T09:14:06.000Z</time>
      </trkpt>
      <trkpt lat="45.91447" lon="6.49071">
        <ele>1690.8000488281</ele>
        <time>2011-03-06T09:14:16.000Z</time>
      </trkpt>
      <trkpt lat="45.91444" lon="6.49071">
        <ele>1691.4000244141</ele>
        <time>2011-03-06T09:14:19.000Z</time>
      </trkpt>
      <trkpt lat="45.91439" lon="6.49065">
        <ele>1692.8000488281</ele>
        <time>2011-03-06T09:14:28.000Z</time>
      </trkpt>
      <trkpt lat="45.91434" lon="6.49063">
        <ele>1694.1999511719</ele>
        <time>2011-03-06T09:14:35.000Z</time>
      </trkpt>
      <trkpt lat="45.9143" lon="6.49064">
        <ele>1695</ele>
        <time>2011-03-06T09:14:41.000Z</time>
      </trkpt>
      <trkpt lat="45.9143" lon="6.49076">
        <ele>1698</ele>
        <time>2011-03-06T09:14:59.000Z</time>
      </trkpt>
      <trkpt lat="45.91431" lon="6.49082">
        <ele>1698.8000488281</ele>
        <time>2011-03-06T09:15:03.000Z</time>
      </trkpt>
      <trkpt lat="45.91434" lon="6.49089">
        <ele>1699.8000488281</ele>
        <time>2011-03-06T09:15:08.000Z</time>
      </trkpt>
      <trkpt lat="45.91432" lon="6.491">
        <ele>1701.5999755859</ele>
        <time>2011-03-06T09:15:18.000Z</time>
      </trkpt>
      <trkpt lat="45.91433" lon="6.49113">
        <ele>1704.1999511719</ele>
        <time>2011-03-06T09:15:33.000Z</time>
      </trkpt>
      <trkpt lat="45.91425" lon="6.49103">
        <ele>1705.4000244141</ele>
        <time>2011-03-06T09:15:49.000Z</time>
      </trkpt>
      <trkpt lat="45.9142" lon="6.491">
        <ele>1706.1999511719</ele>
        <time>2011-03-06T09:15:55.000Z</time>
      </trkpt>
      <trkpt lat="45.91416" lon="6.49099">
        <ele>1707.4000244141</ele>
        <time>2011-03-06T09:16:00.000Z</time>
      </trkpt>
      <trkpt lat="45.91411" lon="6.49094">
        <ele>1708.8000488281</ele>
        <time>2011-03-06T09:16:09.000Z</time>
      </trkpt>
      <trkpt lat="45.91407" lon="6.49093">
        <ele>1709.1999511719</ele>
        <time>2011-03-06T09:16:15.000Z</time>
      </trkpt>
      <trkpt lat="45.91402" lon="6.4909">
        <ele>1710.5999755859</ele>
        <time>2011-03-06T09:16:24.000Z</time>
      </trkpt>
      <trkpt lat="45.91399" lon="6.49088">
        <ele>1711.5999755859</ele>
        <time>2011-03-06T09:16:29.000Z</time>
      </trkpt>
      <trkpt lat="45.91395" lon="6.4909">
        <ele>1712.8000488281</ele>
        <time>2011-03-06T09:16:35.000Z</time>
      </trkpt>
      <trkpt lat="45.91394" lon="6.4909">
        <ele>1713.8000488281</ele>
        <time>2011-03-06T09:16:39.000Z</time>
      </trkpt>
      <trkpt lat="45.91386" lon="6.49094">
        <ele>1715.5999755859</ele>
        <time>2011-03-06T09:16:59.000Z</time>
      </trkpt>
      <trkpt lat="45.91388" lon="6.49089">
        <ele>1715.8000488281</ele>
        <time>2011-03-06T09:17:02.000Z</time>
      </trkpt>
      <trkpt lat="45.91392" lon="6.49112">
        <ele>1716.5999755859</ele>
        <time>2011-03-06T09:17:11.000Z</time>
      </trkpt>
      <trkpt lat="45.91392" lon="6.4912">
        <ele>1717</ele>
        <time>2011-03-06T09:17:13.000Z</time>
      </trkpt>
      <trkpt lat="45.91394" lon="6.49137">
        <ele>1718.1999511719</ele>
        <time>2011-03-06T09:17:20.000Z</time>
      </trkpt>
      <trkpt lat="45.91393" lon="6.49136">
        <ele>1718.8000488281</ele>
        <time>2011-03-06T09:17:23.000Z</time>
      </trkpt>
      <trkpt lat="45.91395" lon="6.49151">
        <ele>1720.8000488281</ele>
        <time>2011-03-06T09:17:34.000Z</time>
      </trkpt>
      <trkpt lat="45.91396" lon="6.49156">
        <ele>1722</ele>
        <time>2011-03-06T09:17:39.000Z</time>
      </trkpt>
      <trkpt lat="45.91396" lon="6.49147">
        <ele>1726</ele>
        <time>2011-03-06T09:18:09.000Z</time>
      </trkpt>
      <trkpt lat="45.91396" lon="6.49146">
        <ele>1726.1999511719</ele>
        <time>2011-03-06T09:18:10.000Z</time>
      </trkpt>
      <trkpt lat="45.91391" lon="6.4914">
        <ele>1727.4000244141</ele>
        <time>2011-03-06T09:18:18.000Z</time>
      </trkpt>
      <trkpt lat="45.91387" lon="6.49141">
        <ele>1728.4000244141</ele>
        <time>2011-03-06T09:18:25.000Z</time>
      </trkpt>
      <trkpt lat="45.91386" lon="6.49144">
        <ele>1730</ele>
        <time>2011-03-06T09:18:35.000Z</time>
      </trkpt>
      <trkpt lat="45.91386" lon="6.49164">
        <ele>1732</ele>
        <time>2011-03-06T09:18:47.000Z</time>
      </trkpt>
      <trkpt lat="45.91389" lon="6.49162">
        <ele>1732.8000488281</ele>
        <time>2011-03-06T09:18:51.000Z</time>
      </trkpt>
      <trkpt lat="45.91386" lon="6.49184">
        <ele>1737.5999755859</ele>
        <time>2011-03-06T09:19:27.000Z</time>
      </trkpt>
      <trkpt lat="45.91384" lon="6.49182">
        <ele>1738.1999511719</ele>
        <time>2011-03-06T09:19:30.000Z</time>
      </trkpt>
      <trkpt lat="45.91377" lon="6.49173">
        <ele>1739.5999755859</ele>
        <time>2011-03-06T09:19:40.000Z</time>
      </trkpt>
      <trkpt lat="45.91376" lon="6.49173">
        <ele>1740</ele>
        <time>2011-03-06T09:19:41.000Z</time>
      </trkpt>
      <trkpt lat="45.91372" lon="6.49169">
        <ele>1741.8000488281</ele>
        <time>2011-03-06T09:19:49.000Z</time>
      </trkpt>
      <trkpt lat="45.91367" lon="6.49163">
        <ele>1743.4000244141</ele>
        <time>2011-03-06T09:19:59.000Z</time>
      </trkpt>
      <trkpt lat="45.91364" lon="6.4916">
        <ele>1744.5999755859</ele>
        <time>2011-03-06T09:20:06.000Z</time>
      </trkpt>
      <trkpt lat="45.91363" lon="6.4916">
        <ele>1745.1999511719</ele>
        <time>2011-03-06T09:20:09.000Z</time>
      </trkpt>
      <trkpt lat="45.91361" lon="6.49165">
        <ele>1746.4000244141</ele>
        <time>2011-03-06T09:20:16.000Z</time>
      </trkpt>
      <trkpt lat="45.91347" lon="6.49177">
        <ele>1749.8000488281</ele>
        <time>2011-03-06T09:20:39.000Z</time>
      </trkpt>
      <trkpt lat="45.91341" lon="6.49178">
        <ele>1751</ele>
        <time>2011-03-06T09:20:46.000Z</time>
      </trkpt>
      <trkpt lat="45.91337" lon="6.49175">
        <ele>1752</ele>
        <time>2011-03-06T09:20:50.000Z</time>
      </trkpt>
      <trkpt lat="45.91334" lon="6.49178">
        <ele>1753.8000488281</ele>
        <time>2011-03-06T09:20:59.000Z</time>
      </trkpt>
      <trkpt lat="45.91329" lon="6.49179">
        <ele>1755.4000244141</ele>
        <time>2011-03-06T09:21:08.000Z</time>
      </trkpt>
      <trkpt lat="45.91324" lon="6.49182">
        <ele>1756.4000244141</ele>
        <time>2011-03-06T09:21:14.000Z</time>
      </trkpt>
      <trkpt lat="45.91317" lon="6.49191">
        <ele>1758.4000244141</ele>
        <time>2011-03-06T09:21:25.000Z</time>
      </trkpt>
      <trkpt lat="45.91314" lon="6.49184">
        <ele>1759.4000244141</ele>
        <time>2011-03-06T09:21:32.000Z</time>
      </trkpt>
      <trkpt lat="45.91314" lon="6.49176">
        <ele>1759.8000488281</ele>
        <time>2011-03-06T09:22:16.000Z</time>
      </trkpt>
      <trkpt lat="45.91313" lon="6.4918">
        <ele>1759.8000488281</ele>
        <time>2011-03-06T09:22:32.000Z</time>
      </trkpt>
      <trkpt lat="45.91313" lon="6.49182">
        <ele>1759.5999755859</ele>
        <time>2011-03-06T09:22:33.000Z</time>
      </trkpt>
      <trkpt lat="45.91314" lon="6.49188">
        <ele>1759.5999755859</ele>
        <time>2011-03-06T09:22:44.000Z</time>
      </trkpt>
      <trkpt lat="45.91298" lon="6.49196">
        <ele>1759.8000488281</ele>
        <time>2011-03-06T09:23:09.000Z</time>
      </trkpt>
      <trkpt lat="45.91295" lon="6.49197">
        <ele>1760</ele>
        <time>2011-03-06T09:23:14.000Z</time>
      </trkpt>
      <trkpt lat="45.91295" lon="6.49196">
        <ele>1759.8000488281</ele>
        <time>2011-03-06T09:23:16.000Z</time>
      </trkpt>
      <trkpt lat="45.91302" lon="6.4919">
        <ele>1759.8000488281</ele>
        <time>2011-03-06T09:23:34.000Z</time>
      </trkpt>
      <trkpt lat="45.91309" lon="6.49216">
        <ele>1758.8000488281</ele>
        <time>2011-03-06T09:24:01.000Z</time>
      </trkpt>
      <trkpt lat="45.91309" lon="6.49229">
        <ele>1758.5999755859</ele>
        <time>2011-03-06T09:24:10.000Z</time>
      </trkpt>
      <trkpt lat="45.91309" lon="6.49222">
        <ele>1759.1999511719</ele>
        <time>2011-03-06T09:24:14.000Z</time>
      </trkpt>
      <trkpt lat="45.91317" lon="6.49199">
        <ele>1758.1999511719</ele>
        <time>2011-03-06T09:28:01.000Z</time>
      </trkpt>
      <trkpt lat="45.91319" lon="6.49214">
        <ele>1758.1999511719</ele>
        <time>2011-03-06T09:28:17.000Z</time>
      </trkpt>
      <trkpt lat="45.91318" lon="6.4921">
        <ele>1758.5999755859</ele>
        <time>2011-03-06T09:28:34.000Z</time>
      </trkpt>
      <trkpt lat="45.91319" lon="6.49211">
        <ele>1759.5999755859</ele>
        <time>2011-03-06T09:28:41.000Z</time>
      </trkpt>
      <trkpt lat="45.91323" lon="6.4921">
        <ele>1760.5999755859</ele>
        <time>2011-03-06T09:28:47.000Z</time>
      </trkpt>
      <trkpt lat="45.91323" lon="6.49209">
        <ele>1761</ele>
        <time>2011-03-06T09:28:48.000Z</time>
      </trkpt>
      <trkpt lat="45.91326" lon="6.49209">
        <ele>1762</ele>
        <time>2011-03-06T09:28:56.000Z</time>
      </trkpt>
      <trkpt lat="45.91326" lon="6.4921">
        <ele>1762.8000488281</ele>
        <time>2011-03-06T09:29:01.000Z</time>
      </trkpt>
      <trkpt lat="45.91328" lon="6.49214">
        <ele>1763.8000488281</ele>
        <time>2011-03-06T09:29:08.000Z</time>
      </trkpt>
      <trkpt lat="45.91332" lon="6.49217">
        <ele>1765.5999755859</ele>
        <time>2011-03-06T09:29:18.000Z</time>
      </trkpt>
      <trkpt lat="45.91335" lon="6.49218">
        <ele>1766.5999755859</ele>
        <time>2011-03-06T09:29:24.000Z</time>
      </trkpt>
      <trkpt lat="45.91339" lon="6.49223">
        <ele>1768.1999511719</ele>
        <time>2011-03-06T09:29:33.000Z</time>
      </trkpt>
      <trkpt lat="45.91343" lon="6.49226">
        <ele>1769.1999511719</ele>
        <time>2011-03-06T09:29:41.000Z</time>
      </trkpt>
      <trkpt lat="45.91345" lon="6.4923">
        <ele>1770.1999511719</ele>
        <time>2011-03-06T09:29:47.000Z</time>
      </trkpt>
      <trkpt lat="45.91348" lon="6.49236">
        <ele>1771</ele>
        <time>2011-03-06T09:29:52.000Z</time>
      </trkpt>
      <trkpt lat="45.9135" lon="6.49238">
        <ele>1771.8000488281</ele>
        <time>2011-03-06T09:29:56.000Z</time>
      </trkpt>
      <trkpt lat="45.91348" lon="6.4924">
        <ele>1772.4000244141</ele>
        <time>2011-03-06T09:30:03.000Z</time>
      </trkpt>
      <trkpt lat="45.91343" lon="6.49242">
        <ele>1773.8000488281</ele>
        <time>2011-03-06T09:30:12.000Z</time>
      </trkpt>
      <trkpt lat="45.91337" lon="6.49242">
        <ele>1775.1999511719</ele>
        <time>2011-03-06T09:30:22.000Z</time>
      </trkpt>
      <trkpt lat="45.91331" lon="6.49243">
        <ele>1776.8000488281</ele>
        <time>2011-03-06T09:30:32.000Z</time>
      </trkpt>
      <trkpt lat="45.91325" lon="6.49244">
        <ele>1778.4000244141</ele>
        <time>2011-03-06T09:30:41.000Z</time>
      </trkpt>
      <trkpt lat="45.9132" lon="6.49245">
        <ele>1779.8000488281</ele>
        <time>2011-03-06T09:30:50.000Z</time>
      </trkpt>
      <trkpt lat="45.91316" lon="6.49245">
        <ele>1781.1999511719</ele>
        <time>2011-03-06T09:30:58.000Z</time>
      </trkpt>
      <trkpt lat="45.9131" lon="6.49246">
        <ele>1782.5999755859</ele>
        <time>2011-03-06T09:31:06.000Z</time>
      </trkpt>
      <trkpt lat="45.91307" lon="6.49246">
        <ele>1784</ele>
        <time>2011-03-06T09:31:12.000Z</time>
      </trkpt>
      <trkpt lat="45.91303" lon="6.49246">
        <ele>1785.1999511719</ele>
        <time>2011-03-06T09:31:18.000Z</time>
      </trkpt>
      <trkpt lat="45.913" lon="6.49249">
        <ele>1786</ele>
        <time>2011-03-06T09:31:23.000Z</time>
      </trkpt>
      <trkpt lat="45.913" lon="6.49248">
        <ele>1786.4000244141</ele>
        <time>2011-03-06T09:31:29.000Z</time>
      </trkpt>
      <trkpt lat="45.91295" lon="6.49251">
        <ele>1787.5999755859</ele>
        <time>2011-03-06T09:31:38.000Z</time>
      </trkpt>
      <trkpt lat="45.91295" lon="6.4925">
        <ele>1787.5999755859</ele>
        <time>2011-03-06T09:31:39.000Z</time>
      </trkpt>
      <trkpt lat="45.91289" lon="6.49253">
        <ele>1788.1999511719</ele>
        <time>2011-03-06T09:31:46.000Z</time>
      </trkpt>
      <trkpt lat="45.91284" lon="6.49255">
        <ele>1789.5999755859</ele>
        <time>2011-03-06T09:31:54.000Z</time>
      </trkpt>
      <trkpt lat="45.91279" lon="6.49255">
        <ele>1791.1999511719</ele>
        <time>2011-03-06T09:32:03.000Z</time>
      </trkpt>
      <trkpt lat="45.91273" lon="6.49257">
        <ele>1792.4000244141</ele>
        <time>2011-03-06T09:32:11.000Z</time>
      </trkpt>
      <trkpt lat="45.91268" lon="6.49261">
        <ele>1793.1999511719</ele>
        <time>2011-03-06T09:32:18.000Z</time>
      </trkpt>
      <trkpt lat="45.91262" lon="6.49264">
        <ele>1794.4000244141</ele>
        <time>2011-03-06T09:32:27.000Z</time>
      </trkpt>
      <trkpt lat="45.91257" lon="6.49267">
        <ele>1796.1999511719</ele>
        <time>2011-03-06T09:32:37.000Z</time>
      </trkpt>
      <trkpt lat="45.91253" lon="6.49266">
        <ele>1797.1999511719</ele>
        <time>2011-03-06T09:32:43.000Z</time>
      </trkpt>
      <trkpt lat="45.91248" lon="6.49267">
        <ele>1798.4000244141</ele>
        <time>2011-03-06T09:32:51.000Z</time>
      </trkpt>
      <trkpt lat="45.91244" lon="6.49267">
        <ele>1799.8000488281</ele>
        <time>2011-03-06T09:32:58.000Z</time>
      </trkpt>
      <trkpt lat="45.91238" lon="6.49267">
        <ele>1801</ele>
        <time>2011-03-06T09:33:07.000Z</time>
      </trkpt>
      <trkpt lat="45.91234" lon="6.49267">
        <ele>1802</ele>
        <time>2011-03-06T09:33:14.000Z</time>
      </trkpt>
      <trkpt lat="45.91228" lon="6.49267">
        <ele>1803.5999755859</ele>
        <time>2011-03-06T09:33:24.000Z</time>
      </trkpt>
      <trkpt lat="45.91229" lon="6.49269">
        <ele>1805</ele>
        <time>2011-03-06T09:33:37.000Z</time>
      </trkpt>
      <trkpt lat="45.91232" lon="6.49272">
        <ele>1806.4000244141</ele>
        <time>2011-03-06T09:33:44.000Z</time>
      </trkpt>
      <trkpt lat="45.91235" lon="6.49273">
        <ele>1807.1999511719</ele>
        <time>2011-03-06T09:33:48.000Z</time>
      </trkpt>
      <trkpt lat="45.91239" lon="6.49276">
        <ele>1808.4000244141</ele>
        <time>2011-03-06T09:33:55.000Z</time>
      </trkpt>
      <trkpt lat="45.91238" lon="6.49276">
        <ele>1808.8000488281</ele>
        <time>2011-03-06T09:33:58.000Z</time>
      </trkpt>
      <trkpt lat="45.91235" lon="6.49278">
        <ele>1809.1999511719</ele>
        <time>2011-03-06T09:34:02.000Z</time>
      </trkpt>
      <trkpt lat="45.9123" lon="6.49281">
        <ele>1811</ele>
        <time>2011-03-06T09:34:11.000Z</time>
      </trkpt>
      <trkpt lat="45.91226" lon="6.49283">
        <ele>1812.5999755859</ele>
        <time>2011-03-06T09:34:19.000Z</time>
      </trkpt>
      <trkpt lat="45.91222" lon="6.49284">
        <ele>1813.8000488281</ele>
        <time>2011-03-06T09:34:24.000Z</time>
      </trkpt>
      <trkpt lat="45.91218" lon="6.49286">
        <ele>1815.4000244141</ele>
        <time>2011-03-06T09:34:31.000Z</time>
      </trkpt>
      <trkpt lat="45.91215" lon="6.49287">
        <ele>1816.5999755859</ele>
        <time>2011-03-06T09:34:38.000Z</time>
      </trkpt>
      <trkpt lat="45.91211" lon="6.49288">
        <ele>1818.1999511719</ele>
        <time>2011-03-06T09:34:45.000Z</time>
      </trkpt>
      <trkpt lat="45.91207" lon="6.49289">
        <ele>1819.5999755859</ele>
        <time>2011-03-06T09:34:51.000Z</time>
      </trkpt>
      <trkpt lat="45.91203" lon="6.49291">
        <ele>1821.1999511719</ele>
        <time>2011-03-06T09:34:59.000Z</time>
      </trkpt>
      <trkpt lat="45.91198" lon="6.49292">
        <ele>1823</ele>
        <time>2011-03-06T09:35:08.000Z</time>
      </trkpt>
      <trkpt lat="45.91195" lon="6.49293">
        <ele>1824.1999511719</ele>
        <time>2011-03-06T09:35:15.000Z</time>
      </trkpt>
      <trkpt lat="45.91199" lon="6.49297">
        <ele>1825.1999511719</ele>
        <time>2011-03-06T09:35:25.000Z</time>
      </trkpt>
      <trkpt lat="45.91201" lon="6.493">
        <ele>1825.8000488281</ele>
        <time>2011-03-06T09:35:29.000Z</time>
      </trkpt>
      <trkpt lat="45.91206" lon="6.49304">
        <ele>1827.1999511719</ele>
        <time>2011-03-06T09:35:38.000Z</time>
      </trkpt>
      <trkpt lat="45.91207" lon="6.49305">
        <ele>1827.8000488281</ele>
        <time>2011-03-06T09:35:40.000Z</time>
      </trkpt>
      <trkpt lat="45.91209" lon="6.4931">
        <ele>1828.8000488281</ele>
        <time>2011-03-06T09:35:47.000Z</time>
      </trkpt>
      <trkpt lat="45.91211" lon="6.49314">
        <ele>1829.5999755859</ele>
        <time>2011-03-06T09:35:53.000Z</time>
      </trkpt>
      <trkpt lat="45.91209" lon="6.49314">
        <ele>1830</ele>
        <time>2011-03-06T09:36:00.000Z</time>
      </trkpt>
      <trkpt lat="45.91202" lon="6.49313">
        <ele>1831.8000488281</ele>
        <time>2011-03-06T09:36:10.000Z</time>
      </trkpt>
      <trkpt lat="45.91191" lon="6.49313">
        <ele>1834.8000488281</ele>
        <time>2011-03-06T09:36:22.000Z</time>
      </trkpt>
      <trkpt lat="45.91185" lon="6.49313">
        <ele>1836.4000244141</ele>
        <time>2011-03-06T09:36:30.000Z</time>
      </trkpt>
      <trkpt lat="45.91179" lon="6.49312">
        <ele>1838</ele>
        <time>2011-03-06T09:36:38.000Z</time>
      </trkpt>
      <trkpt lat="45.91174" lon="6.49311">
        <ele>1839.5999755859</ele>
        <time>2011-03-06T09:36:46.000Z</time>
      </trkpt>
      <trkpt lat="45.91167" lon="6.49311">
        <ele>1841.5999755859</ele>
        <time>2011-03-06T09:36:56.000Z</time>
      </trkpt>
      <trkpt lat="45.91161" lon="6.49312">
        <ele>1843.5999755859</ele>
        <time>2011-03-06T09:37:06.000Z</time>
      </trkpt>
      <trkpt lat="45.91155" lon="6.49314">
        <ele>1844.8000488281</ele>
        <time>2011-03-06T09:37:14.000Z</time>
      </trkpt>
      <trkpt lat="45.9115" lon="6.49315">
        <ele>1846.5999755859</ele>
        <time>2011-03-06T09:37:22.000Z</time>
      </trkpt>
      <trkpt lat="45.91149" lon="6.49315">
        <ele>1847.1999511719</ele>
        <time>2011-03-06T09:37:25.000Z</time>
      </trkpt>
      <trkpt lat="45.91151" lon="6.49319">
        <ele>1848</ele>
        <time>2011-03-06T09:37:34.000Z</time>
      </trkpt>
      <trkpt lat="45.91154" lon="6.49323">
        <ele>1849.4000244141</ele>
        <time>2011-03-06T09:37:41.000Z</time>
      </trkpt>
      <trkpt lat="45.91155" lon="6.49323">
        <ele>1849.5999755859</ele>
        <time>2011-03-06T09:37:42.000Z</time>
      </trkpt>
      <trkpt lat="45.9116" lon="6.4933">
        <ele>1851.4000244141</ele>
        <time>2011-03-06T09:37:51.000Z</time>
      </trkpt>
      <trkpt lat="45.91165" lon="6.49337">
        <ele>1852.8000488281</ele>
        <time>2011-03-06T09:37:59.000Z</time>
      </trkpt>
      <trkpt lat="45.91167" lon="6.49339">
        <ele>1853.5999755859</ele>
        <time>2011-03-06T09:38:04.000Z</time>
      </trkpt>
      <trkpt lat="45.9117" lon="6.49344">
        <ele>1854.8000488281</ele>
        <time>2011-03-06T09:38:10.000Z</time>
      </trkpt>
      <trkpt lat="45.91174" lon="6.49348">
        <ele>1856</ele>
        <time>2011-03-06T09:38:18.000Z</time>
      </trkpt>
      <trkpt lat="45.91175" lon="6.49349">
        <ele>1856.5999755859</ele>
        <time>2011-03-06T09:38:21.000Z</time>
      </trkpt>
      <trkpt lat="45.91173" lon="6.49349">
        <ele>1857.4000244141</ele>
        <time>2011-03-06T09:38:28.000Z</time>
      </trkpt>
      <trkpt lat="45.91171" lon="6.49349">
        <ele>1857.8000488281</ele>
        <time>2011-03-06T09:38:31.000Z</time>
      </trkpt>
      <trkpt lat="45.91164" lon="6.49348">
        <ele>1859</ele>
        <time>2011-03-06T09:38:40.000Z</time>
      </trkpt>
      <trkpt lat="45.91159" lon="6.49348">
        <ele>1860.5999755859</ele>
        <time>2011-03-06T09:38:48.000Z</time>
      </trkpt>
      <trkpt lat="45.91154" lon="6.4935">
        <ele>1861.4000244141</ele>
        <time>2011-03-06T09:38:54.000Z</time>
      </trkpt>
      <trkpt lat="45.91146" lon="6.49349">
        <ele>1863.5999755859</ele>
        <time>2011-03-06T09:39:06.000Z</time>
      </trkpt>
      <trkpt lat="45.9114" lon="6.49348">
        <ele>1864.8000488281</ele>
        <time>2011-03-06T09:39:15.000Z</time>
      </trkpt>
      <trkpt lat="45.91134" lon="6.49348">
        <ele>1866.4000244141</ele>
        <time>2011-03-06T09:39:23.000Z</time>
      </trkpt>
      <trkpt lat="45.91129" lon="6.49346">
        <ele>1867.5999755859</ele>
        <time>2011-03-06T09:39:30.000Z</time>
      </trkpt>
      <trkpt lat="45.91125" lon="6.49344">
        <ele>1869.1999511719</ele>
        <time>2011-03-06T09:39:38.000Z</time>
      </trkpt>
      <trkpt lat="45.91118" lon="6.49341">
        <ele>1870.5999755859</ele>
        <time>2011-03-06T09:39:47.000Z</time>
      </trkpt>
      <trkpt lat="45.91113" lon="6.49339">
        <ele>1871.8000488281</ele>
        <time>2011-03-06T09:39:54.000Z</time>
      </trkpt>
      <trkpt lat="45.91108" lon="6.49338">
        <ele>1873</ele>
        <time>2011-03-06T09:40:02.000Z</time>
      </trkpt>
      <trkpt lat="45.91102" lon="6.49335">
        <ele>1874.1999511719</ele>
        <time>2011-03-06T09:40:11.000Z</time>
      </trkpt>
      <trkpt lat="45.91096" lon="6.49331">
        <ele>1876</ele>
        <time>2011-03-06T09:40:20.000Z</time>
      </trkpt>
      <trkpt lat="45.9109" lon="6.49328">
        <ele>1877.4000244141</ele>
        <time>2011-03-06T09:40:29.000Z</time>
      </trkpt>
      <trkpt lat="45.91083" lon="6.49325">
        <ele>1879.1999511719</ele>
        <time>2011-03-06T09:40:39.000Z</time>
      </trkpt>
      <trkpt lat="45.91079" lon="6.49323">
        <ele>1880.8000488281</ele>
        <time>2011-03-06T09:40:47.000Z</time>
      </trkpt>
      <trkpt lat="45.91072" lon="6.49321">
        <ele>1882.4000244141</ele>
        <time>2011-03-06T09:40:55.000Z</time>
      </trkpt>
      <trkpt lat="45.91068" lon="6.49316">
        <ele>1884</ele>
        <time>2011-03-06T09:41:03.000Z</time>
      </trkpt>
      <trkpt lat="45.91068" lon="6.49316">
        <ele>1884.4000244141</ele>
        <time>2011-03-06T09:41:05.000Z</time>
      </trkpt>
      <trkpt lat="45.9107" lon="6.49314">
        <ele>1885.4000244141</ele>
        <time>2011-03-06T09:43:44.000Z</time>
      </trkpt>
      <trkpt lat="45.91065" lon="6.49313">
        <ele>1886</ele>
        <time>2011-03-06T09:43:51.000Z</time>
      </trkpt>
      <trkpt lat="45.91061" lon="6.49314">
        <ele>1887</ele>
        <time>2011-03-06T09:43:57.000Z</time>
      </trkpt>
      <trkpt lat="45.91054" lon="6.49316">
        <ele>1888.8000488281</ele>
        <time>2011-03-06T09:44:07.000Z</time>
      </trkpt>
      <trkpt lat="45.91047" lon="6.49319">
        <ele>1890</ele>
        <time>2011-03-06T09:44:17.000Z</time>
      </trkpt>
      <trkpt lat="45.91043" lon="6.49322">
        <ele>1891.8000488281</ele>
        <time>2011-03-06T09:44:25.000Z</time>
      </trkpt>
      <trkpt lat="45.91038" lon="6.49325">
        <ele>1893.1999511719</ele>
        <time>2011-03-06T09:44:33.000Z</time>
      </trkpt>
      <trkpt lat="45.91034" lon="6.49324">
        <ele>1894.4000244141</ele>
        <time>2011-03-06T09:44:39.000Z</time>
      </trkpt>
      <trkpt lat="45.91031" lon="6.49324">
        <ele>1895.4000244141</ele>
        <time>2011-03-06T09:44:45.000Z</time>
      </trkpt>
      <trkpt lat="45.91028" lon="6.49322">
        <ele>1896.4000244141</ele>
        <time>2011-03-06T09:44:51.000Z</time>
      </trkpt>
      <trkpt lat="45.91023" lon="6.4932">
        <ele>1897.8000488281</ele>
        <time>2011-03-06T09:44:59.000Z</time>
      </trkpt>
      <trkpt lat="45.91019" lon="6.49319">
        <ele>1898.8000488281</ele>
        <time>2011-03-06T09:45:05.000Z</time>
      </trkpt>
      <trkpt lat="45.91016" lon="6.49319">
        <ele>1899.8000488281</ele>
        <time>2011-03-06T09:45:12.000Z</time>
      </trkpt>
      <trkpt lat="45.91016" lon="6.4932">
        <ele>1900.1999511719</ele>
        <time>2011-03-06T09:45:13.000Z</time>
      </trkpt>
      <trkpt lat="45.91017" lon="6.49329">
        <ele>1901</ele>
        <time>2011-03-06T09:45:21.000Z</time>
      </trkpt>
      <trkpt lat="45.91017" lon="6.49336">
        <ele>1902.1999511719</ele>
        <time>2011-03-06T09:45:28.000Z</time>
      </trkpt>
      <trkpt lat="45.91018" lon="6.49342">
        <ele>1903.4000244141</ele>
        <time>2011-03-06T09:45:33.000Z</time>
      </trkpt>
      <trkpt lat="45.91018" lon="6.49348">
        <ele>1904</ele>
        <time>2011-03-06T09:45:37.000Z</time>
      </trkpt>
      <trkpt lat="45.91019" lon="6.49356">
        <ele>1905</ele>
        <time>2011-03-06T09:45:44.000Z</time>
      </trkpt>
      <trkpt lat="45.91021" lon="6.49372">
        <ele>1906.1999511719</ele>
        <time>2011-03-06T09:45:53.000Z</time>
      </trkpt>
      <trkpt lat="45.9102" lon="6.49383">
        <ele>1907.8000488281</ele>
        <time>2011-03-06T09:46:02.000Z</time>
      </trkpt>
      <trkpt lat="45.9102" lon="6.49389">
        <ele>1908.5999755859</ele>
        <time>2011-03-06T09:46:07.000Z</time>
      </trkpt>
      <trkpt lat="45.91017" lon="6.4939">
        <ele>1909.8000488281</ele>
        <time>2011-03-06T09:46:14.000Z</time>
      </trkpt>
      <trkpt lat="45.91012" lon="6.49386">
        <ele>1911</ele>
        <time>2011-03-06T09:46:20.000Z</time>
      </trkpt>
      <trkpt lat="45.91009" lon="6.49382">
        <ele>1911.8000488281</ele>
        <time>2011-03-06T09:46:25.000Z</time>
      </trkpt>
      <trkpt lat="45.91005" lon="6.49378">
        <ele>1913.1999511719</ele>
        <time>2011-03-06T09:46:32.000Z</time>
      </trkpt>
      <trkpt lat="45.91002" lon="6.49376">
        <ele>1914</ele>
        <time>2011-03-06T09:46:37.000Z</time>
      </trkpt>
      <trkpt lat="45.90999" lon="6.49374">
        <ele>1915.1999511719</ele>
        <time>2011-03-06T09:46:42.000Z</time>
      </trkpt>
      <trkpt lat="45.90995" lon="6.49372">
        <ele>1916.5999755859</ele>
        <time>2011-03-06T09:46:51.000Z</time>
      </trkpt>
      <trkpt lat="45.90994" lon="6.49371">
        <ele>1916.8000488281</ele>
        <time>2011-03-06T09:46:52.000Z</time>
      </trkpt>
      <trkpt lat="45.9099" lon="6.4937">
        <ele>1918.1999511719</ele>
        <time>2011-03-06T09:46:59.000Z</time>
      </trkpt>
      <trkpt lat="45.90986" lon="6.49368">
        <ele>1919.1999511719</ele>
        <time>2011-03-06T09:47:05.000Z</time>
      </trkpt>
      <trkpt lat="45.90983" lon="6.49367">
        <ele>1920.4000244141</ele>
        <time>2011-03-06T09:47:11.000Z</time>
      </trkpt>
      <trkpt lat="45.9098" lon="6.49367">
        <ele>1921.4000244141</ele>
        <time>2011-03-06T09:47:16.000Z</time>
      </trkpt>
      <trkpt lat="45.90974" lon="6.49366">
        <ele>1922.8000488281</ele>
        <time>2011-03-06T09:47:27.000Z</time>
      </trkpt>
      <trkpt lat="45.9097" lon="6.49365">
        <ele>1924.1999511719</ele>
        <time>2011-03-06T09:47:34.000Z</time>
      </trkpt>
      <trkpt lat="45.90967" lon="6.49367">
        <ele>1925.4000244141</ele>
        <time>2011-03-06T09:47:40.000Z</time>
      </trkpt>
      <trkpt lat="45.90967" lon="6.49373">
        <ele>1926.5999755859</ele>
        <time>2011-03-06T09:47:46.000Z</time>
      </trkpt>
      <trkpt lat="45.90967" lon="6.49384">
        <ele>1927.5999755859</ele>
        <time>2011-03-06T09:47:52.000Z</time>
      </trkpt>
      <trkpt lat="45.90967" lon="6.49392">
        <ele>1929.1999511719</ele>
        <time>2011-03-06T09:47:59.000Z</time>
      </trkpt>
      <trkpt lat="45.90965" lon="6.49397">
        <ele>1931</ele>
        <time>2011-03-06T09:48:09.000Z</time>
      </trkpt>
      <trkpt lat="45.90964" lon="6.49399">
        <ele>1932</ele>
        <time>2011-03-06T09:48:15.000Z</time>
      </trkpt>
      <trkpt lat="45.90963" lon="6.49401">
        <ele>1933</ele>
        <time>2011-03-06T09:48:20.000Z</time>
      </trkpt>
      <trkpt lat="45.9096" lon="6.49396">
        <ele>1933.4000244141</ele>
        <time>2011-03-06T09:48:31.000Z</time>
      </trkpt>
      <trkpt lat="45.90958" lon="6.49393">
        <ele>1934</ele>
        <time>2011-03-06T09:48:37.000Z</time>
      </trkpt>
      <trkpt lat="45.90956" lon="6.49394">
        <ele>1935.1999511719</ele>
        <time>2011-03-06T09:48:42.000Z</time>
      </trkpt>
      <trkpt lat="45.90952" lon="6.49397">
        <ele>1936.5999755859</ele>
        <time>2011-03-06T09:48:52.000Z</time>
      </trkpt>
      <trkpt lat="45.90948" lon="6.49397">
        <ele>1938.4000244141</ele>
        <time>2011-03-06T09:49:00.000Z</time>
      </trkpt>
      <trkpt lat="45.90944" lon="6.49396">
        <ele>1940</ele>
        <time>2011-03-06T09:49:09.000Z</time>
      </trkpt>
      <trkpt lat="45.90942" lon="6.49396">
        <ele>1940.8000488281</ele>
        <time>2011-03-06T09:49:13.000Z</time>
      </trkpt>
      <trkpt lat="45.90939" lon="6.49395">
        <ele>1941.8000488281</ele>
        <time>2011-03-06T09:49:19.000Z</time>
      </trkpt>
      <trkpt lat="45.90937" lon="6.49393">
        <ele>1943</ele>
        <time>2011-03-06T09:49:25.000Z</time>
      </trkpt>
      <trkpt lat="45.90936" lon="6.49393">
        <ele>1943</ele>
        <time>2011-03-06T09:49:26.000Z</time>
      </trkpt>
      <trkpt lat="45.90933" lon="6.4939">
        <ele>1944.5999755859</ele>
        <time>2011-03-06T09:49:33.000Z</time>
      </trkpt>
      <trkpt lat="45.90933" lon="6.4939">
        <ele>1944.8000488281</ele>
        <time>2011-03-06T09:49:34.000Z</time>
      </trkpt>
      <trkpt lat="45.90932" lon="6.49398">
        <ele>1946.1999511719</ele>
        <time>2011-03-06T09:49:45.000Z</time>
      </trkpt>
      <trkpt lat="45.90931" lon="6.49405">
        <ele>1948</ele>
        <time>2011-03-06T09:49:54.000Z</time>
      </trkpt>
      <trkpt lat="45.9093" lon="6.49409">
        <ele>1949.8000488281</ele>
        <time>2011-03-06T09:50:01.000Z</time>
      </trkpt>
      <trkpt lat="45.9093" lon="6.49419">
        <ele>1952.1999511719</ele>
        <time>2011-03-06T09:50:14.000Z</time>
      </trkpt>
      <trkpt lat="45.90929" lon="6.49422">
        <ele>1953.5999755859</ele>
        <time>2011-03-06T09:50:21.000Z</time>
      </trkpt>
      <trkpt lat="45.90929" lon="6.49425">
        <ele>1954.4000244141</ele>
        <time>2011-03-06T09:50:24.000Z</time>
      </trkpt>
      <trkpt lat="45.90926" lon="6.49422">
        <ele>1955.1999511719</ele>
        <time>2011-03-06T09:50:34.000Z</time>
      </trkpt>
      <trkpt lat="45.90923" lon="6.49421">
        <ele>1956.8000488281</ele>
        <time>2011-03-06T09:50:42.000Z</time>
      </trkpt>
      <trkpt lat="45.90918" lon="6.49418">
        <ele>1958.4000244141</ele>
        <time>2011-03-06T09:50:51.000Z</time>
      </trkpt>
      <trkpt lat="45.90915" lon="6.49415">
        <ele>1959.5999755859</ele>
        <time>2011-03-06T09:50:58.000Z</time>
      </trkpt>
      <trkpt lat="45.90912" lon="6.49413">
        <ele>1960.8000488281</ele>
        <time>2011-03-06T09:51:03.000Z</time>
      </trkpt>
      <trkpt lat="45.90909" lon="6.49412">
        <ele>1961.8000488281</ele>
        <time>2011-03-06T09:51:09.000Z</time>
      </trkpt>
      <trkpt lat="45.90906" lon="6.49409">
        <ele>1963</ele>
        <time>2011-03-06T09:51:16.000Z</time>
      </trkpt>
      <trkpt lat="45.90903" lon="6.49405">
        <ele>1964.1999511719</ele>
        <time>2011-03-06T09:51:24.000Z</time>
      </trkpt>
      <trkpt lat="45.90901" lon="6.49401">
        <ele>1965</ele>
        <time>2011-03-06T09:51:30.000Z</time>
      </trkpt>
      <trkpt lat="45.90899" lon="6.49395">
        <ele>1966.4000244141</ele>
        <time>2011-03-06T09:51:39.000Z</time>
      </trkpt>
      <trkpt lat="45.90897" lon="6.49389">
        <ele>1967.5999755859</ele>
        <time>2011-03-06T09:51:47.000Z</time>
      </trkpt>
      <trkpt lat="45.90895" lon="6.49386">
        <ele>1968.8000488281</ele>
        <time>2011-03-06T09:51:52.000Z</time>
      </trkpt>
      <trkpt lat="45.90894" lon="6.49382">
        <ele>1969.8000488281</ele>
        <time>2011-03-06T09:51:59.000Z</time>
      </trkpt>
      <trkpt lat="45.90891" lon="6.49376">
        <ele>1971</ele>
        <time>2011-03-06T09:52:06.000Z</time>
      </trkpt>
      <trkpt lat="45.9089" lon="6.49373">
        <ele>1971.8000488281</ele>
        <time>2011-03-06T09:52:10.000Z</time>
      </trkpt>
      <trkpt lat="45.90888" lon="6.49368">
        <ele>1972.8000488281</ele>
        <time>2011-03-06T09:52:18.000Z</time>
      </trkpt>
      <trkpt lat="45.90887" lon="6.49363">
        <ele>1974</ele>
        <time>2011-03-06T09:52:24.000Z</time>
      </trkpt>
      <trkpt lat="45.90886" lon="6.49359">
        <ele>1975</ele>
        <time>2011-03-06T09:52:30.000Z</time>
      </trkpt>
      <trkpt lat="45.90886" lon="6.49356">
        <ele>1975.8000488281</ele>
        <time>2011-03-06T09:52:35.000Z</time>
      </trkpt>
      <trkpt lat="45.90881" lon="6.49345">
        <ele>1976.8000488281</ele>
        <time>2011-03-06T09:52:50.000Z</time>
      </trkpt>
      <trkpt lat="45.90883" lon="6.49342">
        <ele>1978.1999511719</ele>
        <time>2011-03-06T09:52:58.000Z</time>
      </trkpt>
      <trkpt lat="45.90892" lon="6.49339">
        <ele>1978.8000488281</ele>
        <time>2011-03-06T09:53:03.000Z</time>
      </trkpt>
      <trkpt lat="45.90889" lon="6.49334">
        <ele>1980.4000244141</ele>
        <time>2011-03-06T09:53:11.000Z</time>
      </trkpt>
      <trkpt lat="45.90887" lon="6.49333">
        <ele>1980.5999755859</ele>
        <time>2011-03-06T09:53:13.000Z</time>
      </trkpt>
      <trkpt lat="45.90882" lon="6.49332">
        <ele>1982</ele>
        <time>2011-03-06T09:53:20.000Z</time>
      </trkpt>
      <trkpt lat="45.90881" lon="6.49334">
        <ele>1982.8000488281</ele>
        <time>2011-03-06T09:53:23.000Z</time>
      </trkpt>
      <trkpt lat="45.90879" lon="6.49334">
        <ele>1984</ele>
        <time>2011-03-06T09:53:38.000Z</time>
      </trkpt>
      <trkpt lat="45.90879" lon="6.49335">
        <ele>1984.1999511719</ele>
        <time>2011-03-06T09:53:39.000Z</time>
      </trkpt>
      <trkpt lat="45.90878" lon="6.49342">
        <ele>1985.1999511719</ele>
        <time>2011-03-06T09:53:46.000Z</time>
      </trkpt>
      <trkpt lat="45.90875" lon="6.49348">
        <ele>1986.4000244141</ele>
        <time>2011-03-06T09:53:55.000Z</time>
      </trkpt>
      <trkpt lat="45.90872" lon="6.49355">
        <ele>1987.5999755859</ele>
        <time>2011-03-06T09:54:03.000Z</time>
      </trkpt>
      <trkpt lat="45.90871" lon="6.49358">
        <ele>1988.1999511719</ele>
        <time>2011-03-06T09:54:08.000Z</time>
      </trkpt>
      <trkpt lat="45.90869" lon="6.49368">
        <ele>1989.4000244141</ele>
        <time>2011-03-06T09:54:16.000Z</time>
      </trkpt>
      <trkpt lat="45.90868" lon="6.49372">
        <ele>1990</ele>
        <time>2011-03-06T09:54:21.000Z</time>
      </trkpt>
      <trkpt lat="45.90865" lon="6.49379">
        <ele>1991.8000488281</ele>
        <time>2011-03-06T09:54:30.000Z</time>
      </trkpt>
      <trkpt lat="45.90865" lon="6.49386">
        <ele>1992.5999755859</ele>
        <time>2011-03-06T09:54:37.000Z</time>
      </trkpt>
      <trkpt lat="45.90864" lon="6.49393">
        <ele>1993.8000488281</ele>
        <time>2011-03-06T09:54:45.000Z</time>
      </trkpt>
      <trkpt lat="45.90863" lon="6.49397">
        <ele>1994.8000488281</ele>
        <time>2011-03-06T09:54:50.000Z</time>
      </trkpt>
      <trkpt lat="45.90861" lon="6.49401">
        <ele>1996</ele>
        <time>2011-03-06T09:54:58.000Z</time>
      </trkpt>
      <trkpt lat="45.9086" lon="6.49405">
        <ele>1996.8000488281</ele>
        <time>2011-03-06T09:55:04.000Z</time>
      </trkpt>
      <trkpt lat="45.90859" lon="6.49411">
        <ele>1998</ele>
        <time>2011-03-06T09:55:11.000Z</time>
      </trkpt>
      <trkpt lat="45.90855" lon="6.49421">
        <ele>2000.1999511719</ele>
        <time>2011-03-06T09:55:25.000Z</time>
      </trkpt>
      <trkpt lat="45.90854" lon="6.49424">
        <ele>2001.1999511719</ele>
        <time>2011-03-06T09:55:31.000Z</time>
      </trkpt>
      <trkpt lat="45.90852" lon="6.49428">
        <ele>2002.1999511719</ele>
        <time>2011-03-06T09:55:38.000Z</time>
      </trkpt>
      <trkpt lat="45.90851" lon="6.49441">
        <ele>2003.5999755859</ele>
        <time>2011-03-06T09:55:49.000Z</time>
      </trkpt>
      <trkpt lat="45.90851" lon="6.49449">
        <ele>2005</ele>
        <time>2011-03-06T09:55:57.000Z</time>
      </trkpt>
      <trkpt lat="45.90851" lon="6.49459">
        <ele>2006.4000244141</ele>
        <time>2011-03-06T09:56:05.000Z</time>
      </trkpt>
      <trkpt lat="45.90851" lon="6.49469">
        <ele>2007.5999755859</ele>
        <time>2011-03-06T09:56:13.000Z</time>
      </trkpt>
      <trkpt lat="45.9085" lon="6.49476">
        <ele>2009.4000244141</ele>
        <time>2011-03-06T09:56:23.000Z</time>
      </trkpt>
      <trkpt lat="45.9085" lon="6.49483">
        <ele>2010.4000244141</ele>
        <time>2011-03-06T09:56:30.000Z</time>
      </trkpt>
      <trkpt lat="45.9085" lon="6.49491">
        <ele>2012</ele>
        <time>2011-03-06T09:56:39.000Z</time>
      </trkpt>
      <trkpt lat="45.90849" lon="6.49498">
        <ele>2013.4000244141</ele>
        <time>2011-03-06T09:56:47.000Z</time>
      </trkpt>
      <trkpt lat="45.90848" lon="6.49504">
        <ele>2014.8000488281</ele>
        <time>2011-03-06T09:56:55.000Z</time>
      </trkpt>
      <trkpt lat="45.90847" lon="6.49512">
        <ele>2016.1999511719</ele>
        <time>2011-03-06T09:57:04.000Z</time>
      </trkpt>
      <trkpt lat="45.90845" lon="6.49518">
        <ele>2017.1999511719</ele>
        <time>2011-03-06T09:57:13.000Z</time>
      </trkpt>
      <trkpt lat="45.90844" lon="6.49521">
        <ele>2018</ele>
        <time>2011-03-06T09:57:20.000Z</time>
      </trkpt>
      <trkpt lat="45.90842" lon="6.49523">
        <ele>2018.1999511719</ele>
        <time>2011-03-06T09:57:27.000Z</time>
      </trkpt>
      <trkpt lat="45.90841" lon="6.49527">
        <ele>2018.5999755859</ele>
        <time>2011-03-06T09:57:33.000Z</time>
      </trkpt>
      <trkpt lat="45.90839" lon="6.49531">
        <ele>2019</ele>
        <time>2011-03-06T09:57:38.000Z</time>
      </trkpt>
      <trkpt lat="45.90836" lon="6.49537">
        <ele>2020</ele>
        <time>2011-03-06T09:57:46.000Z</time>
      </trkpt>
      <trkpt lat="45.90833" lon="6.49543">
        <ele>2020.8000488281</ele>
        <time>2011-03-06T09:57:54.000Z</time>
      </trkpt>
      <trkpt lat="45.90831" lon="6.49549">
        <ele>2021.4000244141</ele>
        <time>2011-03-06T09:58:01.000Z</time>
      </trkpt>
      <trkpt lat="45.90829" lon="6.49562">
        <ele>2023</ele>
        <time>2011-03-06T09:58:12.000Z</time>
      </trkpt>
      <trkpt lat="45.90828" lon="6.49569">
        <ele>2024.1999511719</ele>
        <time>2011-03-06T09:58:19.000Z</time>
      </trkpt>
      <trkpt lat="45.90827" lon="6.49573">
        <ele>2024.5999755859</ele>
        <time>2011-03-06T09:58:23.000Z</time>
      </trkpt>
      <trkpt lat="45.90824" lon="6.49577">
        <ele>2025.5999755859</ele>
        <time>2011-03-06T09:58:30.000Z</time>
      </trkpt>
      <trkpt lat="45.90823" lon="6.49585">
        <ele>2026.8000488281</ele>
        <time>2011-03-06T09:58:37.000Z</time>
      </trkpt>
      <trkpt lat="45.90822" lon="6.49589">
        <ele>2027.1999511719</ele>
        <time>2011-03-06T09:58:41.000Z</time>
      </trkpt>
      <trkpt lat="45.90821" lon="6.49595">
        <ele>2028.1999511719</ele>
        <time>2011-03-06T09:58:48.000Z</time>
      </trkpt>
      <trkpt lat="45.90819" lon="6.496">
        <ele>2029.4000244141</ele>
        <time>2011-03-06T09:58:57.000Z</time>
      </trkpt>
      <trkpt lat="45.90819" lon="6.49601">
        <ele>2030.1999511719</ele>
        <time>2011-03-06T09:59:02.000Z</time>
      </trkpt>
      <trkpt lat="45.90819" lon="6.49601">
        <ele>2030.1999511719</ele>
        <time>2011-03-06T09:59:03.000Z</time>
      </trkpt>
      <trkpt lat="45.90827" lon="6.49612">
        <ele>2035</ele>
        <time>2011-03-06T09:59:36.000Z</time>
      </trkpt>
      <trkpt lat="45.90826" lon="6.49612">
        <ele>2035</ele>
        <time>2011-03-06T09:59:40.000Z</time>
      </trkpt>
      <trkpt lat="45.90823" lon="6.49613">
        <ele>2035.5999755859</ele>
        <time>2011-03-06T09:59:47.000Z</time>
      </trkpt>
      <trkpt lat="45.90819" lon="6.49611">
        <ele>2036.5999755859</ele>
        <time>2011-03-06T09:59:54.000Z</time>
      </trkpt>
      <trkpt lat="45.90815" lon="6.49608">
        <ele>2037.5999755859</ele>
        <time>2011-03-06T10:00:02.000Z</time>
      </trkpt>
      <trkpt lat="45.90813" lon="6.49608">
        <ele>2038</ele>
        <time>2011-03-06T10:00:05.000Z</time>
      </trkpt>
      <trkpt lat="45.90809" lon="6.49604">
        <ele>2038.5999755859</ele>
        <time>2011-03-06T10:00:11.000Z</time>
      </trkpt>
      <trkpt lat="45.90803" lon="6.49601">
        <ele>2039.8000488281</ele>
        <time>2011-03-06T10:00:19.000Z</time>
      </trkpt>
      <trkpt lat="45.90799" lon="6.49598">
        <ele>2041</ele>
        <time>2011-03-06T10:00:26.000Z</time>
      </trkpt>
      <trkpt lat="45.90795" lon="6.49595">
        <ele>2041.8000488281</ele>
        <time>2011-03-06T10:00:32.000Z</time>
      </trkpt>
      <trkpt lat="45.90793" lon="6.49594">
        <ele>2043</ele>
        <time>2011-03-06T10:00:38.000Z</time>
      </trkpt>
      <trkpt lat="45.90793" lon="6.49594">
        <ele>2043.1999511719</ele>
        <time>2011-03-06T10:00:39.000Z</time>
      </trkpt>
      <trkpt lat="45.90792" lon="6.49602">
        <ele>2044.5999755859</ele>
        <time>2011-03-06T10:00:48.000Z</time>
      </trkpt>
      <trkpt lat="45.90793" lon="6.4961">
        <ele>2045.5999755859</ele>
        <time>2011-03-06T10:00:55.000Z</time>
      </trkpt>
      <trkpt lat="45.90794" lon="6.49614">
        <ele>2046.5999755859</ele>
        <time>2011-03-06T10:01:00.000Z</time>
      </trkpt>
      <trkpt lat="45.90792" lon="6.49615">
        <ele>2047.5999755859</ele>
        <time>2011-03-06T10:01:11.000Z</time>
      </trkpt>
      <trkpt lat="45.90787" lon="6.49612">
        <ele>2049</ele>
        <time>2011-03-06T10:01:21.000Z</time>
      </trkpt>
      <trkpt lat="45.90784" lon="6.49615">
        <ele>2050.8000488281</ele>
        <time>2011-03-06T10:01:30.000Z</time>
      </trkpt>
      <trkpt lat="45.90781" lon="6.49625">
        <ele>2053.1999511719</ele>
        <time>2011-03-06T10:01:43.000Z</time>
      </trkpt>
      <trkpt lat="45.90779" lon="6.49628">
        <ele>2054.8000488281</ele>
        <time>2011-03-06T10:01:51.000Z</time>
      </trkpt>
      <trkpt lat="45.90775" lon="6.49627">
        <ele>2055.6000976562</ele>
        <time>2011-03-06T10:01:56.000Z</time>
      </trkpt>
      <trkpt lat="45.90774" lon="6.49631">
        <ele>2057</ele>
        <time>2011-03-06T10:02:03.000Z</time>
      </trkpt>
      <trkpt lat="45.90769" lon="6.49629">
        <ele>2058</ele>
        <time>2011-03-06T10:02:08.000Z</time>
      </trkpt>
      <trkpt lat="45.90766" lon="6.4963">
        <ele>2059</ele>
        <time>2011-03-06T10:02:15.000Z</time>
      </trkpt>
      <trkpt lat="45.90762" lon="6.49631">
        <ele>2059.8000488281</ele>
        <time>2011-03-06T10:02:21.000Z</time>
      </trkpt>
      <trkpt lat="45.90761" lon="6.49632">
        <ele>2060.3999023438</ele>
        <time>2011-03-06T10:02:24.000Z</time>
      </trkpt>
      <trkpt lat="45.90767" lon="6.4964">
        <ele>2063.6000976562</ele>
        <time>2011-03-06T10:02:45.000Z</time>
      </trkpt>
      <trkpt lat="45.90763" lon="6.49642">
        <ele>2064.6000976562</ele>
        <time>2011-03-06T10:02:51.000Z</time>
      </trkpt>
      <trkpt lat="45.90763" lon="6.49643">
        <ele>2065</ele>
        <time>2011-03-06T10:02:52.000Z</time>
      </trkpt>
      <trkpt lat="45.90759" lon="6.49644">
        <ele>2066</ele>
        <time>2011-03-06T10:02:59.000Z</time>
      </trkpt>
      <trkpt lat="45.90759" lon="6.49644">
        <ele>2066.3999023438</ele>
        <time>2011-03-06T10:03:00.000Z</time>
      </trkpt>
      <trkpt lat="45.9075" lon="6.49639">
        <ele>2067.6000976562</ele>
        <time>2011-03-06T10:03:16.000Z</time>
      </trkpt>
      <trkpt lat="45.90745" lon="6.49635">
        <ele>2069.1999511719</ele>
        <time>2011-03-06T10:03:22.000Z</time>
      </trkpt>
      <trkpt lat="45.90742" lon="6.49634">
        <ele>2070.6000976562</ele>
        <time>2011-03-06T10:03:30.000Z</time>
      </trkpt>
      <trkpt lat="45.90741" lon="6.49639">
        <ele>2071.1999511719</ele>
        <time>2011-03-06T10:03:35.000Z</time>
      </trkpt>
      <trkpt lat="45.9074" lon="6.49646">
        <ele>2073</ele>
        <time>2011-03-06T10:03:44.000Z</time>
      </trkpt>
      <trkpt lat="45.90738" lon="6.4965">
        <ele>2074.1999511719</ele>
        <time>2011-03-06T10:03:51.000Z</time>
      </trkpt>
      <trkpt lat="45.90738" lon="6.49652">
        <ele>2075.1999511719</ele>
        <time>2011-03-06T10:03:54.000Z</time>
      </trkpt>
      <trkpt lat="45.90735" lon="6.49651">
        <ele>2076</ele>
        <time>2011-03-06T10:04:03.000Z</time>
      </trkpt>
      <trkpt lat="45.90732" lon="6.49649">
        <ele>2077</ele>
        <time>2011-03-06T10:04:09.000Z</time>
      </trkpt>
      <trkpt lat="45.90727" lon="6.49646">
        <ele>2078.8000488281</ele>
        <time>2011-03-06T10:04:18.000Z</time>
      </trkpt>
      <trkpt lat="45.90722" lon="6.49645">
        <ele>2079.8000488281</ele>
        <time>2011-03-06T10:04:25.000Z</time>
      </trkpt>
      <trkpt lat="45.90718" lon="6.49646">
        <ele>2081.6000976562</ele>
        <time>2011-03-06T10:04:31.000Z</time>
      </trkpt>
      <trkpt lat="45.90716" lon="6.49651">
        <ele>2082.8000488281</ele>
        <time>2011-03-06T10:04:38.000Z</time>
      </trkpt>
      <trkpt lat="45.90715" lon="6.49656">
        <ele>2084.1999511719</ele>
        <time>2011-03-06T10:04:45.000Z</time>
      </trkpt>
      <trkpt lat="45.90717" lon="6.49662">
        <ele>2086</ele>
        <time>2011-03-06T10:04:53.000Z</time>
      </trkpt>
      <trkpt lat="45.90719" lon="6.49664">
        <ele>2086.6000976562</ele>
        <time>2011-03-06T10:04:55.000Z</time>
      </trkpt>
      <trkpt lat="45.90721" lon="6.49669">
        <ele>2087.8000488281</ele>
        <time>2011-03-06T10:05:02.000Z</time>
      </trkpt>
      <trkpt lat="45.9072" lon="6.49674">
        <ele>2089.1999511719</ele>
        <time>2011-03-06T10:05:08.000Z</time>
      </trkpt>
      <trkpt lat="45.90715" lon="6.49681">
        <ele>2091</ele>
        <time>2011-03-06T10:05:18.000Z</time>
      </trkpt>
      <trkpt lat="45.90714" lon="6.49689">
        <ele>2092.3999023438</ele>
        <time>2011-03-06T10:05:25.000Z</time>
      </trkpt>
      <trkpt lat="45.90713" lon="6.49697">
        <ele>2094.1999511719</ele>
        <time>2011-03-06T10:05:33.000Z</time>
      </trkpt>
      <trkpt lat="45.90713" lon="6.49701">
        <ele>2095.1999511719</ele>
        <time>2011-03-06T10:05:38.000Z</time>
      </trkpt>
      <trkpt lat="45.90713" lon="6.49701">
        <ele>2095.8000488281</ele>
        <time>2011-03-06T10:05:39.000Z</time>
      </trkpt>
      <trkpt lat="45.90712" lon="6.49707">
        <ele>2096.8000488281</ele>
        <time>2011-03-06T10:05:45.000Z</time>
      </trkpt>
      <trkpt lat="45.90709" lon="6.49716">
        <ele>2098.3999023438</ele>
        <time>2011-03-06T10:05:55.000Z</time>
      </trkpt>
      <trkpt lat="45.90703" lon="6.49724">
        <ele>2100.3999023438</ele>
        <time>2011-03-06T10:06:05.000Z</time>
      </trkpt>
      <trkpt lat="45.90699" lon="6.49727">
        <ele>2100.8000488281</ele>
        <time>2011-03-06T10:06:09.000Z</time>
      </trkpt>
      <trkpt lat="45.90693" lon="6.49736">
        <ele>2101</ele>
        <time>2011-03-06T10:06:18.000Z</time>
      </trkpt>
      <trkpt lat="45.90687" lon="6.49743">
        <ele>2102.6000976562</ele>
        <time>2011-03-06T10:06:28.000Z</time>
      </trkpt>
      <trkpt lat="45.90684" lon="6.49749">
        <ele>2104</ele>
        <time>2011-03-06T10:06:34.000Z</time>
      </trkpt>
      <trkpt lat="45.90681" lon="6.49762">
        <ele>2106.8000488281</ele>
        <time>2011-03-06T10:06:45.000Z</time>
      </trkpt>
      <trkpt lat="45.9068" lon="6.49771">
        <ele>2108.8000488281</ele>
        <time>2011-03-06T10:06:54.000Z</time>
      </trkpt>
      <trkpt lat="45.90678" lon="6.49776">
        <ele>2110.3999023438</ele>
        <time>2011-03-06T10:07:00.000Z</time>
      </trkpt>
      <trkpt lat="45.90677" lon="6.49779">
        <ele>2111.8000488281</ele>
        <time>2011-03-06T10:07:06.000Z</time>
      </trkpt>
      <trkpt lat="45.90676" lon="6.49781">
        <ele>2112.8000488281</ele>
        <time>2011-03-06T10:07:11.000Z</time>
      </trkpt>
      <trkpt lat="45.90675" lon="6.49781">
        <ele>2113.8000488281</ele>
        <time>2011-03-06T10:07:14.000Z</time>
      </trkpt>
      <trkpt lat="45.90683" lon="6.49808">
        <ele>2126.8000488281</ele>
        <time>2011-03-06T10:08:13.000Z</time>
      </trkpt>
      <trkpt lat="45.90683" lon="6.49808">
        <ele>2127.1999511719</ele>
        <time>2011-03-06T10:08:14.000Z</time>
      </trkpt>
      <trkpt lat="45.90684" lon="6.49822">
        <ele>2131.1999511719</ele>
        <time>2011-03-06T10:08:38.000Z</time>
      </trkpt>
      <trkpt lat="45.90678" lon="6.4983">
        <ele>2133.6000976562</ele>
        <time>2011-03-06T10:08:48.000Z</time>
      </trkpt>
      <trkpt lat="45.90673" lon="6.49838">
        <ele>2136</ele>
        <time>2011-03-06T10:08:58.000Z</time>
      </trkpt>
      <trkpt lat="45.90667" lon="6.49844">
        <ele>2137.8000488281</ele>
        <time>2011-03-06T10:09:07.000Z</time>
      </trkpt>
      <trkpt lat="45.90662" lon="6.49849">
        <ele>2139.8000488281</ele>
        <time>2011-03-06T10:09:16.000Z</time>
      </trkpt>
      <trkpt lat="45.90656" lon="6.49853">
        <ele>2142</ele>
        <time>2011-03-06T10:09:26.000Z</time>
      </trkpt>
      <trkpt lat="45.90651" lon="6.49856">
        <ele>2144</ele>
        <time>2011-03-06T10:09:35.000Z</time>
      </trkpt>
      <trkpt lat="45.90644" lon="6.4986">
        <ele>2146.6000976562</ele>
        <time>2011-03-06T10:09:45.000Z</time>
      </trkpt>
      <trkpt lat="45.90642" lon="6.49862">
        <ele>2147.8000488281</ele>
        <time>2011-03-06T10:09:49.000Z</time>
      </trkpt>
      <trkpt lat="45.90639" lon="6.49868">
        <ele>2149.1999511719</ele>
        <time>2011-03-06T10:09:58.000Z</time>
      </trkpt>
      <trkpt lat="45.90638" lon="6.49871">
        <ele>2150.3999023438</ele>
        <time>2011-03-06T10:10:03.000Z</time>
      </trkpt>
      <trkpt lat="45.90636" lon="6.49873">
        <ele>2151.1999511719</ele>
        <time>2011-03-06T10:10:08.000Z</time>
      </trkpt>
      <trkpt lat="45.9063" lon="6.4988">
        <ele>2153.6000976562</ele>
        <time>2011-03-06T10:10:19.000Z</time>
      </trkpt>
      <trkpt lat="45.90626" lon="6.49886">
        <ele>2155.1999511719</ele>
        <time>2011-03-06T10:10:28.000Z</time>
      </trkpt>
      <trkpt lat="45.90623" lon="6.49894">
        <ele>2157</ele>
        <time>2011-03-06T10:10:37.000Z</time>
      </trkpt>
      <trkpt lat="45.90622" lon="6.499">
        <ele>2158.3999023438</ele>
        <time>2011-03-06T10:10:44.000Z</time>
      </trkpt>
      <trkpt lat="45.90625" lon="6.49905">
        <ele>2160.6000976562</ele>
        <time>2011-03-06T10:10:52.000Z</time>
      </trkpt>
      <trkpt lat="45.90626" lon="6.49907">
        <ele>2161.6000976562</ele>
        <time>2011-03-06T10:10:56.000Z</time>
      </trkpt>
      <trkpt lat="45.90628" lon="6.49907">
        <ele>2162</ele>
        <time>2011-03-06T10:11:00.000Z</time>
      </trkpt>
      <trkpt lat="45.90634" lon="6.49908">
        <ele>2163.8000488281</ele>
        <time>2011-03-06T10:11:08.000Z</time>
      </trkpt>
      <trkpt lat="45.90639" lon="6.49908">
        <ele>2165.3999023438</ele>
        <time>2011-03-06T10:11:15.000Z</time>
      </trkpt>
      <trkpt lat="45.90642" lon="6.49907">
        <ele>2166.6000976562</ele>
        <time>2011-03-06T10:11:20.000Z</time>
      </trkpt>
      <trkpt lat="45.90646" lon="6.49904">
        <ele>2168.1999511719</ele>
        <time>2011-03-06T10:11:27.000Z</time>
      </trkpt>
      <trkpt lat="45.9065" lon="6.49906">
        <ele>2169.3999023438</ele>
        <time>2011-03-06T10:11:33.000Z</time>
      </trkpt>
      <trkpt lat="45.90654" lon="6.4991">
        <ele>2170.8000488281</ele>
        <time>2011-03-06T10:11:40.000Z</time>
      </trkpt>
      <trkpt lat="45.90658" lon="6.49913">
        <ele>2171.8000488281</ele>
        <time>2011-03-06T10:11:45.000Z</time>
      </trkpt>
      <trkpt lat="45.90661" lon="6.49917">
        <ele>2173</ele>
        <time>2011-03-06T10:11:51.000Z</time>
      </trkpt>
      <trkpt lat="45.90661" lon="6.49918">
        <ele>2173.3999023438</ele>
        <time>2011-03-06T10:11:52.000Z</time>
      </trkpt>
      <trkpt lat="45.90656" lon="6.49924">
        <ele>2175</ele>
        <time>2011-03-06T10:12:05.000Z</time>
      </trkpt>
      <trkpt lat="45.90652" lon="6.49932">
        <ele>2177.3999023438</ele>
        <time>2011-03-06T10:12:15.000Z</time>
      </trkpt>
      <trkpt lat="45.90649" lon="6.49938">
        <ele>2179.8000488281</ele>
        <time>2011-03-06T10:12:25.000Z</time>
      </trkpt>
      <trkpt lat="45.90646" lon="6.49945">
        <ele>2181.3999023438</ele>
        <time>2011-03-06T10:12:34.000Z</time>
      </trkpt>
      <trkpt lat="45.90643" lon="6.49949">
        <ele>2183</ele>
        <time>2011-03-06T10:12:41.000Z</time>
      </trkpt>
      <trkpt lat="45.90646" lon="6.49949">
        <ele>2183.3999023438</ele>
        <time>2011-03-06T10:12:47.000Z</time>
      </trkpt>
      <trkpt lat="45.90654" lon="6.49951">
        <ele>2185.3999023438</ele>
        <time>2011-03-06T10:12:57.000Z</time>
      </trkpt>
      <trkpt lat="45.9066" lon="6.49955">
        <ele>2187.6000976562</ele>
        <time>2011-03-06T10:13:06.000Z</time>
      </trkpt>
      <trkpt lat="45.90665" lon="6.4996">
        <ele>2190</ele>
        <time>2011-03-06T10:13:16.000Z</time>
      </trkpt>
      <trkpt lat="45.90665" lon="6.4996">
        <ele>2190.1999511719</ele>
        <time>2011-03-06T10:13:17.000Z</time>
      </trkpt>
      <trkpt lat="45.90667" lon="6.49961">
        <ele>2191.1999511719</ele>
        <time>2011-03-06T10:13:22.000Z</time>
      </trkpt>
      <trkpt lat="45.90666" lon="6.49964">
        <ele>2192</ele>
        <time>2011-03-06T10:13:29.000Z</time>
      </trkpt>
      <trkpt lat="45.90664" lon="6.49965">
        <ele>2192.1999511719</ele>
        <time>2011-03-06T10:13:33.000Z</time>
      </trkpt>
      <trkpt lat="45.90657" lon="6.49972">
        <ele>2194.1999511719</ele>
        <time>2011-03-06T10:13:43.000Z</time>
      </trkpt>
      <trkpt lat="45.90651" lon="6.49978">
        <ele>2196</ele>
        <time>2011-03-06T10:13:52.000Z</time>
      </trkpt>
      <trkpt lat="45.90646" lon="6.49984">
        <ele>2197.6000976562</ele>
        <time>2011-03-06T10:14:01.000Z</time>
      </trkpt>
      <trkpt lat="45.90644" lon="6.49986">
        <ele>2199.1999511719</ele>
        <time>2011-03-06T10:14:06.000Z</time>
      </trkpt>
      <trkpt lat="45.90647" lon="6.49986">
        <ele>2199.8000488281</ele>
        <time>2011-03-06T10:14:13.000Z</time>
      </trkpt>
      <trkpt lat="45.90651" lon="6.49988">
        <ele>2201</ele>
        <time>2011-03-06T10:14:19.000Z</time>
      </trkpt>
      <trkpt lat="45.90653" lon="6.49989">
        <ele>2201.8000488281</ele>
        <time>2011-03-06T10:14:23.000Z</time>
      </trkpt>
      <trkpt lat="45.90661" lon="6.49992">
        <ele>2203.3999023438</ele>
        <time>2011-03-06T10:14:32.000Z</time>
      </trkpt>
      <trkpt lat="45.90664" lon="6.49993">
        <ele>2205</ele>
        <time>2011-03-06T10:14:38.000Z</time>
      </trkpt>
      <trkpt lat="45.90661" lon="6.49997">
        <ele>2205.3999023438</ele>
        <time>2011-03-06T10:14:43.000Z</time>
      </trkpt>
      <trkpt lat="45.90661" lon="6.49997">
        <ele>2205.6000976562</ele>
        <time>2011-03-06T10:14:44.000Z</time>
      </trkpt>
      <trkpt lat="45.90655" lon="6.50005">
        <ele>2207.1999511719</ele>
        <time>2011-03-06T10:14:53.000Z</time>
      </trkpt>
      <trkpt lat="45.9065" lon="6.50011">
        <ele>2209</ele>
        <time>2011-03-06T10:15:03.000Z</time>
      </trkpt>
      <trkpt lat="45.90645" lon="6.50016">
        <ele>2210.6000976562</ele>
        <time>2011-03-06T10:15:11.000Z</time>
      </trkpt>
      <trkpt lat="45.90639" lon="6.50022">
        <ele>2212.8000488281</ele>
        <time>2011-03-06T10:15:22.000Z</time>
      </trkpt>
      <trkpt lat="45.90632" lon="6.50026">
        <ele>2214.8000488281</ele>
        <time>2011-03-06T10:15:32.000Z</time>
      </trkpt>
      <trkpt lat="45.90627" lon="6.50028">
        <ele>2216.1999511719</ele>
        <time>2011-03-06T10:15:40.000Z</time>
      </trkpt>
      <trkpt lat="45.90625" lon="6.50029">
        <ele>2217</ele>
        <time>2011-03-06T10:15:44.000Z</time>
      </trkpt>
      <trkpt lat="45.90629" lon="6.5003">
        <ele>2217.3999023438</ele>
        <time>2011-03-06T10:15:51.000Z</time>
      </trkpt>
      <trkpt lat="45.90632" lon="6.50031">
        <ele>2218.1999511719</ele>
        <time>2011-03-06T10:15:54.000Z</time>
      </trkpt>
      <trkpt lat="45.90638" lon="6.50033">
        <ele>2219.3999023438</ele>
        <time>2011-03-06T10:16:03.000Z</time>
      </trkpt>
      <trkpt lat="45.90645" lon="6.50036">
        <ele>2221.3999023438</ele>
        <time>2011-03-06T10:16:14.000Z</time>
      </trkpt>
      <trkpt lat="45.90653" lon="6.50045">
        <ele>2223.1999511719</ele>
        <time>2011-03-06T10:16:24.000Z</time>
      </trkpt>
      <trkpt lat="45.90658" lon="6.50052">
        <ele>2225</ele>
        <time>2011-03-06T10:16:32.000Z</time>
      </trkpt>
      <trkpt lat="45.90661" lon="6.50061">
        <ele>2225.3999023438</ele>
        <time>2011-03-06T10:16:52.000Z</time>
      </trkpt>
      <trkpt lat="45.90659" lon="6.5007">
        <ele>2227.6000976562</ele>
        <time>2011-03-06T10:17:01.000Z</time>
      </trkpt>
      <trkpt lat="45.90661" lon="6.50079">
        <ele>2229.8000488281</ele>
        <time>2011-03-06T10:17:11.000Z</time>
      </trkpt>
      <trkpt lat="45.90662" lon="6.50086">
        <ele>2231.3999023438</ele>
        <time>2011-03-06T10:17:18.000Z</time>
      </trkpt>
      <trkpt lat="45.90662" lon="6.50096">
        <ele>2233.3999023438</ele>
        <time>2011-03-06T10:17:28.000Z</time>
      </trkpt>
      <trkpt lat="45.90664" lon="6.50103">
        <ele>2235.1999511719</ele>
        <time>2011-03-06T10:17:36.000Z</time>
      </trkpt>
      <trkpt lat="45.90665" lon="6.5011">
        <ele>2236.8000488281</ele>
        <time>2011-03-06T10:17:43.000Z</time>
      </trkpt>
      <trkpt lat="45.90663" lon="6.50118">
        <ele>2238.3999023438</ele>
        <time>2011-03-06T10:17:51.000Z</time>
      </trkpt>
      <trkpt lat="45.90665" lon="6.50121">
        <ele>2239.1999511719</ele>
        <time>2011-03-06T10:17:55.000Z</time>
      </trkpt>
      <trkpt lat="45.90669" lon="6.50126">
        <ele>2240.3999023438</ele>
        <time>2011-03-06T10:18:03.000Z</time>
      </trkpt>
      <trkpt lat="45.90672" lon="6.50131">
        <ele>2241.8000488281</ele>
        <time>2011-03-06T10:18:10.000Z</time>
      </trkpt>
      <trkpt lat="45.90672" lon="6.5014">
        <ele>2243.3999023438</ele>
        <time>2011-03-06T10:18:19.000Z</time>
      </trkpt>
      <trkpt lat="45.90676" lon="6.50144">
        <ele>2244.8000488281</ele>
        <time>2011-03-06T10:18:26.000Z</time>
      </trkpt>
      <trkpt lat="45.90679" lon="6.50147">
        <ele>2246.1999511719</ele>
        <time>2011-03-06T10:18:33.000Z</time>
      </trkpt>
      <trkpt lat="45.90681" lon="6.50155">
        <ele>2248.1999511719</ele>
        <time>2011-03-06T10:18:43.000Z</time>
      </trkpt>
      <trkpt lat="45.90682" lon="6.50161">
        <ele>2250</ele>
        <time>2011-03-06T10:18:52.000Z</time>
      </trkpt>
      <trkpt lat="45.90682" lon="6.50162">
        <ele>2250.1999511719</ele>
        <time>2011-03-06T10:18:53.000Z</time>
      </trkpt>
      <trkpt lat="45.90687" lon="6.50165">
        <ele>2251.1999511719</ele>
        <time>2011-03-06T10:19:00.000Z</time>
      </trkpt>
      <trkpt lat="45.90687" lon="6.50166">
        <ele>2251.1999511719</ele>
        <time>2011-03-06T10:19:01.000Z</time>
      </trkpt>
      <trkpt lat="45.90693" lon="6.50174">
        <ele>2253.1999511719</ele>
        <time>2011-03-06T10:19:11.000Z</time>
      </trkpt>
      <trkpt lat="45.90696" lon="6.50182">
        <ele>2254.8000488281</ele>
        <time>2011-03-06T10:19:20.000Z</time>
      </trkpt>
      <trkpt lat="45.90696" lon="6.5019">
        <ele>2256.6000976562</ele>
        <time>2011-03-06T10:19:29.000Z</time>
      </trkpt>
      <trkpt lat="45.90699" lon="6.50201">
        <ele>2257.8000488281</ele>
        <time>2011-03-06T10:19:38.000Z</time>
      </trkpt>
      <trkpt lat="45.907" lon="6.50213">
        <ele>2258.8000488281</ele>
        <time>2011-03-06T10:19:47.000Z</time>
      </trkpt>
      <trkpt lat="45.90699" lon="6.50221">
        <ele>2259.8000488281</ele>
        <time>2011-03-06T10:19:55.000Z</time>
      </trkpt>
      <trkpt lat="45.90696" lon="6.50229">
        <ele>2261.1999511719</ele>
        <time>2011-03-06T10:20:03.000Z</time>
      </trkpt>
      <trkpt lat="45.90697" lon="6.50233">
        <ele>2262.6000976562</ele>
        <time>2011-03-06T10:20:08.000Z</time>
      </trkpt>
      <trkpt lat="45.907" lon="6.50236">
        <ele>2263.1999511719</ele>
        <time>2011-03-06T10:20:12.000Z</time>
      </trkpt>
      <trkpt lat="45.90705" lon="6.50242">
        <ele>2264.8000488281</ele>
        <time>2011-03-06T10:20:20.000Z</time>
      </trkpt>
      <trkpt lat="45.90709" lon="6.50247">
        <ele>2266.6000976562</ele>
        <time>2011-03-06T10:20:28.000Z</time>
      </trkpt>
      <trkpt lat="45.90713" lon="6.5025">
        <ele>2267.8000488281</ele>
        <time>2011-03-06T10:20:35.000Z</time>
      </trkpt>
      <trkpt lat="45.90714" lon="6.50254">
        <ele>2268.6000976562</ele>
        <time>2011-03-06T10:20:40.000Z</time>
      </trkpt>
      <trkpt lat="45.90711" lon="6.50255">
        <ele>2269.3999023438</ele>
        <time>2011-03-06T10:20:44.000Z</time>
      </trkpt>
      <trkpt lat="45.90706" lon="6.50259">
        <ele>2270.6000976562</ele>
        <time>2011-03-06T10:20:50.000Z</time>
      </trkpt>
      <trkpt lat="45.90701" lon="6.50263">
        <ele>2272.1999511719</ele>
        <time>2011-03-06T10:20:58.000Z</time>
      </trkpt>
      <trkpt lat="45.90696" lon="6.50267">
        <ele>2274.1999511719</ele>
        <time>2011-03-06T10:21:07.000Z</time>
      </trkpt>
      <trkpt lat="45.90694" lon="6.50274">
        <ele>2276</ele>
        <time>2011-03-06T10:21:15.000Z</time>
      </trkpt>
      <trkpt lat="45.90695" lon="6.50279">
        <ele>2278</ele>
        <time>2011-03-06T10:21:23.000Z</time>
      </trkpt>
      <trkpt lat="45.90699" lon="6.50281">
        <ele>2279.1999511719</ele>
        <time>2011-03-06T10:21:30.000Z</time>
      </trkpt>
      <trkpt lat="45.907" lon="6.50284">
        <ele>2280.1999511719</ele>
        <time>2011-03-06T10:21:36.000Z</time>
      </trkpt>
      <trkpt lat="45.907" lon="6.5029">
        <ele>2282</ele>
        <time>2011-03-06T10:21:44.000Z</time>
      </trkpt>
      <trkpt lat="45.90697" lon="6.50295">
        <ele>2283.6000976562</ele>
        <time>2011-03-06T10:21:52.000Z</time>
      </trkpt>
      <trkpt lat="45.90696" lon="6.50304">
        <ele>2285.3999023438</ele>
        <time>2011-03-06T10:22:01.000Z</time>
      </trkpt>
      <trkpt lat="45.90695" lon="6.5031">
        <ele>2286.6000976562</ele>
        <time>2011-03-06T10:22:07.000Z</time>
      </trkpt>
      <trkpt lat="45.90694" lon="6.5032">
        <ele>2288.8000488281</ele>
        <time>2011-03-06T10:22:17.000Z</time>
      </trkpt>
      <trkpt lat="45.90693" lon="6.50329">
        <ele>2290.3999023438</ele>
        <time>2011-03-06T10:22:25.000Z</time>
      </trkpt>
      <trkpt lat="45.90691" lon="6.50339">
        <ele>2292.1999511719</ele>
        <time>2011-03-06T10:22:35.000Z</time>
      </trkpt>
      <trkpt lat="45.90692" lon="6.50343">
        <ele>2293.8000488281</ele>
        <time>2011-03-06T10:22:42.000Z</time>
      </trkpt>
      <trkpt lat="45.90694" lon="6.50346">
        <ele>2295</ele>
        <time>2011-03-06T10:22:48.000Z</time>
      </trkpt>
      <trkpt lat="45.90696" lon="6.50348">
        <ele>2296.1999511719</ele>
        <time>2011-03-06T10:22:55.000Z</time>
      </trkpt>
      <trkpt lat="45.907" lon="6.50352">
        <ele>2297.6000976562</ele>
        <time>2011-03-06T10:23:02.000Z</time>
      </trkpt>
      <trkpt lat="45.90704" lon="6.50355">
        <ele>2298.3999023438</ele>
        <time>2011-03-06T10:23:07.000Z</time>
      </trkpt>
      <trkpt lat="45.90706" lon="6.50359">
        <ele>2299.8000488281</ele>
        <time>2011-03-06T10:23:13.000Z</time>
      </trkpt>
      <trkpt lat="45.90711" lon="6.50365">
        <ele>2301.1999511719</ele>
        <time>2011-03-06T10:23:21.000Z</time>
      </trkpt>
      <trkpt lat="45.90716" lon="6.50368">
        <ele>2302.1999511719</ele>
        <time>2011-03-06T10:23:26.000Z</time>
      </trkpt>
      <trkpt lat="45.90721" lon="6.50371">
        <ele>2303.8000488281</ele>
        <time>2011-03-06T10:23:34.000Z</time>
      </trkpt>
      <trkpt lat="45.90729" lon="6.50373">
        <ele>2305.8000488281</ele>
        <time>2011-03-06T10:23:44.000Z</time>
      </trkpt>
      <trkpt lat="45.90737" lon="6.50374">
        <ele>2308.1999511719</ele>
        <time>2011-03-06T10:23:55.000Z</time>
      </trkpt>
      <trkpt lat="45.90738" lon="6.50379">
        <ele>2309.1999511719</ele>
        <time>2011-03-06T10:24:00.000Z</time>
      </trkpt>
      <trkpt lat="45.9074" lon="6.5039">
        <ele>2310.6000976562</ele>
        <time>2011-03-06T10:24:09.000Z</time>
      </trkpt>
      <trkpt lat="45.90741" lon="6.50398">
        <ele>2312.8000488281</ele>
        <time>2011-03-06T10:24:19.000Z</time>
      </trkpt>
      <trkpt lat="45.90741" lon="6.50401">
        <ele>2314</ele>
        <time>2011-03-06T10:24:24.000Z</time>
      </trkpt>
      <trkpt lat="45.9074" lon="6.50405">
        <ele>2315.3999023438</ele>
        <time>2011-03-06T10:24:30.000Z</time>
      </trkpt>
      <trkpt lat="45.90739" lon="6.50408">
        <ele>2316.6000976562</ele>
        <time>2011-03-06T10:24:35.000Z</time>
      </trkpt>
      <trkpt lat="45.90738" lon="6.50412">
        <ele>2317.6000976562</ele>
        <time>2011-03-06T10:24:40.000Z</time>
      </trkpt>
      <trkpt lat="45.90735" lon="6.50418">
        <ele>2319.6000976562</ele>
        <time>2011-03-06T10:24:49.000Z</time>
      </trkpt>
      <trkpt lat="45.90732" lon="6.50423">
        <ele>2320.6000976562</ele>
        <time>2011-03-06T10:24:55.000Z</time>
      </trkpt>
      <trkpt lat="45.90729" lon="6.50427">
        <ele>2321.6000976562</ele>
        <time>2011-03-06T10:25:00.000Z</time>
      </trkpt>
      <trkpt lat="45.90726" lon="6.50428">
        <ele>2322.3999023438</ele>
        <time>2011-03-06T10:25:04.000Z</time>
      </trkpt>
      <trkpt lat="45.90725" lon="6.50428">
        <ele>2322.6000976562</ele>
        <time>2011-03-06T10:25:06.000Z</time>
      </trkpt>
      <trkpt lat="45.9072" lon="6.5043">
        <ele>2323.8000488281</ele>
        <time>2011-03-06T10:25:12.000Z</time>
      </trkpt>
      <trkpt lat="45.90715" lon="6.50434">
        <ele>2325.1999511719</ele>
        <time>2011-03-06T10:25:19.000Z</time>
      </trkpt>
      <trkpt lat="45.90713" lon="6.50436">
        <ele>2326.1999511719</ele>
        <time>2011-03-06T10:25:24.000Z</time>
      </trkpt>
      <trkpt lat="45.90712" lon="6.50437">
        <ele>2327</ele>
        <time>2011-03-06T10:25:28.000Z</time>
      </trkpt>
      <trkpt lat="45.90712" lon="6.50441">
        <ele>2327.3999023438</ele>
        <time>2011-03-06T10:25:34.000Z</time>
      </trkpt>
      <trkpt lat="45.90707" lon="6.50447">
        <ele>2329.1999511719</ele>
        <time>2011-03-06T10:25:43.000Z</time>
      </trkpt>
      <trkpt lat="45.90707" lon="6.50447">
        <ele>2329.6000976562</ele>
        <time>2011-03-06T10:25:44.000Z</time>
      </trkpt>
      <trkpt lat="45.90709" lon="6.50447">
        <ele>2330.1999511719</ele>
        <time>2011-03-06T10:25:50.000Z</time>
      </trkpt>
      <trkpt lat="45.90714" lon="6.50452">
        <ele>2331.8000488281</ele>
        <time>2011-03-06T10:25:59.000Z</time>
      </trkpt>
      <trkpt lat="45.90718" lon="6.50458">
        <ele>2333</ele>
        <time>2011-03-06T10:26:06.000Z</time>
      </trkpt>
      <trkpt lat="45.90721" lon="6.50462">
        <ele>2334.3999023438</ele>
        <time>2011-03-06T10:26:12.000Z</time>
      </trkpt>
      <trkpt lat="45.90722" lon="6.50465">
        <ele>2335.1999511719</ele>
        <time>2011-03-06T10:26:17.000Z</time>
      </trkpt>
      <trkpt lat="45.90724" lon="6.50468">
        <ele>2336.8000488281</ele>
        <time>2011-03-06T10:26:24.000Z</time>
      </trkpt>
      <trkpt lat="45.90728" lon="6.50472">
        <ele>2338.3999023438</ele>
        <time>2011-03-06T10:26:30.000Z</time>
      </trkpt>
      <trkpt lat="45.90732" lon="6.50479">
        <ele>2340.1999511719</ele>
        <time>2011-03-06T10:26:38.000Z</time>
      </trkpt>
      <trkpt lat="45.90735" lon="6.50482">
        <ele>2341.1999511719</ele>
        <time>2011-03-06T10:26:44.000Z</time>
      </trkpt>
      <trkpt lat="45.90736" lon="6.50487">
        <ele>2342.3999023438</ele>
        <time>2011-03-06T10:26:51.000Z</time>
      </trkpt>
      <trkpt lat="45.90734" lon="6.50492">
        <ele>2343.8000488281</ele>
        <time>2011-03-06T10:26:59.000Z</time>
      </trkpt>
      <trkpt lat="45.90732" lon="6.50498">
        <ele>2345.8000488281</ele>
        <time>2011-03-06T10:27:09.000Z</time>
      </trkpt>
      <trkpt lat="45.90735" lon="6.50502">
        <ele>2347.1999511719</ele>
        <time>2011-03-06T10:27:17.000Z</time>
      </trkpt>
      <trkpt lat="45.90741" lon="6.5051">
        <ele>2349.3999023438</ele>
        <time>2011-03-06T10:27:27.000Z</time>
      </trkpt>
      <trkpt lat="45.90742" lon="6.50516">
        <ele>2350.8000488281</ele>
        <time>2011-03-06T10:27:34.000Z</time>
      </trkpt>
      <trkpt lat="45.90741" lon="6.50523">
        <ele>2352.8000488281</ele>
        <time>2011-03-06T10:27:42.000Z</time>
      </trkpt>
      <trkpt lat="45.90745" lon="6.5053">
        <ele>2354.3999023438</ele>
        <time>2011-03-06T10:27:50.000Z</time>
      </trkpt>
      <trkpt lat="45.90746" lon="6.50536">
        <ele>2356.1999511719</ele>
        <time>2011-03-06T10:27:58.000Z</time>
      </trkpt>
      <trkpt lat="45.90745" lon="6.50543">
        <ele>2358</ele>
        <time>2011-03-06T10:28:06.000Z</time>
      </trkpt>
      <trkpt lat="45.90746" lon="6.5055">
        <ele>2359.6000976562</ele>
        <time>2011-03-06T10:28:15.000Z</time>
      </trkpt>
      <trkpt lat="45.9075" lon="6.50557">
        <ele>2361</ele>
        <time>2011-03-06T10:28:23.000Z</time>
      </trkpt>
      <trkpt lat="45.90757" lon="6.50568">
        <ele>2362.8000488281</ele>
        <time>2011-03-06T10:28:33.000Z</time>
      </trkpt>
      <trkpt lat="45.90759" lon="6.50575">
        <ele>2364</ele>
        <time>2011-03-06T10:28:41.000Z</time>
      </trkpt>
      <trkpt lat="45.90757" lon="6.50581">
        <ele>2365</ele>
        <time>2011-03-06T10:28:48.000Z</time>
      </trkpt>
      <trkpt lat="45.90756" lon="6.50589">
        <ele>2367</ele>
        <time>2011-03-06T10:28:57.000Z</time>
      </trkpt>
      <trkpt lat="45.90756" lon="6.50593">
        <ele>2368.1999511719</ele>
        <time>2011-03-06T10:29:02.000Z</time>
      </trkpt>
      <trkpt lat="45.90756" lon="6.50601">
        <ele>2369.8000488281</ele>
        <time>2011-03-06T10:29:11.000Z</time>
      </trkpt>
      <trkpt lat="45.90757" lon="6.50602">
        <ele>2370.1999511719</ele>
        <time>2011-03-06T10:29:13.000Z</time>
      </trkpt>
      <trkpt lat="45.90762" lon="6.50611">
        <ele>2372.1999511719</ele>
        <time>2011-03-06T10:29:22.000Z</time>
      </trkpt>
      <trkpt lat="45.90762" lon="6.50615">
        <ele>2373.8000488281</ele>
        <time>2011-03-06T10:29:30.000Z</time>
      </trkpt>
      <trkpt lat="45.90761" lon="6.50621">
        <ele>2375.6000976562</ele>
        <time>2011-03-06T10:29:39.000Z</time>
      </trkpt>
      <trkpt lat="45.9076" lon="6.50622">
        <ele>2376.1999511719</ele>
        <time>2011-03-06T10:29:42.000Z</time>
      </trkpt>
      <trkpt lat="45.90762" lon="6.50628">
        <ele>2377.3999023438</ele>
        <time>2011-03-06T10:29:53.000Z</time>
      </trkpt>
      <trkpt lat="45.90762" lon="6.50633">
        <ele>2378.3999023438</ele>
        <time>2011-03-06T10:29:59.000Z</time>
      </trkpt>
      <trkpt lat="45.90763" lon="6.50642">
        <ele>2380.6000976562</ele>
        <time>2011-03-06T10:30:09.000Z</time>
      </trkpt>
      <trkpt lat="45.90763" lon="6.50649">
        <ele>2382.1999511719</ele>
        <time>2011-03-06T10:30:18.000Z</time>
      </trkpt>
      <trkpt lat="45.90763" lon="6.50658">
        <ele>2384.3999023438</ele>
        <time>2011-03-06T10:30:28.000Z</time>
      </trkpt>
      <trkpt lat="45.90762" lon="6.50664">
        <ele>2385.8000488281</ele>
        <time>2011-03-06T10:30:36.000Z</time>
      </trkpt>
      <trkpt lat="45.90765" lon="6.50666">
        <ele>2387.6000976562</ele>
        <time>2011-03-06T10:30:43.000Z</time>
      </trkpt>
      <trkpt lat="45.90765" lon="6.50666">
        <ele>2388</ele>
        <time>2011-03-06T10:30:44.000Z</time>
      </trkpt>
      <trkpt lat="45.90763" lon="6.50674">
        <ele>2389.3999023438</ele>
        <time>2011-03-06T10:30:52.000Z</time>
      </trkpt>
      <trkpt lat="45.90761" lon="6.50679">
        <ele>2390.6000976562</ele>
        <time>2011-03-06T10:30:59.000Z</time>
      </trkpt>
      <trkpt lat="45.90758" lon="6.50684">
        <ele>2392.6000976562</ele>
        <time>2011-03-06T10:31:08.000Z</time>
      </trkpt>
      <trkpt lat="45.9076" lon="6.50689">
        <ele>2394</ele>
        <time>2011-03-06T10:31:15.000Z</time>
      </trkpt>
      <trkpt lat="45.90764" lon="6.50694">
        <ele>2395.1999511719</ele>
        <time>2011-03-06T10:31:22.000Z</time>
      </trkpt>
      <trkpt lat="45.90768" lon="6.50701">
        <ele>2396.3999023438</ele>
        <time>2011-03-06T10:31:28.000Z</time>
      </trkpt>
      <trkpt lat="45.90766" lon="6.50706">
        <ele>2398</ele>
        <time>2011-03-06T10:31:37.000Z</time>
      </trkpt>
      <trkpt lat="45.90768" lon="6.50709">
        <ele>2399</ele>
        <time>2011-03-06T10:31:43.000Z</time>
      </trkpt>
      <trkpt lat="45.90773" lon="6.50712">
        <ele>2400.3999023438</ele>
        <time>2011-03-06T10:31:51.000Z</time>
      </trkpt>
      <trkpt lat="45.90778" lon="6.50716">
        <ele>2402.1999511719</ele>
        <time>2011-03-06T10:31:59.000Z</time>
      </trkpt>
      <trkpt lat="45.90778" lon="6.50723">
        <ele>2403.8000488281</ele>
        <time>2011-03-06T10:32:06.000Z</time>
      </trkpt>
      <trkpt lat="45.90777" lon="6.5073">
        <ele>2405.1999511719</ele>
        <time>2011-03-06T10:32:14.000Z</time>
      </trkpt>
      <trkpt lat="45.9078" lon="6.50737">
        <ele>2407.1999511719</ele>
        <time>2011-03-06T10:32:23.000Z</time>
      </trkpt>
      <trkpt lat="45.90782" lon="6.50741">
        <ele>2408.6000976562</ele>
        <time>2011-03-06T10:32:29.000Z</time>
      </trkpt>
      <trkpt lat="45.90782" lon="6.50748">
        <ele>2410.1999511719</ele>
        <time>2011-03-06T10:32:37.000Z</time>
      </trkpt>
      <trkpt lat="45.90784" lon="6.50751">
        <ele>2411.6000976562</ele>
        <time>2011-03-06T10:32:44.000Z</time>
      </trkpt>
      <trkpt lat="45.90786" lon="6.5075">
        <ele>2413.1999511719</ele>
        <time>2011-03-06T10:32:52.000Z</time>
      </trkpt>
      <trkpt lat="45.90786" lon="6.50755">
        <ele>2414.6000976562</ele>
        <time>2011-03-06T10:33:07.000Z</time>
      </trkpt>
      <trkpt lat="45.90786" lon="6.5076">
        <ele>2416</ele>
        <time>2011-03-06T10:33:14.000Z</time>
      </trkpt>
      <trkpt lat="45.90787" lon="6.50765">
        <ele>2417.3999023438</ele>
        <time>2011-03-06T10:33:21.000Z</time>
      </trkpt>
      <trkpt lat="45.90788" lon="6.50771">
        <ele>2419</ele>
        <time>2011-03-06T10:33:29.000Z</time>
      </trkpt>
      <trkpt lat="45.90788" lon="6.50771">
        <ele>2419.6000976562</ele>
        <time>2011-03-06T10:33:31.000Z</time>
      </trkpt>
      <trkpt lat="45.90792" lon="6.5078">
        <ele>2420.6000976562</ele>
        <time>2011-03-06T10:33:44.000Z</time>
      </trkpt>
      <trkpt lat="45.90796" lon="6.50789">
        <ele>2422.1999511719</ele>
        <time>2011-03-06T10:33:53.000Z</time>
      </trkpt>
      <trkpt lat="45.90798" lon="6.50796">
        <ele>2424</ele>
        <time>2011-03-06T10:34:02.000Z</time>
      </trkpt>
      <trkpt lat="45.90798" lon="6.50802">
        <ele>2425.6000976562</ele>
        <time>2011-03-06T10:34:11.000Z</time>
      </trkpt>
      <trkpt lat="45.90797" lon="6.50807">
        <ele>2427</ele>
        <time>2011-03-06T10:34:20.000Z</time>
      </trkpt>
      <trkpt lat="45.90796" lon="6.50814">
        <ele>2428.8000488281</ele>
        <time>2011-03-06T10:34:29.000Z</time>
      </trkpt>
      <trkpt lat="45.90796" lon="6.50814">
        <ele>2429.6000976562</ele>
        <time>2011-03-06T10:34:31.000Z</time>
      </trkpt>
      <trkpt lat="45.90793" lon="6.50818">
        <ele>2430.6000976562</ele>
        <time>2011-03-06T10:34:37.000Z</time>
      </trkpt>
      <trkpt lat="45.90793" lon="6.50819">
        <ele>2431</ele>
        <time>2011-03-06T10:34:40.000Z</time>
      </trkpt>
      <trkpt lat="45.90795" lon="6.50822">
        <ele>2431.8000488281</ele>
        <time>2011-03-06T10:34:47.000Z</time>
      </trkpt>
      <trkpt lat="45.90796" lon="6.50825">
        <ele>2432.8000488281</ele>
        <time>2011-03-06T10:34:53.000Z</time>
      </trkpt>
      <trkpt lat="45.90801" lon="6.50833">
        <ele>2434.6000976562</ele>
        <time>2011-03-06T10:35:02.000Z</time>
      </trkpt>
      <trkpt lat="45.90804" lon="6.50835">
        <ele>2435.6000976562</ele>
        <time>2011-03-06T10:35:08.000Z</time>
      </trkpt>
      <trkpt lat="45.90808" lon="6.50839">
        <ele>2437</ele>
        <time>2011-03-06T10:35:16.000Z</time>
      </trkpt>
      <trkpt lat="45.9081" lon="6.50837">
        <ele>2438.3999023438</ele>
        <time>2011-03-06T10:35:22.000Z</time>
      </trkpt>
      <trkpt lat="45.90814" lon="6.50836">
        <ele>2439.8000488281</ele>
        <time>2011-03-06T10:35:31.000Z</time>
      </trkpt>
      <trkpt lat="45.90814" lon="6.50836">
        <ele>2440.1999511719</ele>
        <time>2011-03-06T10:35:33.000Z</time>
      </trkpt>
      <trkpt lat="45.90818" lon="6.50835">
        <ele>2441.1999511719</ele>
        <time>2011-03-06T10:35:45.000Z</time>
      </trkpt>
      <trkpt lat="45.90822" lon="6.50842">
        <ele>2442.8000488281</ele>
        <time>2011-03-06T10:35:55.000Z</time>
      </trkpt>
      <trkpt lat="45.90825" lon="6.50849">
        <ele>2444.6000976562</ele>
        <time>2011-03-06T10:36:04.000Z</time>
      </trkpt>
      <trkpt lat="45.90826" lon="6.50855">
        <ele>2446</ele>
        <time>2011-03-06T10:36:12.000Z</time>
      </trkpt>
      <trkpt lat="45.90825" lon="6.50862">
        <ele>2447.8000488281</ele>
        <time>2011-03-06T10:36:21.000Z</time>
      </trkpt>
      <trkpt lat="45.90822" lon="6.50867">
        <ele>2449.3999023438</ele>
        <time>2011-03-06T10:36:30.000Z</time>
      </trkpt>
      <trkpt lat="45.90818" lon="6.50871">
        <ele>2450.8000488281</ele>
        <time>2011-03-06T10:36:38.000Z</time>
      </trkpt>
      <trkpt lat="45.90817" lon="6.50876">
        <ele>2452.6000976562</ele>
        <time>2011-03-06T10:36:45.000Z</time>
      </trkpt>
      <trkpt lat="45.9082" lon="6.5088">
        <ele>2453.3999023438</ele>
        <time>2011-03-06T10:36:51.000Z</time>
      </trkpt>
      <trkpt lat="45.90822" lon="6.50881">
        <ele>2453.8000488281</ele>
        <time>2011-03-06T10:36:53.000Z</time>
      </trkpt>
      <trkpt lat="45.90827" lon="6.50885">
        <ele>2455</ele>
        <time>2011-03-06T10:37:03.000Z</time>
      </trkpt>
      <trkpt lat="45.90828" lon="6.50886">
        <ele>2455.6000976562</ele>
        <time>2011-03-06T10:37:07.000Z</time>
      </trkpt>
      <trkpt lat="45.90832" lon="6.50881">
        <ele>2456.1999511719</ele>
        <time>2011-03-06T10:37:41.000Z</time>
      </trkpt>
      <trkpt lat="45.90831" lon="6.50881">
        <ele>2455.6000976562</ele>
        <time>2011-03-06T10:38:19.000Z</time>
      </trkpt>
      <trkpt lat="45.9083" lon="6.50884">
        <ele>2454.8000488281</ele>
        <time>2011-03-06T10:38:22.000Z</time>
      </trkpt>
      <trkpt lat="45.9083" lon="6.50885">
        <ele>2454.8000488281</ele>
        <time>2011-03-06T10:41:07.000Z</time>
      </trkpt>
      <trkpt lat="45.90832" lon="6.50882">
        <ele>2453.8000488281</ele>
        <time>2011-03-06T10:42:22.000Z</time>
      </trkpt>
      <trkpt lat="45.90833" lon="6.50883">
        <ele>2453.8000488281</ele>
        <time>2011-03-06T10:42:23.000Z</time>
      </trkpt>
      <trkpt lat="45.90836" lon="6.5088">
        <ele>2453.1999511719</ele>
        <time>2011-03-06T10:43:42.000Z</time>
      </trkpt>
      <trkpt lat="45.90816" lon="6.50875">
        <ele>2450</ele>
        <time>2011-03-06T10:43:48.000Z</time>
      </trkpt>
      <trkpt lat="45.90803" lon="6.50865">
        <ele>2447.3999023438</ele>
        <time>2011-03-06T10:43:52.000Z</time>
      </trkpt>
      <trkpt lat="45.908" lon="6.50858">
        <ele>2445.6000976562</ele>
        <time>2011-03-06T10:43:54.000Z</time>
      </trkpt>
      <trkpt lat="45.90787" lon="6.50818">
        <ele>2435.8000488281</ele>
        <time>2011-03-06T10:44:00.000Z</time>
      </trkpt>
      <trkpt lat="45.90786" lon="6.50809">
        <ele>2433.8000488281</ele>
        <time>2011-03-06T10:44:01.000Z</time>
      </trkpt>
      <trkpt lat="45.90791" lon="6.50785">
        <ele>2424</ele>
        <time>2011-03-06T10:44:05.000Z</time>
      </trkpt>
      <trkpt lat="45.90802" lon="6.50774">
        <ele>2423.3999023438</ele>
        <time>2011-03-06T10:44:09.000Z</time>
      </trkpt>
      <trkpt lat="45.90781" lon="6.50767">
        <ele>2419</ele>
        <time>2011-03-06T10:44:41.000Z</time>
      </trkpt>
      <trkpt lat="45.90775" lon="6.50751">
        <ele>2415.8000488281</ele>
        <time>2011-03-06T10:44:44.000Z</time>
      </trkpt>
      <trkpt lat="45.90766" lon="6.50744">
        <ele>2412.3999023438</ele>
        <time>2011-03-06T10:44:47.000Z</time>
      </trkpt>
      <trkpt lat="45.90766" lon="6.50744">
        <ele>2411.8000488281</ele>
        <time>2011-03-06T10:44:49.000Z</time>
      </trkpt>
      <trkpt lat="45.9076" lon="6.50728">
        <ele>2407.1999511719</ele>
        <time>2011-03-06T10:45:08.000Z</time>
      </trkpt>
      <trkpt lat="45.90756" lon="6.5071">
        <ele>2401.6000976562</ele>
        <time>2011-03-06T10:45:13.000Z</time>
      </trkpt>
      <trkpt lat="45.90757" lon="6.50691">
        <ele>2396.8000488281</ele>
        <time>2011-03-06T10:45:16.000Z</time>
      </trkpt>
      <trkpt lat="45.90747" lon="6.50668">
        <ele>2389.1999511719</ele>
        <time>2011-03-06T10:45:20.000Z</time>
      </trkpt>
      <trkpt lat="45.90743" lon="6.50662">
        <ele>2386.1999511719</ele>
        <time>2011-03-06T10:45:23.000Z</time>
      </trkpt>
      <trkpt lat="45.90747" lon="6.50667">
        <ele>2385.6000976562</ele>
        <time>2011-03-06T10:45:24.000Z</time>
      </trkpt>
      <trkpt lat="45.90756" lon="6.5064">
        <ele>2378.1999511719</ele>
        <time>2011-03-06T10:45:29.000Z</time>
      </trkpt>
      <trkpt lat="45.90764" lon="6.50586">
        <ele>2371.8000488281</ele>
        <time>2011-03-06T10:45:35.000Z</time>
      </trkpt>
      <trkpt lat="45.90765" lon="6.50549">
        <ele>2368</ele>
        <time>2011-03-06T10:45:40.000Z</time>
      </trkpt>
      <trkpt lat="45.90766" lon="6.50543">
        <ele>2367.8000488281</ele>
        <time>2011-03-06T10:45:44.000Z</time>
      </trkpt>
      <trkpt lat="45.90749" lon="6.50544">
        <ele>2364</ele>
        <time>2011-03-06T10:45:51.000Z</time>
      </trkpt>
      <trkpt lat="45.9074" lon="6.50536">
        <ele>2360.3999023438</ele>
        <time>2011-03-06T10:45:54.000Z</time>
      </trkpt>
      <trkpt lat="45.9074" lon="6.50526">
        <ele>2357.3999023438</ele>
        <time>2011-03-06T10:45:57.000Z</time>
      </trkpt>
      <trkpt lat="45.90735" lon="6.50518">
        <ele>2354.1999511719</ele>
        <time>2011-03-06T10:46:00.000Z</time>
      </trkpt>
      <trkpt lat="45.90735" lon="6.50517">
        <ele>2353.6000976562</ele>
        <time>2011-03-06T10:46:02.000Z</time>
      </trkpt>
      <trkpt lat="45.90732" lon="6.50507">
        <ele>2352.3999023438</ele>
        <time>2011-03-06T10:46:06.000Z</time>
      </trkpt>
      <trkpt lat="45.9073" lon="6.50488">
        <ele>2346.8000488281</ele>
        <time>2011-03-06T10:46:10.000Z</time>
      </trkpt>
      <trkpt lat="45.90728" lon="6.50458">
        <ele>2338.1999511719</ele>
        <time>2011-03-06T10:46:15.000Z</time>
      </trkpt>
      <trkpt lat="45.90728" lon="6.50458">
        <ele>2336</ele>
        <time>2011-03-06T10:46:17.000Z</time>
      </trkpt>
      <trkpt lat="45.90715" lon="6.50459">
        <ele>2334.8000488281</ele>
        <time>2011-03-06T10:46:48.000Z</time>
      </trkpt>
      <trkpt lat="45.90713" lon="6.50459">
        <ele>2333.8000488281</ele>
        <time>2011-03-06T10:46:50.000Z</time>
      </trkpt>
      <trkpt lat="45.90713" lon="6.50458">
        <ele>2333.8000488281</ele>
        <time>2011-03-06T10:46:51.000Z</time>
      </trkpt>
      <trkpt lat="45.90716" lon="6.50448">
        <ele>2332.1999511719</ele>
        <time>2011-03-06T10:46:56.000Z</time>
      </trkpt>
      <trkpt lat="45.90713" lon="6.5044">
        <ele>2329.8000488281</ele>
        <time>2011-03-06T10:46:58.000Z</time>
      </trkpt>
      <trkpt lat="45.90713" lon="6.50436">
        <ele>2329</ele>
        <time>2011-03-06T10:46:59.000Z</time>
      </trkpt>
      <trkpt lat="45.90713" lon="6.50426">
        <ele>2326.3999023438</ele>
        <time>2011-03-06T10:47:01.000Z</time>
      </trkpt>
      <trkpt lat="45.90719" lon="6.50404">
        <ele>2318.8000488281</ele>
        <time>2011-03-06T10:47:06.000Z</time>
      </trkpt>
      <trkpt lat="45.90719" lon="6.50391">
        <ele>2314.3999023438</ele>
        <time>2011-03-06T10:47:09.000Z</time>
      </trkpt>
      <trkpt lat="45.9072" lon="6.50381">
        <ele>2311.1999511719</ele>
        <time>2011-03-06T10:47:11.000Z</time>
      </trkpt>
      <trkpt lat="45.90726" lon="6.50365">
        <ele>2304.6000976562</ele>
        <time>2011-03-06T10:47:15.000Z</time>
      </trkpt>
      <trkpt lat="45.90727" lon="6.50364">
        <ele>2304.3999023438</ele>
        <time>2011-03-06T10:47:16.000Z</time>
      </trkpt>
      <trkpt lat="45.90719" lon="6.50354">
        <ele>2302.6000976562</ele>
        <time>2011-03-06T10:47:20.000Z</time>
      </trkpt>
      <trkpt lat="45.90702" lon="6.50351">
        <ele>2299</ele>
        <time>2011-03-06T10:47:23.000Z</time>
      </trkpt>
      <trkpt lat="45.907" lon="6.50334">
        <ele>2296.1999511719</ele>
        <time>2011-03-06T10:47:26.000Z</time>
      </trkpt>
      <trkpt lat="45.90701" lon="6.50327">
        <ele>2295</ele>
        <time>2011-03-06T10:47:27.000Z</time>
      </trkpt>
      <trkpt lat="45.90705" lon="6.5031">
        <ele>2291.1999511719</ele>
        <time>2011-03-06T10:47:30.000Z</time>
      </trkpt>
      <trkpt lat="45.90708" lon="6.50293">
        <ele>2286.1999511719</ele>
        <time>2011-03-06T10:47:34.000Z</time>
      </trkpt>
      <trkpt lat="45.90705" lon="6.50274">
        <ele>2282</ele>
        <time>2011-03-06T10:47:37.000Z</time>
      </trkpt>
      <trkpt lat="45.90702" lon="6.5027">
        <ele>2279.3999023438</ele>
        <time>2011-03-06T10:47:40.000Z</time>
      </trkpt>
      <trkpt lat="45.90707" lon="6.50249">
        <ele>2275.1999511719</ele>
        <time>2011-03-06T10:48:20.000Z</time>
      </trkpt>
      <trkpt lat="45.90706" lon="6.50247">
        <ele>2270.3999023438</ele>
        <time>2011-03-06T10:48:24.000Z</time>
      </trkpt>
      <trkpt lat="45.90708" lon="6.50253">
        <ele>2270.3999023438</ele>
        <time>2011-03-06T10:51:26.000Z</time>
      </trkpt>
      <trkpt lat="45.90708" lon="6.50254">
        <ele>2268.8000488281</ele>
        <time>2011-03-06T10:51:29.000Z</time>
      </trkpt>
      <trkpt lat="45.90712" lon="6.50248">
        <ele>2271.8000488281</ele>
        <time>2011-03-06T10:53:57.000Z</time>
      </trkpt>
      <trkpt lat="45.90714" lon="6.50249">
        <ele>2272</ele>
        <time>2011-03-06T10:54:01.000Z</time>
      </trkpt>
      <trkpt lat="45.90717" lon="6.50253">
        <ele>2273.1999511719</ele>
        <time>2011-03-06T10:54:08.000Z</time>
      </trkpt>
      <trkpt lat="45.90717" lon="6.50254">
        <ele>2273.3999023438</ele>
        <time>2011-03-06T10:54:09.000Z</time>
      </trkpt>
      <trkpt lat="45.90712" lon="6.50258">
        <ele>2274.6000976562</ele>
        <time>2011-03-06T10:54:25.000Z</time>
      </trkpt>
      <trkpt lat="45.90711" lon="6.50259">
        <ele>2275</ele>
        <time>2011-03-06T10:54:27.000Z</time>
      </trkpt>
      <trkpt lat="45.90709" lon="6.50261">
        <ele>2274.8000488281</ele>
        <time>2011-03-06T10:54:35.000Z</time>
      </trkpt>
      <trkpt lat="45.90702" lon="6.50271">
        <ele>2277.3999023438</ele>
        <time>2011-03-06T10:55:09.000Z</time>
      </trkpt>
      <trkpt lat="45.907" lon="6.50276">
        <ele>2279</ele>
        <time>2011-03-06T10:55:16.000Z</time>
      </trkpt>
      <trkpt lat="45.90698" lon="6.5028">
        <ele>2281.3999023438</ele>
        <time>2011-03-06T10:55:24.000Z</time>
      </trkpt>
      <trkpt lat="45.90701" lon="6.50282">
        <ele>2283</ele>
        <time>2011-03-06T10:55:30.000Z</time>
      </trkpt>
      <trkpt lat="45.90705" lon="6.50286">
        <ele>2284.3999023438</ele>
        <time>2011-03-06T10:55:39.000Z</time>
      </trkpt>
      <trkpt lat="45.90704" lon="6.50289">
        <ele>2285.6000976562</ele>
        <time>2011-03-06T10:55:43.000Z</time>
      </trkpt>
      <trkpt lat="45.90703" lon="6.50295">
        <ele>2286.6000976562</ele>
        <time>2011-03-06T10:55:49.000Z</time>
      </trkpt>
      <trkpt lat="45.907" lon="6.50303">
        <ele>2288.1999511719</ele>
        <time>2011-03-06T10:55:57.000Z</time>
      </trkpt>
      <trkpt lat="45.90699" lon="6.50308">
        <ele>2289.8000488281</ele>
        <time>2011-03-06T10:56:06.000Z</time>
      </trkpt>
      <trkpt lat="45.90699" lon="6.50313">
        <ele>2291.3999023438</ele>
        <time>2011-03-06T10:56:15.000Z</time>
      </trkpt>
      <trkpt lat="45.90698" lon="6.50319">
        <ele>2293</ele>
        <time>2011-03-06T10:56:22.000Z</time>
      </trkpt>
      <trkpt lat="45.90696" lon="6.50329">
        <ele>2295</ele>
        <time>2011-03-06T10:56:31.000Z</time>
      </trkpt>
      <trkpt lat="45.90695" lon="6.50333">
        <ele>2296.1999511719</ele>
        <time>2011-03-06T10:56:38.000Z</time>
      </trkpt>
      <trkpt lat="45.90697" lon="6.50339">
        <ele>2298.3999023438</ele>
        <time>2011-03-06T10:56:48.000Z</time>
      </trkpt>
      <trkpt lat="45.90701" lon="6.50343">
        <ele>2300</ele>
        <time>2011-03-06T10:56:57.000Z</time>
      </trkpt>
      <trkpt lat="45.90705" lon="6.50347">
        <ele>2301.6000976562</ele>
        <time>2011-03-06T10:57:06.000Z</time>
      </trkpt>
      <trkpt lat="45.90709" lon="6.50351">
        <ele>2302.6000976562</ele>
        <time>2011-03-06T10:57:14.000Z</time>
      </trkpt>
      <trkpt lat="45.90714" lon="6.50357">
        <ele>2304.1999511719</ele>
        <time>2011-03-06T10:57:22.000Z</time>
      </trkpt>
      <trkpt lat="45.90718" lon="6.5036">
        <ele>2305.1999511719</ele>
        <time>2011-03-06T10:57:29.000Z</time>
      </trkpt>
      <trkpt lat="45.90724" lon="6.50363">
        <ele>2307</ele>
        <time>2011-03-06T10:57:39.000Z</time>
      </trkpt>
      <trkpt lat="45.90729" lon="6.50365">
        <ele>2308.3999023438</ele>
        <time>2011-03-06T10:57:46.000Z</time>
      </trkpt>
      <trkpt lat="45.90734" lon="6.50365">
        <ele>2310.6000976562</ele>
        <time>2011-03-06T10:57:55.000Z</time>
      </trkpt>
      <trkpt lat="45.90739" lon="6.50369">
        <ele>2312.3999023438</ele>
        <time>2011-03-06T10:58:04.000Z</time>
      </trkpt>
      <trkpt lat="45.90741" lon="6.50379">
        <ele>2314.1999511719</ele>
        <time>2011-03-06T10:58:13.000Z</time>
      </trkpt>
      <trkpt lat="45.90743" lon="6.50385">
        <ele>2315.1999511719</ele>
        <time>2011-03-06T10:58:19.000Z</time>
      </trkpt>
      <trkpt lat="45.90744" lon="6.50388">
        <ele>2316.1999511719</ele>
        <time>2011-03-06T10:58:23.000Z</time>
      </trkpt>
      <trkpt lat="45.90744" lon="6.50389">
        <ele>2316.3999023438</ele>
        <time>2011-03-06T10:58:24.000Z</time>
      </trkpt>
      <trkpt lat="45.90744" lon="6.50395">
        <ele>2317.3999023438</ele>
        <time>2011-03-06T10:58:30.000Z</time>
      </trkpt>
      <trkpt lat="45.90745" lon="6.504">
        <ele>2318.8000488281</ele>
        <time>2011-03-06T10:58:35.000Z</time>
      </trkpt>
      <trkpt lat="45.90745" lon="6.50406">
        <ele>2320.3999023438</ele>
        <time>2011-03-06T10:58:42.000Z</time>
      </trkpt>
      <trkpt lat="45.90744" lon="6.5041">
        <ele>2321.3999023438</ele>
        <time>2011-03-06T10:58:47.000Z</time>
      </trkpt>
      <trkpt lat="45.90744" lon="6.50411">
        <ele>2322</ele>
        <time>2011-03-06T10:58:49.000Z</time>
      </trkpt>
      <trkpt lat="45.90742" lon="6.50417">
        <ele>2323.1999511719</ele>
        <time>2011-03-06T10:58:56.000Z</time>
      </trkpt>
      <trkpt lat="45.9074" lon="6.50421">
        <ele>2324.3999023438</ele>
        <time>2011-03-06T10:59:02.000Z</time>
      </trkpt>
      <trkpt lat="45.90735" lon="6.50426">
        <ele>2326</ele>
        <time>2011-03-06T10:59:11.000Z</time>
      </trkpt>
      <trkpt lat="45.90732" lon="6.5043">
        <ele>2327.3999023438</ele>
        <time>2011-03-06T10:59:19.000Z</time>
      </trkpt>
      <trkpt lat="45.90727" lon="6.50437">
        <ele>2329.1999511719</ele>
        <time>2011-03-06T10:59:27.000Z</time>
      </trkpt>
      <trkpt lat="45.90722" lon="6.50442">
        <ele>2330.1999511719</ele>
        <time>2011-03-06T10:59:34.000Z</time>
      </trkpt>
      <trkpt lat="45.90719" lon="6.50447">
        <ele>2331.6000976562</ele>
        <time>2011-03-06T10:59:41.000Z</time>
      </trkpt>
      <trkpt lat="45.90716" lon="6.50448">
        <ele>2332.6000976562</ele>
        <time>2011-03-06T10:59:46.000Z</time>
      </trkpt>
      <trkpt lat="45.90713" lon="6.50452">
        <ele>2333.8000488281</ele>
        <time>2011-03-06T10:59:53.000Z</time>
      </trkpt>
      <trkpt lat="45.90713" lon="6.50453">
        <ele>2334</ele>
        <time>2011-03-06T10:59:55.000Z</time>
      </trkpt>
      <trkpt lat="45.90715" lon="6.50455">
        <ele>2335.1999511719</ele>
        <time>2011-03-06T11:00:03.000Z</time>
      </trkpt>
      <trkpt lat="45.90716" lon="6.50456">
        <ele>2335.8000488281</ele>
        <time>2011-03-06T11:00:06.000Z</time>
      </trkpt>
      <trkpt lat="45.9072" lon="6.50461">
        <ele>2337.1999511719</ele>
        <time>2011-03-06T11:00:15.000Z</time>
      </trkpt>
      <trkpt lat="45.90724" lon="6.50465">
        <ele>2339</ele>
        <time>2011-03-06T11:00:24.000Z</time>
      </trkpt>
      <trkpt lat="45.90727" lon="6.50469">
        <ele>2341.3999023438</ele>
        <time>2011-03-06T11:00:32.000Z</time>
      </trkpt>
      <trkpt lat="45.90729" lon="6.50473">
        <ele>2342.8000488281</ele>
        <time>2011-03-06T11:00:38.000Z</time>
      </trkpt>
      <trkpt lat="45.90731" lon="6.50477">
        <ele>2344.6000976562</ele>
        <time>2011-03-06T11:00:46.000Z</time>
      </trkpt>
      <trkpt lat="45.90735" lon="6.5048">
        <ele>2346.6000976562</ele>
        <time>2011-03-06T11:01:09.000Z</time>
      </trkpt>
      <trkpt lat="45.90734" lon="6.50487">
        <ele>2348.3999023438</ele>
        <time>2011-03-06T11:01:18.000Z</time>
      </trkpt>
      <trkpt lat="45.90733" lon="6.50492">
        <ele>2349.8000488281</ele>
        <time>2011-03-06T11:01:25.000Z</time>
      </trkpt>
      <trkpt lat="45.90734" lon="6.50496">
        <ele>2350.8000488281</ele>
        <time>2011-03-06T11:01:30.000Z</time>
      </trkpt>
      <trkpt lat="45.90738" lon="6.50501">
        <ele>2352</ele>
        <time>2011-03-06T11:01:38.000Z</time>
      </trkpt>
      <trkpt lat="45.9074" lon="6.50503">
        <ele>2353.1999511719</ele>
        <time>2011-03-06T11:01:43.000Z</time>
      </trkpt>
      <trkpt lat="45.90741" lon="6.50507">
        <ele>2354.1999511719</ele>
        <time>2011-03-06T11:01:48.000Z</time>
      </trkpt>
      <trkpt lat="45.90741" lon="6.50507">
        <ele>2354.8000488281</ele>
        <time>2011-03-06T11:01:49.000Z</time>
      </trkpt>
      <trkpt lat="45.90741" lon="6.50513">
        <ele>2356.1999511719</ele>
        <time>2011-03-06T11:01:56.000Z</time>
      </trkpt>
      <trkpt lat="45.90741" lon="6.50521">
        <ele>2357.8000488281</ele>
        <time>2011-03-06T11:02:04.000Z</time>
      </trkpt>
      <trkpt lat="45.90741" lon="6.50522">
        <ele>2358.3999023438</ele>
        <time>2011-03-06T11:02:06.000Z</time>
      </trkpt>
      <trkpt lat="45.90743" lon="6.50525">
        <ele>2359.3999023438</ele>
        <time>2011-03-06T11:02:12.000Z</time>
      </trkpt>
      <trkpt lat="45.90744" lon="6.5053">
        <ele>2360.6000976562</ele>
        <time>2011-03-06T11:02:18.000Z</time>
      </trkpt>
      <trkpt lat="45.90744" lon="6.50533">
        <ele>2361.8000488281</ele>
        <time>2011-03-06T11:02:23.000Z</time>
      </trkpt>
      <trkpt lat="45.90745" lon="6.50534">
        <ele>2362.3999023438</ele>
        <time>2011-03-06T11:02:25.000Z</time>
      </trkpt>
      <trkpt lat="45.90746" lon="6.50538">
        <ele>2363.3999023438</ele>
        <time>2011-03-06T11:02:36.000Z</time>
      </trkpt>
      <trkpt lat="45.90747" lon="6.50545">
        <ele>2365</ele>
        <time>2011-03-06T11:02:45.000Z</time>
      </trkpt>
      <trkpt lat="45.90751" lon="6.50549">
        <ele>2366</ele>
        <time>2011-03-06T11:02:52.000Z</time>
      </trkpt>
      <trkpt lat="45.90754" lon="6.50556">
        <ele>2367</ele>
        <time>2011-03-06T11:03:00.000Z</time>
      </trkpt>
      <trkpt lat="45.90756" lon="6.50565">
        <ele>2368.8000488281</ele>
        <time>2011-03-06T11:03:10.000Z</time>
      </trkpt>
      <trkpt lat="45.90756" lon="6.50572">
        <ele>2370.1999511719</ele>
        <time>2011-03-06T11:03:18.000Z</time>
      </trkpt>
      <trkpt lat="45.90756" lon="6.5058">
        <ele>2371.8000488281</ele>
        <time>2011-03-06T11:03:26.000Z</time>
      </trkpt>
      <trkpt lat="45.90758" lon="6.50589">
        <ele>2373</ele>
        <time>2011-03-06T11:03:37.000Z</time>
      </trkpt>
      <trkpt lat="45.9076" lon="6.50598">
        <ele>2374.6000976562</ele>
        <time>2011-03-06T11:03:45.000Z</time>
      </trkpt>
      <trkpt lat="45.90761" lon="6.50603">
        <ele>2375.6000976562</ele>
        <time>2011-03-06T11:03:50.000Z</time>
      </trkpt>
      <trkpt lat="45.90761" lon="6.50604">
        <ele>2376.1999511719</ele>
        <time>2011-03-06T11:03:53.000Z</time>
      </trkpt>
      <trkpt lat="45.90759" lon="6.50604">
        <ele>2377.1999511719</ele>
        <time>2011-03-06T11:04:14.000Z</time>
      </trkpt>
      <trkpt lat="45.9076" lon="6.50609">
        <ele>2378.1999511719</ele>
        <time>2011-03-06T11:04:55.000Z</time>
      </trkpt>
      <trkpt lat="45.90761" lon="6.50619">
        <ele>2380.3999023438</ele>
        <time>2011-03-06T11:05:04.000Z</time>
      </trkpt>
      <trkpt lat="45.90762" lon="6.50629">
        <ele>2382.1999511719</ele>
        <time>2011-03-06T11:05:13.000Z</time>
      </trkpt>
      <trkpt lat="45.90764" lon="6.50638">
        <ele>2383.8000488281</ele>
        <time>2011-03-06T11:05:21.000Z</time>
      </trkpt>
      <trkpt lat="45.90766" lon="6.50646">
        <ele>2385.3999023438</ele>
        <time>2011-03-06T11:05:30.000Z</time>
      </trkpt>
      <trkpt lat="45.90767" lon="6.50651">
        <ele>2386.3999023438</ele>
        <time>2011-03-06T11:05:35.000Z</time>
      </trkpt>
      <trkpt lat="45.90767" lon="6.50655">
        <ele>2387</ele>
        <time>2011-03-06T11:05:40.000Z</time>
      </trkpt>
      <trkpt lat="45.90767" lon="6.50658">
        <ele>2387.8000488281</ele>
        <time>2011-03-06T11:05:45.000Z</time>
      </trkpt>
      <trkpt lat="45.90767" lon="6.50665">
        <ele>2389.1999511719</ele>
        <time>2011-03-06T11:05:52.000Z</time>
      </trkpt>
      <trkpt lat="45.90769" lon="6.50669">
        <ele>2390.1999511719</ele>
        <time>2011-03-06T11:05:57.000Z</time>
      </trkpt>
      <trkpt lat="45.90771" lon="6.5067">
        <ele>2391.3999023438</ele>
        <time>2011-03-06T11:06:03.000Z</time>
      </trkpt>
      <trkpt lat="45.9077" lon="6.50675">
        <ele>2392.1999511719</ele>
        <time>2011-03-06T11:06:08.000Z</time>
      </trkpt>
      <trkpt lat="45.90769" lon="6.50679">
        <ele>2393.1999511719</ele>
        <time>2011-03-06T11:06:13.000Z</time>
      </trkpt>
      <trkpt lat="45.90769" lon="6.50682">
        <ele>2394.1999511719</ele>
        <time>2011-03-06T11:06:18.000Z</time>
      </trkpt>
      <trkpt lat="45.90768" lon="6.50689">
        <ele>2395.8000488281</ele>
        <time>2011-03-06T11:06:25.000Z</time>
      </trkpt>
      <trkpt lat="45.90768" lon="6.50695">
        <ele>2397.1999511719</ele>
        <time>2011-03-06T11:06:31.000Z</time>
      </trkpt>
      <trkpt lat="45.9077" lon="6.50695">
        <ele>2398</ele>
        <time>2011-03-06T11:06:37.000Z</time>
      </trkpt>
      <trkpt lat="45.90771" lon="6.50695">
        <ele>2398.6000976562</ele>
        <time>2011-03-06T11:06:41.000Z</time>
      </trkpt>
      <trkpt lat="45.90771" lon="6.50697">
        <ele>2399.6000976562</ele>
        <time>2011-03-06T11:06:45.000Z</time>
      </trkpt>
      <trkpt lat="45.90771" lon="6.50702">
        <ele>2400.3999023438</ele>
        <time>2011-03-06T11:06:50.000Z</time>
      </trkpt>
      <trkpt lat="45.90771" lon="6.50704">
        <ele>2401.1999511719</ele>
        <time>2011-03-06T11:06:54.000Z</time>
      </trkpt>
      <trkpt lat="45.90773" lon="6.50706">
        <ele>2402.3999023438</ele>
        <time>2011-03-06T11:07:01.000Z</time>
      </trkpt>
      <trkpt lat="45.90775" lon="6.50706">
        <ele>2403.1999511719</ele>
        <time>2011-03-06T11:07:06.000Z</time>
      </trkpt>
      <trkpt lat="45.90778" lon="6.50708">
        <ele>2405.1999511719</ele>
        <time>2011-03-06T11:07:16.000Z</time>
      </trkpt>
      <trkpt lat="45.90778" lon="6.50709">
        <ele>2405.8000488281</ele>
        <time>2011-03-06T11:07:17.000Z</time>
      </trkpt>
      <trkpt lat="45.90778" lon="6.50713">
        <ele>2406.6000976562</ele>
        <time>2011-03-06T11:07:23.000Z</time>
      </trkpt>
      <trkpt lat="45.90778" lon="6.50718">
        <ele>2408</ele>
        <time>2011-03-06T11:07:30.000Z</time>
      </trkpt>
      <trkpt lat="45.90778" lon="6.50721">
        <ele>2409</ele>
        <time>2011-03-06T11:07:35.000Z</time>
      </trkpt>
      <trkpt lat="45.90778" lon="6.50722">
        <ele>2409.1999511719</ele>
        <time>2011-03-06T11:07:36.000Z</time>
      </trkpt>
      <trkpt lat="45.9078" lon="6.50727">
        <ele>2410.6000976562</ele>
        <time>2011-03-06T11:07:42.000Z</time>
      </trkpt>
      <trkpt lat="45.90781" lon="6.50729">
        <ele>2411.6000976562</ele>
        <time>2011-03-06T11:07:45.000Z</time>
      </trkpt>
      <trkpt lat="45.90781" lon="6.50734">
        <ele>2412.8000488281</ele>
        <time>2011-03-06T11:07:53.000Z</time>
      </trkpt>
      <trkpt lat="45.90781" lon="6.50735">
        <ele>2413.6000976562</ele>
        <time>2011-03-06T11:07:55.000Z</time>
      </trkpt>
      <trkpt lat="45.90783" lon="6.50739">
        <ele>2414.8000488281</ele>
        <time>2011-03-06T11:08:03.000Z</time>
      </trkpt>
      <trkpt lat="45.90785" lon="6.5074">
        <ele>2415.6000976562</ele>
        <time>2011-03-06T11:08:08.000Z</time>
      </trkpt>
      <trkpt lat="45.90786" lon="6.5074">
        <ele>2416.6000976562</ele>
        <time>2011-03-06T11:08:14.000Z</time>
      </trkpt>
      <trkpt lat="45.90785" lon="6.50741">
        <ele>2417</ele>
        <time>2011-03-06T11:08:16.000Z</time>
      </trkpt>
      <trkpt lat="45.90786" lon="6.50745">
        <ele>2417.6000976562</ele>
        <time>2011-03-06T11:08:22.000Z</time>
      </trkpt>
      <trkpt lat="45.90787" lon="6.50751">
        <ele>2418.8000488281</ele>
        <time>2011-03-06T11:08:30.000Z</time>
      </trkpt>
      <trkpt lat="45.90789" lon="6.50756">
        <ele>2420.3999023438</ele>
        <time>2011-03-06T11:08:38.000Z</time>
      </trkpt>
      <trkpt lat="45.90789" lon="6.5076">
        <ele>2421.1999511719</ele>
        <time>2011-03-06T11:08:43.000Z</time>
      </trkpt>
      <trkpt lat="45.9079" lon="6.50764">
        <ele>2422</ele>
        <time>2011-03-06T11:08:48.000Z</time>
      </trkpt>
      <trkpt lat="45.90791" lon="6.50768">
        <ele>2423.1999511719</ele>
        <time>2011-03-06T11:08:54.000Z</time>
      </trkpt>
      <trkpt lat="45.90792" lon="6.50773">
        <ele>2424.3999023438</ele>
        <time>2011-03-06T11:09:00.000Z</time>
      </trkpt>
      <trkpt lat="45.90793" lon="6.50777">
        <ele>2425.3999023438</ele>
        <time>2011-03-06T11:09:05.000Z</time>
      </trkpt>
      <trkpt lat="45.90795" lon="6.50784">
        <ele>2427.1999511719</ele>
        <time>2011-03-06T11:09:14.000Z</time>
      </trkpt>
      <trkpt lat="45.90796" lon="6.50785">
        <ele>2427.8000488281</ele>
        <time>2011-03-06T11:09:16.000Z</time>
      </trkpt>
      <trkpt lat="45.90797" lon="6.50793">
        <ele>2428.8000488281</ele>
        <time>2011-03-06T11:09:25.000Z</time>
      </trkpt>
      <trkpt lat="45.90799" lon="6.50798">
        <ele>2430</ele>
        <time>2011-03-06T11:09:30.000Z</time>
      </trkpt>
      <trkpt lat="45.908" lon="6.50802">
        <ele>2430.3999023438</ele>
        <time>2011-03-06T11:09:34.000Z</time>
      </trkpt>
      <trkpt lat="45.90801" lon="6.50807">
        <ele>2431.3999023438</ele>
        <time>2011-03-06T11:09:41.000Z</time>
      </trkpt>
      <trkpt lat="45.90802" lon="6.50814">
        <ele>2432.6000976562</ele>
        <time>2011-03-06T11:09:46.000Z</time>
      </trkpt>
      <trkpt lat="45.90804" lon="6.50821">
        <ele>2434.1999511719</ele>
        <time>2011-03-06T11:09:59.000Z</time>
      </trkpt>
      <trkpt lat="45.90805" lon="6.50826">
        <ele>2435.8000488281</ele>
        <time>2011-03-06T11:10:07.000Z</time>
      </trkpt>
      <trkpt lat="45.90804" lon="6.50827">
        <ele>2436.3999023438</ele>
        <time>2011-03-06T11:10:10.000Z</time>
      </trkpt>
      <trkpt lat="45.90802" lon="6.5083">
        <ele>2437</ele>
        <time>2011-03-06T11:10:22.000Z</time>
      </trkpt>
      <trkpt lat="45.90806" lon="6.50834">
        <ele>2438.6000976562</ele>
        <time>2011-03-06T11:10:31.000Z</time>
      </trkpt>
      <trkpt lat="45.9081" lon="6.50834">
        <ele>2439.8000488281</ele>
        <time>2011-03-06T11:10:38.000Z</time>
      </trkpt>
      <trkpt lat="45.90811" lon="6.50835">
        <ele>2440.3999023438</ele>
        <time>2011-03-06T11:10:40.000Z</time>
      </trkpt>
      <trkpt lat="45.90812" lon="6.50833">
        <ele>2441.3999023438</ele>
        <time>2011-03-06T11:10:45.000Z</time>
      </trkpt>
      <trkpt lat="45.90813" lon="6.50829">
        <ele>2442.1999511719</ele>
        <time>2011-03-06T11:10:50.000Z</time>
      </trkpt>
      <trkpt lat="45.90813" lon="6.50825">
        <ele>2443.6000976562</ele>
        <time>2011-03-06T11:10:57.000Z</time>
      </trkpt>
      <trkpt lat="45.90813" lon="6.50822">
        <ele>2444.3999023438</ele>
        <time>2011-03-06T11:11:01.000Z</time>
      </trkpt>
      <trkpt lat="45.90812" lon="6.50818">
        <ele>2445.3999023438</ele>
        <time>2011-03-06T11:11:08.000Z</time>
      </trkpt>
      <trkpt lat="45.90813" lon="6.50815">
        <ele>2446.3999023438</ele>
        <time>2011-03-06T11:11:13.000Z</time>
      </trkpt>
      <trkpt lat="45.90814" lon="6.50812">
        <ele>2446.8000488281</ele>
        <time>2011-03-06T11:11:17.000Z</time>
      </trkpt>
      <trkpt lat="45.90818" lon="6.50814">
        <ele>2448.8000488281</ele>
        <time>2011-03-06T11:11:32.000Z</time>
      </trkpt>
      <trkpt lat="45.90822" lon="6.50816">
        <ele>2449.3999023438</ele>
        <time>2011-03-06T11:11:36.000Z</time>
      </trkpt>
      <trkpt lat="45.90828" lon="6.50823">
        <ele>2451.3999023438</ele>
        <time>2011-03-06T11:11:45.000Z</time>
      </trkpt>
      <trkpt lat="45.90832" lon="6.50828">
        <ele>2452.8000488281</ele>
        <time>2011-03-06T11:11:53.000Z</time>
      </trkpt>
      <trkpt lat="45.90836" lon="6.50834">
        <ele>2454.3999023438</ele>
        <time>2011-03-06T11:12:01.000Z</time>
      </trkpt>
      <trkpt lat="45.9084" lon="6.50842">
        <ele>2455.8000488281</ele>
        <time>2011-03-06T11:12:11.000Z</time>
      </trkpt>
      <trkpt lat="45.90842" lon="6.50848">
        <ele>2457.6000976562</ele>
        <time>2011-03-06T11:12:20.000Z</time>
      </trkpt>
      <trkpt lat="45.90843" lon="6.50852">
        <ele>2458.3999023438</ele>
        <time>2011-03-06T11:12:25.000Z</time>
      </trkpt>
      <trkpt lat="45.90843" lon="6.50843">
        <ele>2459.3999023438</ele>
        <time>2011-03-06T11:12:42.000Z</time>
      </trkpt>
      <trkpt lat="45.90843" lon="6.50835">
        <ele>2461.1999511719</ele>
        <time>2011-03-06T11:12:50.000Z</time>
      </trkpt>
      <trkpt lat="45.90844" lon="6.5083">
        <ele>2462.3999023438</ele>
        <time>2011-03-06T11:12:56.000Z</time>
      </trkpt>
      <trkpt lat="45.90843" lon="6.50827">
        <ele>2463.3999023438</ele>
        <time>2011-03-06T11:13:02.000Z</time>
      </trkpt>
      <trkpt lat="45.90847" lon="6.5083">
        <ele>2464.3999023438</ele>
        <time>2011-03-06T11:13:10.000Z</time>
      </trkpt>
      <trkpt lat="45.90851" lon="6.50837">
        <ele>2466</ele>
        <time>2011-03-06T11:13:19.000Z</time>
      </trkpt>
      <trkpt lat="45.90854" lon="6.50844">
        <ele>2467.6000976562</ele>
        <time>2011-03-06T11:13:28.000Z</time>
      </trkpt>
      <trkpt lat="45.90856" lon="6.50848">
        <ele>2468.6000976562</ele>
        <time>2011-03-06T11:13:33.000Z</time>
      </trkpt>
      <trkpt lat="45.90856" lon="6.50843">
        <ele>2469.3999023438</ele>
        <time>2011-03-06T11:13:44.000Z</time>
      </trkpt>
      <trkpt lat="45.90857" lon="6.50836">
        <ele>2470.8000488281</ele>
        <time>2011-03-06T11:13:52.000Z</time>
      </trkpt>
      <trkpt lat="45.90859" lon="6.50827">
        <ele>2472.1999511719</ele>
        <time>2011-03-06T11:14:02.000Z</time>
      </trkpt>
      <trkpt lat="45.90859" lon="6.5082">
        <ele>2473.8000488281</ele>
        <time>2011-03-06T11:14:12.000Z</time>
      </trkpt>
      <trkpt lat="45.90859" lon="6.50816">
        <ele>2475.1999511719</ele>
        <time>2011-03-06T11:14:19.000Z</time>
      </trkpt>
      <trkpt lat="45.90863" lon="6.50819">
        <ele>2475.3999023438</ele>
        <time>2011-03-06T11:14:26.000Z</time>
      </trkpt>
      <trkpt lat="45.90868" lon="6.50827">
        <ele>2476.8000488281</ele>
        <time>2011-03-06T11:14:36.000Z</time>
      </trkpt>
      <trkpt lat="45.90871" lon="6.50832">
        <ele>2478.3999023438</ele>
        <time>2011-03-06T11:14:43.000Z</time>
      </trkpt>
      <trkpt lat="45.9087" lon="6.50827">
        <ele>2479</ele>
        <time>2011-03-06T11:14:55.000Z</time>
      </trkpt>
      <trkpt lat="45.90869" lon="6.50821">
        <ele>2480</ele>
        <time>2011-03-06T11:15:03.000Z</time>
      </trkpt>
      <trkpt lat="45.90868" lon="6.50813">
        <ele>2481.3999023438</ele>
        <time>2011-03-06T11:15:11.000Z</time>
      </trkpt>
      <trkpt lat="45.90868" lon="6.50803">
        <ele>2482.8000488281</ele>
        <time>2011-03-06T11:15:20.000Z</time>
      </trkpt>
      <trkpt lat="45.90869" lon="6.50795">
        <ele>2484.3999023438</ele>
        <time>2011-03-06T11:15:28.000Z</time>
      </trkpt>
      <trkpt lat="45.90873" lon="6.50796">
        <ele>2484.8000488281</ele>
        <time>2011-03-06T11:15:33.000Z</time>
      </trkpt>
      <trkpt lat="45.90879" lon="6.50805">
        <ele>2486.3999023438</ele>
        <time>2011-03-06T11:15:43.000Z</time>
      </trkpt>
      <trkpt lat="45.90884" lon="6.50815">
        <ele>2488.6000976562</ele>
        <time>2011-03-06T11:15:53.000Z</time>
      </trkpt>
      <trkpt lat="45.90885" lon="6.50819">
        <ele>2489.3999023438</ele>
        <time>2011-03-06T11:15:59.000Z</time>
      </trkpt>
      <trkpt lat="45.90889" lon="6.50828">
        <ele>2490.6000976562</ele>
        <time>2011-03-06T11:16:08.000Z</time>
      </trkpt>
      <trkpt lat="45.90891" lon="6.50835">
        <ele>2492.6000976562</ele>
        <time>2011-03-06T11:16:18.000Z</time>
      </trkpt>
      <trkpt lat="45.90893" lon="6.5084">
        <ele>2493.8000488281</ele>
        <time>2011-03-06T11:16:26.000Z</time>
      </trkpt>
      <trkpt lat="45.90892" lon="6.50839">
        <ele>2494.1999511719</ele>
        <time>2011-03-06T11:16:27.000Z</time>
      </trkpt>
      <trkpt lat="45.90888" lon="6.5083">
        <ele>2496.1999511719</ele>
        <time>2011-03-06T11:16:52.000Z</time>
      </trkpt>
      <trkpt lat="45.9089" lon="6.50823">
        <ele>2497.6000976562</ele>
        <time>2011-03-06T11:17:01.000Z</time>
      </trkpt>
      <trkpt lat="45.90892" lon="6.50816">
        <ele>2499.3999023438</ele>
        <time>2011-03-06T11:17:10.000Z</time>
      </trkpt>
      <trkpt lat="45.90893" lon="6.50812">
        <ele>2500.6000976562</ele>
        <time>2011-03-06T11:17:16.000Z</time>
      </trkpt>
      <trkpt lat="45.90896" lon="6.50814">
        <ele>2501</ele>
        <time>2011-03-06T11:17:35.000Z</time>
      </trkpt>
      <trkpt lat="45.90897" lon="6.50817">
        <ele>2502</ele>
        <time>2011-03-06T11:17:40.000Z</time>
      </trkpt>
      <trkpt lat="45.909" lon="6.50823">
        <ele>2503.8000488281</ele>
        <time>2011-03-06T11:17:49.000Z</time>
      </trkpt>
      <trkpt lat="45.90901" lon="6.5082">
        <ele>2504.1999511719</ele>
        <time>2011-03-06T11:17:54.000Z</time>
      </trkpt>
      <trkpt lat="45.90901" lon="6.50813">
        <ele>2504.3999023438</ele>
        <time>2011-03-06T11:18:03.000Z</time>
      </trkpt>
      <trkpt lat="45.90906" lon="6.50808">
        <ele>2506</ele>
        <time>2011-03-06T11:50:34.000Z</time>
      </trkpt>
      <trkpt lat="45.90904" lon="6.50813">
        <ele>2506</ele>
        <time>2011-03-06T11:50:48.000Z</time>
      </trkpt>
      <trkpt lat="45.90904" lon="6.50815">
        <ele>2505.6000976562</ele>
        <time>2011-03-06T11:50:52.000Z</time>
      </trkpt>
      <trkpt lat="45.90905" lon="6.50814">
        <ele>2505.3999023438</ele>
        <time>2011-03-06T11:51:25.000Z</time>
      </trkpt>
      <trkpt lat="45.90903" lon="6.50816">
        <ele>2506.1999511719</ele>
        <time>2011-03-06T12:02:10.000Z</time>
      </trkpt>
      <trkpt lat="45.90896" lon="6.5083">
        <ele>2502.1999511719</ele>
        <time>2011-03-06T12:08:53.000Z</time>
      </trkpt>
      <trkpt lat="45.90894" lon="6.50836">
        <ele>2501.1999511719</ele>
        <time>2011-03-06T12:08:55.000Z</time>
      </trkpt>
      <trkpt lat="45.90893" lon="6.50833">
        <ele>2496.1999511719</ele>
        <time>2011-03-06T12:08:59.000Z</time>
      </trkpt>
      <trkpt lat="45.90893" lon="6.50832">
        <ele>2496.1999511719</ele>
        <time>2011-03-06T12:09:00.000Z</time>
      </trkpt>
      <trkpt lat="45.90885" lon="6.50839">
        <ele>2493.3999023438</ele>
        <time>2011-03-06T12:09:07.000Z</time>
      </trkpt>
      <trkpt lat="45.90879" lon="6.50831">
        <ele>2488.1999511719</ele>
        <time>2011-03-06T12:09:10.000Z</time>
      </trkpt>
      <trkpt lat="45.90876" lon="6.50836">
        <ele>2487</ele>
        <time>2011-03-06T12:09:12.000Z</time>
      </trkpt>
      <trkpt lat="45.90873" lon="6.50845">
        <ele>2485</ele>
        <time>2011-03-06T12:09:14.000Z</time>
      </trkpt>
      <trkpt lat="45.90871" lon="6.5084">
        <ele>2482.3999023438</ele>
        <time>2011-03-06T12:09:18.000Z</time>
      </trkpt>
      <trkpt lat="45.90867" lon="6.50844">
        <ele>2480</ele>
        <time>2011-03-06T12:09:20.000Z</time>
      </trkpt>
      <trkpt lat="45.9086" lon="6.50837">
        <ele>2475.6000976562</ele>
        <time>2011-03-06T12:09:24.000Z</time>
      </trkpt>
      <trkpt lat="45.90859" lon="6.50831">
        <ele>2473</ele>
        <time>2011-03-06T12:09:27.000Z</time>
      </trkpt>
      <trkpt lat="45.90855" lon="6.50821">
        <ele>2470.6000976562</ele>
        <time>2011-03-06T12:09:35.000Z</time>
      </trkpt>
      <trkpt lat="45.90848" lon="6.50826">
        <ele>2467.8000488281</ele>
        <time>2011-03-06T12:09:39.000Z</time>
      </trkpt>
      <trkpt lat="45.90843" lon="6.50813">
        <ele>2464.8000488281</ele>
        <time>2011-03-06T12:09:43.000Z</time>
      </trkpt>
      <trkpt lat="45.90838" lon="6.50818">
        <ele>2461.6000976562</ele>
        <time>2011-03-06T12:09:46.000Z</time>
      </trkpt>
      <trkpt lat="45.90836" lon="6.50829">
        <ele>2458.1999511719</ele>
        <time>2011-03-06T12:09:49.000Z</time>
      </trkpt>
      <trkpt lat="45.90834" lon="6.50838">
        <ele>2457</ele>
        <time>2011-03-06T12:09:51.000Z</time>
      </trkpt>
      <trkpt lat="45.9083" lon="6.50858">
        <ele>2453.1999511719</ele>
        <time>2011-03-06T12:09:55.000Z</time>
      </trkpt>
      <trkpt lat="45.90825" lon="6.50867">
        <ele>2452</ele>
        <time>2011-03-06T12:09:57.000Z</time>
      </trkpt>
      <trkpt lat="45.90806" lon="6.50867">
        <ele>2449.6000976562</ele>
        <time>2011-03-06T12:10:01.000Z</time>
      </trkpt>
      <trkpt lat="45.90795" lon="6.50854">
        <ele>2448</ele>
        <time>2011-03-06T12:10:07.000Z</time>
      </trkpt>
      <trkpt lat="45.90788" lon="6.5084">
        <ele>2447.1999511719</ele>
        <time>2011-03-06T12:10:11.000Z</time>
      </trkpt>
      <trkpt lat="45.90774" lon="6.5081">
        <ele>2444.1999511719</ele>
        <time>2011-03-06T12:10:18.000Z</time>
      </trkpt>
      <trkpt lat="45.90769" lon="6.50804">
        <ele>2441.8000488281</ele>
        <time>2011-03-06T12:10:23.000Z</time>
      </trkpt>
      <trkpt lat="45.90769" lon="6.50805">
        <ele>2441.1999511719</ele>
        <time>2011-03-06T12:10:24.000Z</time>
      </trkpt>
      <trkpt lat="45.90764" lon="6.50799">
        <ele>2440.8000488281</ele>
        <time>2011-03-06T12:10:36.000Z</time>
      </trkpt>
      <trkpt lat="45.90755" lon="6.50784">
        <ele>2438.8000488281</ele>
        <time>2011-03-06T12:10:40.000Z</time>
      </trkpt>
      <trkpt lat="45.90747" lon="6.50778">
        <ele>2436.8000488281</ele>
        <time>2011-03-06T12:10:44.000Z</time>
      </trkpt>
      <trkpt lat="45.90745" lon="6.50775">
        <ele>2436.8000488281</ele>
        <time>2011-03-06T12:10:45.000Z</time>
      </trkpt>
      <trkpt lat="45.90751" lon="6.50761">
        <ele>2431.6000976562</ele>
        <time>2011-03-06T12:10:50.000Z</time>
      </trkpt>
      <trkpt lat="45.90751" lon="6.50749">
        <ele>2426.1999511719</ele>
        <time>2011-03-06T12:10:53.000Z</time>
      </trkpt>
      <trkpt lat="45.90744" lon="6.50742">
        <ele>2422.6000976562</ele>
        <time>2011-03-06T12:10:56.000Z</time>
      </trkpt>
      <trkpt lat="45.90733" lon="6.50735">
        <ele>2420</ele>
        <time>2011-03-06T12:11:01.000Z</time>
      </trkpt>
      <trkpt lat="45.9072" lon="6.50724">
        <ele>2417</ele>
        <time>2011-03-06T12:11:07.000Z</time>
      </trkpt>
      <trkpt lat="45.90719" lon="6.50724">
        <ele>2416.1999511719</ele>
        <time>2011-03-06T12:11:10.000Z</time>
      </trkpt>
      <trkpt lat="45.90719" lon="6.50706">
        <ele>2416.3999023438</ele>
        <time>2011-03-06T12:11:25.000Z</time>
      </trkpt>
      <trkpt lat="45.90724" lon="6.5069">
        <ele>2407.6000976562</ele>
        <time>2011-03-06T12:11:29.000Z</time>
      </trkpt>
      <trkpt lat="45.90725" lon="6.50687">
        <ele>2407</ele>
        <time>2011-03-06T12:11:30.000Z</time>
      </trkpt>
      <trkpt lat="45.90729" lon="6.5067">
        <ele>2400</ele>
        <time>2011-03-06T12:11:35.000Z</time>
      </trkpt>
      <trkpt lat="45.90736" lon="6.50664">
        <ele>2394</ele>
        <time>2011-03-06T12:11:38.000Z</time>
      </trkpt>
      <trkpt lat="45.90733" lon="6.50655">
        <ele>2392.1999511719</ele>
        <time>2011-03-06T12:11:41.000Z</time>
      </trkpt>
      <trkpt lat="45.90741" lon="6.5066">
        <ele>2387.8000488281</ele>
        <time>2011-03-06T12:11:45.000Z</time>
      </trkpt>
      <trkpt lat="45.90741" lon="6.5066">
        <ele>2386.6000976562</ele>
        <time>2011-03-06T12:11:46.000Z</time>
      </trkpt>
      <trkpt lat="45.90736" lon="6.5065">
        <ele>2383.3999023438</ele>
        <time>2011-03-06T12:11:57.000Z</time>
      </trkpt>
      <trkpt lat="45.90736" lon="6.5065">
        <ele>2383.3999023438</ele>
        <time>2011-03-06T12:11:58.000Z</time>
      </trkpt>
      <trkpt lat="45.9073" lon="6.50628">
        <ele>2381</ele>
        <time>2011-03-06T12:12:07.000Z</time>
      </trkpt>
      <trkpt lat="45.90725" lon="6.50618">
        <ele>2380.1999511719</ele>
        <time>2011-03-06T12:12:09.000Z</time>
      </trkpt>
      <trkpt lat="45.90713" lon="6.50598">
        <ele>2373.1999511719</ele>
        <time>2011-03-06T12:12:13.000Z</time>
      </trkpt>
      <trkpt lat="45.90708" lon="6.5059">
        <ele>2368.6000976562</ele>
        <time>2011-03-06T12:12:15.000Z</time>
      </trkpt>
      <trkpt lat="45.90694" lon="6.5057">
        <ele>2368</ele>
        <time>2011-03-06T12:12:20.000Z</time>
      </trkpt>
      <trkpt lat="45.90687" lon="6.50553">
        <ele>2364.1999511719</ele>
        <time>2011-03-06T12:12:23.000Z</time>
      </trkpt>
      <trkpt lat="45.90678" lon="6.50541">
        <ele>2355.6000976562</ele>
        <time>2011-03-06T12:12:25.000Z</time>
      </trkpt>
      <trkpt lat="45.90669" lon="6.50541">
        <ele>2344.3999023438</ele>
        <time>2011-03-06T12:12:27.000Z</time>
      </trkpt>
      <trkpt lat="45.90664" lon="6.50545">
        <ele>2341.6000976562</ele>
        <time>2011-03-06T12:12:30.000Z</time>
      </trkpt>
      <trkpt lat="45.90663" lon="6.50545">
        <ele>2341.3999023438</ele>
        <time>2011-03-06T12:12:34.000Z</time>
      </trkpt>
      <trkpt lat="45.90659" lon="6.50527">
        <ele>2338.1999511719</ele>
        <time>2011-03-06T12:12:47.000Z</time>
      </trkpt>
      <trkpt lat="45.90646" lon="6.5052">
        <ele>2333.3999023438</ele>
        <time>2011-03-06T12:12:50.000Z</time>
      </trkpt>
      <trkpt lat="45.90635" lon="6.50512">
        <ele>2327.3999023438</ele>
        <time>2011-03-06T12:12:53.000Z</time>
      </trkpt>
      <trkpt lat="45.9063" lon="6.50513">
        <ele>2325.6000976562</ele>
        <time>2011-03-06T12:12:54.000Z</time>
      </trkpt>
      <trkpt lat="45.90615" lon="6.50514">
        <ele>2321.8000488281</ele>
        <time>2011-03-06T12:12:59.000Z</time>
      </trkpt>
      <trkpt lat="45.9061" lon="6.50498">
        <ele>2321</ele>
        <time>2011-03-06T12:13:02.000Z</time>
      </trkpt>
      <trkpt lat="45.90604" lon="6.50486">
        <ele>2314.6000976562</ele>
        <time>2011-03-06T12:13:05.000Z</time>
      </trkpt>
      <trkpt lat="45.90594" lon="6.50473">
        <ele>2307.3999023438</ele>
        <time>2011-03-06T12:13:08.000Z</time>
      </trkpt>
      <trkpt lat="45.9059" lon="6.50469">
        <ele>2305.6000976562</ele>
        <time>2011-03-06T12:13:09.000Z</time>
      </trkpt>
      <trkpt lat="45.90579" lon="6.50453">
        <ele>2299</ele>
        <time>2011-03-06T12:13:14.000Z</time>
      </trkpt>
      <trkpt lat="45.90568" lon="6.50438">
        <ele>2289</ele>
        <time>2011-03-06T12:13:17.000Z</time>
      </trkpt>
      <trkpt lat="45.90568" lon="6.50415">
        <ele>2282.1999511719</ele>
        <time>2011-03-06T12:13:19.000Z</time>
      </trkpt>
      <trkpt lat="45.9055" lon="6.50409">
        <ele>2274.8000488281</ele>
        <time>2011-03-06T12:13:22.000Z</time>
      </trkpt>
      <trkpt lat="45.90549" lon="6.50413">
        <ele>2272.1999511719</ele>
        <time>2011-03-06T12:13:25.000Z</time>
      </trkpt>
      <trkpt lat="45.9055" lon="6.50415">
        <ele>2272.6000976562</ele>
        <time>2011-03-06T12:13:27.000Z</time>
      </trkpt>
      <trkpt lat="45.90543" lon="6.50417">
        <ele>2271.8000488281</ele>
        <time>2011-03-06T12:14:00.000Z</time>
      </trkpt>
      <trkpt lat="45.90528" lon="6.50415">
        <ele>2269.8000488281</ele>
        <time>2011-03-06T12:14:05.000Z</time>
      </trkpt>
      <trkpt lat="45.90505" lon="6.50412">
        <ele>2266.6000976562</ele>
        <time>2011-03-06T12:14:10.000Z</time>
      </trkpt>
      <trkpt lat="45.9049" lon="6.50413">
        <ele>2264.1999511719</ele>
        <time>2011-03-06T12:14:14.000Z</time>
      </trkpt>
      <trkpt lat="45.90469" lon="6.50409">
        <ele>2261.6000976562</ele>
        <time>2011-03-06T12:14:19.000Z</time>
      </trkpt>
      <trkpt lat="45.90463" lon="6.50402">
        <ele>2261</ele>
        <time>2011-03-06T12:14:23.000Z</time>
      </trkpt>
      <trkpt lat="45.90463" lon="6.50398">
        <ele>2260.6000976562</ele>
        <time>2011-03-06T12:14:25.000Z</time>
      </trkpt>
      <trkpt lat="45.90463" lon="6.50401">
        <ele>2260.6000976562</ele>
        <time>2011-03-06T12:14:31.000Z</time>
      </trkpt>
      <trkpt lat="45.90462" lon="6.50398">
        <ele>2260.3999023438</ele>
        <time>2011-03-06T12:17:58.000Z</time>
      </trkpt>
      <trkpt lat="45.9046" lon="6.50397">
        <ele>2260.3999023438</ele>
        <time>2011-03-06T12:18:00.000Z</time>
      </trkpt>
      <trkpt lat="45.90461" lon="6.50403">
        <ele>2261.8000488281</ele>
        <time>2011-03-06T12:19:48.000Z</time>
      </trkpt>
      <trkpt lat="45.90456" lon="6.50404">
        <ele>2261.8000488281</ele>
        <time>2011-03-06T12:19:51.000Z</time>
      </trkpt>
      <trkpt lat="45.90453" lon="6.50406">
        <ele>2262.6000976562</ele>
        <time>2011-03-06T12:19:57.000Z</time>
      </trkpt>
      <trkpt lat="45.90451" lon="6.50405">
        <ele>2263.3999023438</ele>
        <time>2011-03-06T12:20:03.000Z</time>
      </trkpt>
      <trkpt lat="45.90444" lon="6.50404">
        <ele>2264.1999511719</ele>
        <time>2011-03-06T12:20:39.000Z</time>
      </trkpt>
      <trkpt lat="45.90437" lon="6.50405">
        <ele>2264.8000488281</ele>
        <time>2011-03-06T12:20:53.000Z</time>
      </trkpt>
      <trkpt lat="45.90437" lon="6.50397">
        <ele>2265.3999023438</ele>
        <time>2011-03-06T12:21:32.000Z</time>
      </trkpt>
      <trkpt lat="45.9043" lon="6.50394">
        <ele>2265.8000488281</ele>
        <time>2011-03-06T12:21:37.000Z</time>
      </trkpt>
      <trkpt lat="45.90422" lon="6.50397">
        <ele>2266.3999023438</ele>
        <time>2011-03-06T12:21:43.000Z</time>
      </trkpt>
      <trkpt lat="45.90413" lon="6.50397">
        <ele>2266.8000488281</ele>
        <time>2011-03-06T12:21:48.000Z</time>
      </trkpt>
      <trkpt lat="45.90407" lon="6.50397">
        <ele>2267.1999511719</ele>
        <time>2011-03-06T12:21:52.000Z</time>
      </trkpt>
      <trkpt lat="45.90407" lon="6.504">
        <ele>2267.6000976562</ele>
        <time>2011-03-06T12:21:54.000Z</time>
      </trkpt>
      <trkpt lat="45.90418" lon="6.50406">
        <ele>2267.8000488281</ele>
        <time>2011-03-06T12:22:01.000Z</time>
      </trkpt>
      <trkpt lat="45.90427" lon="6.50409">
        <ele>2268.3999023438</ele>
        <time>2011-03-06T12:22:05.000Z</time>
      </trkpt>
      <trkpt lat="45.90433" lon="6.50412">
        <ele>2269.1999511719</ele>
        <time>2011-03-06T12:22:10.000Z</time>
      </trkpt>
      <trkpt lat="45.90445" lon="6.50417">
        <ele>2270.1999511719</ele>
        <time>2011-03-06T12:22:17.000Z</time>
      </trkpt>
      <trkpt lat="45.90462" lon="6.5043">
        <ele>2272.6000976562</ele>
        <time>2011-03-06T12:22:32.000Z</time>
      </trkpt>
      <trkpt lat="45.90452" lon="6.50431">
        <ele>2273.1999511719</ele>
        <time>2011-03-06T12:22:42.000Z</time>
      </trkpt>
      <trkpt lat="45.90441" lon="6.50428">
        <ele>2274.3999023438</ele>
        <time>2011-03-06T12:22:48.000Z</time>
      </trkpt>
      <trkpt lat="45.90427" lon="6.50427">
        <ele>2275</ele>
        <time>2011-03-06T12:22:53.000Z</time>
      </trkpt>
      <trkpt lat="45.90417" lon="6.50425">
        <ele>2276.1999511719</ele>
        <time>2011-03-06T12:22:57.000Z</time>
      </trkpt>
      <trkpt lat="45.9041" lon="6.50426">
        <ele>2277.1999511719</ele>
        <time>2011-03-06T12:23:03.000Z</time>
      </trkpt>
      <trkpt lat="45.90408" lon="6.5043">
        <ele>2277.6000976562</ele>
        <time>2011-03-06T12:23:08.000Z</time>
      </trkpt>
      <trkpt lat="45.90407" lon="6.50431">
        <ele>2278.1999511719</ele>
        <time>2011-03-06T12:23:11.000Z</time>
      </trkpt>
      <trkpt lat="45.90398" lon="6.50448">
        <ele>2286.1999511719</ele>
        <time>2011-03-06T12:24:09.000Z</time>
      </trkpt>
      <trkpt lat="45.90398" lon="6.50453">
        <ele>2287.1999511719</ele>
        <time>2011-03-06T12:24:13.000Z</time>
      </trkpt>
      <trkpt lat="45.90385" lon="6.50465">
        <ele>2289.3999023438</ele>
        <time>2011-03-06T12:24:39.000Z</time>
      </trkpt>
      <trkpt lat="45.90384" lon="6.50465">
        <ele>2289.3999023438</ele>
        <time>2011-03-06T12:24:43.000Z</time>
      </trkpt>
      <trkpt lat="45.90365" lon="6.50454">
        <ele>2291.1999511719</ele>
        <time>2011-03-06T12:24:55.000Z</time>
      </trkpt>
      <trkpt lat="45.90365" lon="6.5045">
        <ele>2292.1999511719</ele>
        <time>2011-03-06T12:25:01.000Z</time>
      </trkpt>
      <trkpt lat="45.90372" lon="6.50454">
        <ele>2294.8000488281</ele>
        <time>2011-03-06T12:25:16.000Z</time>
      </trkpt>
      <trkpt lat="45.90391" lon="6.50475">
        <ele>2297.3999023438</ele>
        <time>2011-03-06T12:25:30.000Z</time>
      </trkpt>
      <trkpt lat="45.90393" lon="6.50478">
        <ele>2297.6000976562</ele>
        <time>2011-03-06T12:25:33.000Z</time>
      </trkpt>
      <trkpt lat="45.90388" lon="6.50481">
        <ele>2300.1999511719</ele>
        <time>2011-03-06T12:25:51.000Z</time>
      </trkpt>
      <trkpt lat="45.90386" lon="6.50481">
        <ele>2300.8000488281</ele>
        <time>2011-03-06T12:25:53.000Z</time>
      </trkpt>
      <trkpt lat="45.90382" lon="6.50479">
        <ele>2301.3999023438</ele>
        <time>2011-03-06T12:25:57.000Z</time>
      </trkpt>
      <trkpt lat="45.90375" lon="6.50473">
        <ele>2303.3999023438</ele>
        <time>2011-03-06T12:26:08.000Z</time>
      </trkpt>
      <trkpt lat="45.90376" lon="6.50485">
        <ele>2306.1999511719</ele>
        <time>2011-03-06T12:26:40.000Z</time>
      </trkpt>
      <trkpt lat="45.9038" lon="6.50494">
        <ele>2307.3999023438</ele>
        <time>2011-03-06T12:26:45.000Z</time>
      </trkpt>
      <trkpt lat="45.90381" lon="6.50507">
        <ele>2309.1999511719</ele>
        <time>2011-03-06T12:26:56.000Z</time>
      </trkpt>
      <trkpt lat="45.90381" lon="6.50512">
        <ele>2310.6000976562</ele>
        <time>2011-03-06T12:27:02.000Z</time>
      </trkpt>
      <trkpt lat="45.90375" lon="6.50511">
        <ele>2311.1999511719</ele>
        <time>2011-03-06T12:27:08.000Z</time>
      </trkpt>
      <trkpt lat="45.90368" lon="6.5051">
        <ele>2312.6000976562</ele>
        <time>2011-03-06T12:27:13.000Z</time>
      </trkpt>
      <trkpt lat="45.90362" lon="6.50505">
        <ele>2313.6000976562</ele>
        <time>2011-03-06T12:27:19.000Z</time>
      </trkpt>
      <trkpt lat="45.90358" lon="6.50506">
        <ele>2314.6000976562</ele>
        <time>2011-03-06T12:27:23.000Z</time>
      </trkpt>
      <trkpt lat="45.90352" lon="6.50505">
        <ele>2315.8000488281</ele>
        <time>2011-03-06T12:27:30.000Z</time>
      </trkpt>
      <trkpt lat="45.90349" lon="6.50509">
        <ele>2316.6000976562</ele>
        <time>2011-03-06T12:27:35.000Z</time>
      </trkpt>
      <trkpt lat="45.90353" lon="6.50516">
        <ele>2317.1999511719</ele>
        <time>2011-03-06T12:27:39.000Z</time>
      </trkpt>
      <trkpt lat="45.90358" lon="6.50521">
        <ele>2318.1999511719</ele>
        <time>2011-03-06T12:27:44.000Z</time>
      </trkpt>
      <trkpt lat="45.90373" lon="6.5053">
        <ele>2320</ele>
        <time>2011-03-06T12:27:57.000Z</time>
      </trkpt>
      <trkpt lat="45.90349" lon="6.50532">
        <ele>2322.3999023438</ele>
        <time>2011-03-06T12:28:14.000Z</time>
      </trkpt>
      <trkpt lat="45.90342" lon="6.50536">
        <ele>2323.8000488281</ele>
        <time>2011-03-06T12:28:21.000Z</time>
      </trkpt>
      <trkpt lat="45.90341" lon="6.50538">
        <ele>2324.3999023438</ele>
        <time>2011-03-06T12:28:26.000Z</time>
      </trkpt>
      <trkpt lat="45.9033" lon="6.50536">
        <ele>2325.6000976562</ele>
        <time>2011-03-06T12:28:33.000Z</time>
      </trkpt>
      <trkpt lat="45.90328" lon="6.50538">
        <ele>2326.8000488281</ele>
        <time>2011-03-06T12:28:39.000Z</time>
      </trkpt>
      <trkpt lat="45.90333" lon="6.5054">
        <ele>2327.1999511719</ele>
        <time>2011-03-06T12:28:43.000Z</time>
      </trkpt>
      <trkpt lat="45.9034" lon="6.50541">
        <ele>2327.6000976562</ele>
        <time>2011-03-06T12:28:48.000Z</time>
      </trkpt>
      <trkpt lat="45.90349" lon="6.50542">
        <ele>2328.1999511719</ele>
        <time>2011-03-06T12:28:54.000Z</time>
      </trkpt>
      <trkpt lat="45.90353" lon="6.50545">
        <ele>2328.6000976562</ele>
        <time>2011-03-06T12:28:58.000Z</time>
      </trkpt>
      <trkpt lat="45.90347" lon="6.50549">
        <ele>2330</ele>
        <time>2011-03-06T12:29:08.000Z</time>
      </trkpt>
      <trkpt lat="45.90337" lon="6.50549">
        <ele>2331.6000976562</ele>
        <time>2011-03-06T12:29:19.000Z</time>
      </trkpt>
      <trkpt lat="45.90336" lon="6.5055">
        <ele>2332.1999511719</ele>
        <time>2011-03-06T12:29:21.000Z</time>
      </trkpt>
      <trkpt lat="45.90324" lon="6.50548">
        <ele>2333.8000488281</ele>
        <time>2011-03-06T12:29:31.000Z</time>
      </trkpt>
      <trkpt lat="45.90322" lon="6.50548">
        <ele>2334.1999511719</ele>
        <time>2011-03-06T12:29:33.000Z</time>
      </trkpt>
      <trkpt lat="45.90313" lon="6.50544">
        <ele>2335.3999023438</ele>
        <time>2011-03-06T12:29:39.000Z</time>
      </trkpt>
      <trkpt lat="45.90305" lon="6.50538">
        <ele>2336.3999023438</ele>
        <time>2011-03-06T12:29:45.000Z</time>
      </trkpt>
      <trkpt lat="45.90303" lon="6.50539">
        <ele>2337.3999023438</ele>
        <time>2011-03-06T12:29:50.000Z</time>
      </trkpt>
      <trkpt lat="45.90294" lon="6.50537">
        <ele>2339.1999511719</ele>
        <time>2011-03-06T12:30:00.000Z</time>
      </trkpt>
      <trkpt lat="45.90292" lon="6.50537">
        <ele>2339.8000488281</ele>
        <time>2011-03-06T12:30:02.000Z</time>
      </trkpt>
      <trkpt lat="45.90289" lon="6.50537">
        <ele>2340.8000488281</ele>
        <time>2011-03-06T12:30:08.000Z</time>
      </trkpt>
      <trkpt lat="45.90293" lon="6.50546">
        <ele>2342.1999511719</ele>
        <time>2011-03-06T12:30:22.000Z</time>
      </trkpt>
      <trkpt lat="45.90295" lon="6.50548">
        <ele>2342.3999023438</ele>
        <time>2011-03-06T12:30:23.000Z</time>
      </trkpt>
      <trkpt lat="45.90299" lon="6.50553">
        <ele>2343</ele>
        <time>2011-03-06T12:30:27.000Z</time>
      </trkpt>
      <trkpt lat="45.90305" lon="6.50559">
        <ele>2343.6000976562</ele>
        <time>2011-03-06T12:30:32.000Z</time>
      </trkpt>
      <trkpt lat="45.90309" lon="6.50562">
        <ele>2344.1999511719</ele>
        <time>2011-03-06T12:30:37.000Z</time>
      </trkpt>
      <trkpt lat="45.9031" lon="6.50565">
        <ele>2344.6000976562</ele>
        <time>2011-03-06T12:30:40.000Z</time>
      </trkpt>
      <trkpt lat="45.90318" lon="6.50574">
        <ele>2345.8000488281</ele>
        <time>2011-03-06T12:30:50.000Z</time>
      </trkpt>
      <trkpt lat="45.90322" lon="6.50578">
        <ele>2346.3999023438</ele>
        <time>2011-03-06T12:30:55.000Z</time>
      </trkpt>
      <trkpt lat="45.90322" lon="6.50578">
        <ele>2347.8000488281</ele>
        <time>2011-03-06T12:31:06.000Z</time>
      </trkpt>
      <trkpt lat="45.9032" lon="6.50578">
        <ele>2349</ele>
        <time>2011-03-06T12:31:11.000Z</time>
      </trkpt>
      <trkpt lat="45.90318" lon="6.50578">
        <ele>2349.8000488281</ele>
        <time>2011-03-06T12:31:13.000Z</time>
      </trkpt>
      <trkpt lat="45.90302" lon="6.50572">
        <ele>2352.1999511719</ele>
        <time>2011-03-06T12:31:33.000Z</time>
      </trkpt>
      <trkpt lat="45.90301" lon="6.50571">
        <ele>2353.3999023438</ele>
        <time>2011-03-06T12:31:36.000Z</time>
      </trkpt>
      <trkpt lat="45.90295" lon="6.50568">
        <ele>2354.8000488281</ele>
        <time>2011-03-06T12:31:43.000Z</time>
      </trkpt>
      <trkpt lat="45.90294" lon="6.50568">
        <ele>2355.1999511719</ele>
        <time>2011-03-06T12:31:45.000Z</time>
      </trkpt>
      <trkpt lat="45.90297" lon="6.50578">
        <ele>2356.8000488281</ele>
        <time>2011-03-06T12:32:02.000Z</time>
      </trkpt>
      <trkpt lat="45.90299" lon="6.50581">
        <ele>2357</ele>
        <time>2011-03-06T12:32:06.000Z</time>
      </trkpt>
      <trkpt lat="45.90309" lon="6.50592">
        <ele>2359</ele>
        <time>2011-03-06T12:32:22.000Z</time>
      </trkpt>
      <trkpt lat="45.90315" lon="6.50597">
        <ele>2360.1999511719</ele>
        <time>2011-03-06T12:32:29.000Z</time>
      </trkpt>
      <trkpt lat="45.90322" lon="6.50603">
        <ele>2361.1999511719</ele>
        <time>2011-03-06T12:32:37.000Z</time>
      </trkpt>
      <trkpt lat="45.9032" lon="6.50604">
        <ele>2361.6000976562</ele>
        <time>2011-03-06T12:32:42.000Z</time>
      </trkpt>
      <trkpt lat="45.90313" lon="6.50605">
        <ele>2362.6000976562</ele>
        <time>2011-03-06T12:32:48.000Z</time>
      </trkpt>
      <trkpt lat="45.90307" lon="6.50605">
        <ele>2363.8000488281</ele>
        <time>2011-03-06T12:32:54.000Z</time>
      </trkpt>
      <trkpt lat="45.90302" lon="6.50607">
        <ele>2365</ele>
        <time>2011-03-06T12:33:00.000Z</time>
      </trkpt>
      <trkpt lat="45.90297" lon="6.50606">
        <ele>2366.1999511719</ele>
        <time>2011-03-06T12:33:06.000Z</time>
      </trkpt>
      <trkpt lat="45.90295" lon="6.50607">
        <ele>2367.3999023438</ele>
        <time>2011-03-06T12:33:10.000Z</time>
      </trkpt>
      <trkpt lat="45.90286" lon="6.50602">
        <ele>2370.1999511719</ele>
        <time>2011-03-06T12:33:26.000Z</time>
      </trkpt>
      <trkpt lat="45.90285" lon="6.506">
        <ele>2370.6000976562</ele>
        <time>2011-03-06T12:33:28.000Z</time>
      </trkpt>
      <trkpt lat="45.90279" lon="6.50602">
        <ele>2373.3999023438</ele>
        <time>2011-03-06T12:33:47.000Z</time>
      </trkpt>
      <trkpt lat="45.90278" lon="6.50606">
        <ele>2374</ele>
        <time>2011-03-06T12:33:52.000Z</time>
      </trkpt>
      <trkpt lat="45.90279" lon="6.50608">
        <ele>2374.6000976562</ele>
        <time>2011-03-06T12:33:55.000Z</time>
      </trkpt>
      <trkpt lat="45.90286" lon="6.50616">
        <ele>2375.1999511719</ele>
        <time>2011-03-06T12:34:02.000Z</time>
      </trkpt>
      <trkpt lat="45.9029" lon="6.5062">
        <ele>2375.8000488281</ele>
        <time>2011-03-06T12:34:07.000Z</time>
      </trkpt>
      <trkpt lat="45.90292" lon="6.50622">
        <ele>2376</ele>
        <time>2011-03-06T12:34:11.000Z</time>
      </trkpt>
      <trkpt lat="45.90295" lon="6.50626">
        <ele>2376.6000976562</ele>
        <time>2011-03-06T12:34:16.000Z</time>
      </trkpt>
      <trkpt lat="45.90302" lon="6.50631">
        <ele>2377.6000976562</ele>
        <time>2011-03-06T12:34:22.000Z</time>
      </trkpt>
      <trkpt lat="45.90307" lon="6.50634">
        <ele>2378.1999511719</ele>
        <time>2011-03-06T12:34:27.000Z</time>
      </trkpt>
      <trkpt lat="45.9031" lon="6.50638">
        <ele>2379.1999511719</ele>
        <time>2011-03-06T12:34:34.000Z</time>
      </trkpt>
      <trkpt lat="45.90305" lon="6.50637">
        <ele>2379.3999023438</ele>
        <time>2011-03-06T12:34:39.000Z</time>
      </trkpt>
      <trkpt lat="45.90299" lon="6.50637">
        <ele>2380.1999511719</ele>
        <time>2011-03-06T12:34:44.000Z</time>
      </trkpt>
      <trkpt lat="45.9029" lon="6.50635">
        <ele>2381.1999511719</ele>
        <time>2011-03-06T12:34:52.000Z</time>
      </trkpt>
      <trkpt lat="45.90285" lon="6.50634">
        <ele>2381.8000488281</ele>
        <time>2011-03-06T12:34:56.000Z</time>
      </trkpt>
      <trkpt lat="45.90276" lon="6.5063">
        <ele>2382.8000488281</ele>
        <time>2011-03-06T12:35:04.000Z</time>
      </trkpt>
      <trkpt lat="45.9027" lon="6.50629">
        <ele>2383.3999023438</ele>
        <time>2011-03-06T12:35:10.000Z</time>
      </trkpt>
      <trkpt lat="45.90271" lon="6.50631">
        <ele>2383.6000976562</ele>
        <time>2011-03-06T12:35:12.000Z</time>
      </trkpt>
      <trkpt lat="45.90282" lon="6.5064">
        <ele>2384.6000976562</ele>
        <time>2011-03-06T12:35:22.000Z</time>
      </trkpt>
      <trkpt lat="45.90289" lon="6.50649">
        <ele>2386.6000976562</ele>
        <time>2011-03-06T12:35:32.000Z</time>
      </trkpt>
      <trkpt lat="45.90289" lon="6.5065">
        <ele>2386.8000488281</ele>
        <time>2011-03-06T12:35:33.000Z</time>
      </trkpt>
      <trkpt lat="45.90301" lon="6.50663">
        <ele>2391.1999511719</ele>
        <time>2011-03-06T12:36:02.000Z</time>
      </trkpt>
      <trkpt lat="45.90302" lon="6.50663">
        <ele>2391.1999511719</ele>
        <time>2011-03-06T12:36:03.000Z</time>
      </trkpt>
      <trkpt lat="45.90307" lon="6.50665">
        <ele>2392.3999023438</ele>
        <time>2011-03-06T12:36:10.000Z</time>
      </trkpt>
      <trkpt lat="45.9031" lon="6.50667">
        <ele>2393.3999023438</ele>
        <time>2011-03-06T12:36:19.000Z</time>
      </trkpt>
      <trkpt lat="45.90316" lon="6.50669">
        <ele>2395.1999511719</ele>
        <time>2011-03-06T12:36:28.000Z</time>
      </trkpt>
      <trkpt lat="45.90319" lon="6.50669">
        <ele>2395.8000488281</ele>
        <time>2011-03-06T12:36:32.000Z</time>
      </trkpt>
      <trkpt lat="45.9032" lon="6.50669">
        <ele>2396.3999023438</ele>
        <time>2011-03-06T12:36:37.000Z</time>
      </trkpt>
      <trkpt lat="45.90312" lon="6.50671">
        <ele>2397</ele>
        <time>2011-03-06T12:36:46.000Z</time>
      </trkpt>
      <trkpt lat="45.90307" lon="6.50676">
        <ele>2398.3999023438</ele>
        <time>2011-03-06T12:36:53.000Z</time>
      </trkpt>
      <trkpt lat="45.90302" lon="6.50682">
        <ele>2400</ele>
        <time>2011-03-06T12:37:03.000Z</time>
      </trkpt>
      <trkpt lat="45.90299" lon="6.5069">
        <ele>2401</ele>
        <time>2011-03-06T12:37:15.000Z</time>
      </trkpt>
      <trkpt lat="45.90297" lon="6.50696">
        <ele>2402</ele>
        <time>2011-03-06T12:37:20.000Z</time>
      </trkpt>
      <trkpt lat="45.90302" lon="6.50695">
        <ele>2401.8000488281</ele>
        <time>2011-03-06T12:43:48.000Z</time>
      </trkpt>
      <trkpt lat="45.90302" lon="6.50694">
        <ele>2401.8000488281</ele>
        <time>2011-03-06T12:43:49.000Z</time>
      </trkpt>
      <trkpt lat="45.90293" lon="6.50687">
        <ele>2402</ele>
        <time>2011-03-06T12:44:41.000Z</time>
      </trkpt>
      <trkpt lat="45.90297" lon="6.50685">
        <ele>2403.1999511719</ele>
        <time>2011-03-06T12:51:19.000Z</time>
      </trkpt>
      <trkpt lat="45.90292" lon="6.50685">
        <ele>2403.3999023438</ele>
        <time>2011-03-06T12:52:11.000Z</time>
      </trkpt>
      <trkpt lat="45.90291" lon="6.50683">
        <ele>2403.8000488281</ele>
        <time>2011-03-06T12:53:23.000Z</time>
      </trkpt>
      <trkpt lat="45.90295" lon="6.50686">
        <ele>2403.8000488281</ele>
        <time>2011-03-06T12:53:28.000Z</time>
      </trkpt>
      <trkpt lat="45.90295" lon="6.50686">
        <ele>2403.6000976562</ele>
        <time>2011-03-06T12:53:29.000Z</time>
      </trkpt>
      <trkpt lat="45.90305" lon="6.5069">
        <ele>2403.3999023438</ele>
        <time>2011-03-06T12:54:12.000Z</time>
      </trkpt>
      <trkpt lat="45.90305" lon="6.50692">
        <ele>2404.3999023438</ele>
        <time>2011-03-06T12:55:49.000Z</time>
      </trkpt>
      <trkpt lat="45.90305" lon="6.50692">
        <ele>2404.6000976562</ele>
        <time>2011-03-06T12:55:50.000Z</time>
      </trkpt>
      <trkpt lat="45.90291" lon="6.50665">
        <ele>2401.1999511719</ele>
        <time>2011-03-06T12:57:31.000Z</time>
      </trkpt>
      <trkpt lat="45.90277" lon="6.50644">
        <ele>2396.6000976562</ele>
        <time>2011-03-06T12:57:35.000Z</time>
      </trkpt>
      <trkpt lat="45.90268" lon="6.50626">
        <ele>2394</ele>
        <time>2011-03-06T12:57:40.000Z</time>
      </trkpt>
      <trkpt lat="45.90271" lon="6.50618">
        <ele>2393</ele>
        <time>2011-03-06T12:57:43.000Z</time>
      </trkpt>
      <trkpt lat="45.90275" lon="6.50602">
        <ele>2393</ele>
        <time>2011-03-06T12:57:46.000Z</time>
      </trkpt>
      <trkpt lat="45.90272" lon="6.50587">
        <ele>2388.6000976562</ele>
        <time>2011-03-06T12:57:49.000Z</time>
      </trkpt>
      <trkpt lat="45.90278" lon="6.50579">
        <ele>2380.1999511719</ele>
        <time>2011-03-06T12:57:51.000Z</time>
      </trkpt>
      <trkpt lat="45.90286" lon="6.50566">
        <ele>2373.8000488281</ele>
        <time>2011-03-06T12:57:54.000Z</time>
      </trkpt>
      <trkpt lat="45.90292" lon="6.50554">
        <ele>2373</ele>
        <time>2011-03-06T12:57:56.000Z</time>
      </trkpt>
      <trkpt lat="45.90298" lon="6.50545">
        <ele>2371.1999511719</ele>
        <time>2011-03-06T12:57:59.000Z</time>
      </trkpt>
      <trkpt lat="45.9029" lon="6.50536">
        <ele>2359.6000976562</ele>
        <time>2011-03-06T12:58:02.000Z</time>
      </trkpt>
      <trkpt lat="45.90288" lon="6.50533">
        <ele>2354.1999511719</ele>
        <time>2011-03-06T12:58:04.000Z</time>
      </trkpt>
      <trkpt lat="45.90298" lon="6.50528">
        <ele>2354.6000976562</ele>
        <time>2011-03-06T12:58:07.000Z</time>
      </trkpt>
      <trkpt lat="45.90311" lon="6.50518">
        <ele>2354.8000488281</ele>
        <time>2011-03-06T12:58:10.000Z</time>
      </trkpt>
      <trkpt lat="45.90324" lon="6.50501">
        <ele>2354.6000976562</ele>
        <time>2011-03-06T12:58:13.000Z</time>
      </trkpt>
      <trkpt lat="45.90335" lon="6.50487">
        <ele>2354.6000976562</ele>
        <time>2011-03-06T12:58:16.000Z</time>
      </trkpt>
      <trkpt lat="45.90346" lon="6.5048">
        <ele>2354.6000976562</ele>
        <time>2011-03-06T12:58:18.000Z</time>
      </trkpt>
      <trkpt lat="45.90348" lon="6.50466">
        <ele>2347.6000976562</ele>
        <time>2011-03-06T12:58:20.000Z</time>
      </trkpt>
      <trkpt lat="45.90347" lon="6.50459">
        <ele>2334.8000488281</ele>
        <time>2011-03-06T12:58:22.000Z</time>
      </trkpt>
      <trkpt lat="45.90347" lon="6.5046">
        <ele>2320.3999023438</ele>
        <time>2011-03-06T12:58:24.000Z</time>
      </trkpt>
      <trkpt lat="45.90347" lon="6.50459">
        <ele>2319.6000976562</ele>
        <time>2011-03-06T12:58:25.000Z</time>
      </trkpt>
      <trkpt lat="45.90358" lon="6.5046">
        <ele>2319</ele>
        <time>2011-03-06T12:58:29.000Z</time>
      </trkpt>
      <trkpt lat="45.90365" lon="6.50465">
        <ele>2318.3999023438</ele>
        <time>2011-03-06T12:58:30.000Z</time>
      </trkpt>
      <trkpt lat="45.90381" lon="6.50452">
        <ele>2304.6000976562</ele>
        <time>2011-03-06T12:58:35.000Z</time>
      </trkpt>
      <trkpt lat="45.9038" lon="6.50445">
        <ele>2301.1999511719</ele>
        <time>2011-03-06T12:58:37.000Z</time>
      </trkpt>
      <trkpt lat="45.90371" lon="6.50442">
        <ele>2298.1999511719</ele>
        <time>2011-03-06T12:58:41.000Z</time>
      </trkpt>
      <trkpt lat="45.90367" lon="6.50439">
        <ele>2298</ele>
        <time>2011-03-06T12:58:46.000Z</time>
      </trkpt>
      <trkpt lat="45.90384" lon="6.50432">
        <ele>2297.1999511719</ele>
        <time>2011-03-06T12:58:50.000Z</time>
      </trkpt>
      <trkpt lat="45.90399" lon="6.50421">
        <ele>2297.1999511719</ele>
        <time>2011-03-06T12:58:53.000Z</time>
      </trkpt>
      <trkpt lat="45.90402" lon="6.504">
        <ele>2297.1999511719</ele>
        <time>2011-03-06T12:58:56.000Z</time>
      </trkpt>
      <trkpt lat="45.90409" lon="6.50391">
        <ele>2297.1999511719</ele>
        <time>2011-03-06T12:58:58.000Z</time>
      </trkpt>
      <trkpt lat="45.90411" lon="6.50378">
        <ele>2297.1999511719</ele>
        <time>2011-03-06T12:59:00.000Z</time>
      </trkpt>
      <trkpt lat="45.9042" lon="6.50356">
        <ele>2289.3999023438</ele>
        <time>2011-03-06T12:59:04.000Z</time>
      </trkpt>
      <trkpt lat="45.90426" lon="6.50334">
        <ele>2258.3999023438</ele>
        <time>2011-03-06T12:59:08.000Z</time>
      </trkpt>
      <trkpt lat="45.90419" lon="6.50322">
        <ele>2251.3999023438</ele>
        <time>2011-03-06T12:59:11.000Z</time>
      </trkpt>
      <trkpt lat="45.90416" lon="6.50319">
        <ele>2249</ele>
        <time>2011-03-06T12:59:12.000Z</time>
      </trkpt>
      <trkpt lat="45.90406" lon="6.50325">
        <ele>2248.3999023438</ele>
        <time>2011-03-06T12:59:20.000Z</time>
      </trkpt>
      <trkpt lat="45.90409" lon="6.50324">
        <ele>2248.1999511719</ele>
        <time>2011-03-06T12:59:24.000Z</time>
      </trkpt>
      <trkpt lat="45.90422" lon="6.50321">
        <ele>2247.3999023438</ele>
        <time>2011-03-06T12:59:28.000Z</time>
      </trkpt>
      <trkpt lat="45.90434" lon="6.50309">
        <ele>2247.1999511719</ele>
        <time>2011-03-06T12:59:31.000Z</time>
      </trkpt>
      <trkpt lat="45.90444" lon="6.50291">
        <ele>2247.1999511719</ele>
        <time>2011-03-06T12:59:34.000Z</time>
      </trkpt>
      <trkpt lat="45.90457" lon="6.50273">
        <ele>2247</ele>
        <time>2011-03-06T12:59:37.000Z</time>
      </trkpt>
      <trkpt lat="45.90462" lon="6.50266">
        <ele>2247</ele>
        <time>2011-03-06T12:59:38.000Z</time>
      </trkpt>
      <trkpt lat="45.9047" lon="6.50231">
        <ele>2235.3999023438</ele>
        <time>2011-03-06T12:59:42.000Z</time>
      </trkpt>
      <trkpt lat="45.90471" lon="6.50211">
        <ele>2216.8000488281</ele>
        <time>2011-03-06T12:59:44.000Z</time>
      </trkpt>
      <trkpt lat="45.90466" lon="6.50165">
        <ele>2206.1999511719</ele>
        <time>2011-03-06T12:59:49.000Z</time>
      </trkpt>
      <trkpt lat="45.90465" lon="6.50149">
        <ele>2204.6000976562</ele>
        <time>2011-03-06T12:59:52.000Z</time>
      </trkpt>
      <trkpt lat="45.90468" lon="6.50134">
        <ele>2202.3999023438</ele>
        <time>2011-03-06T12:59:56.000Z</time>
      </trkpt>
      <trkpt lat="45.90476" lon="6.50122">
        <ele>2199.8000488281</ele>
        <time>2011-03-06T13:00:00.000Z</time>
      </trkpt>
      <trkpt lat="45.90488" lon="6.50099">
        <ele>2196.8000488281</ele>
        <time>2011-03-06T13:00:03.000Z</time>
      </trkpt>
      <trkpt lat="45.90505" lon="6.50075">
        <ele>2193.6000976562</ele>
        <time>2011-03-06T13:00:07.000Z</time>
      </trkpt>
      <trkpt lat="45.90527" lon="6.50048">
        <ele>2190</ele>
        <time>2011-03-06T13:00:12.000Z</time>
      </trkpt>
      <trkpt lat="45.90531" lon="6.50043">
        <ele>2188.8000488281</ele>
        <time>2011-03-06T13:00:13.000Z</time>
      </trkpt>
      <trkpt lat="45.90547" lon="6.50016">
        <ele>2186.6000976562</ele>
        <time>2011-03-06T13:00:19.000Z</time>
      </trkpt>
      <trkpt lat="45.90559" lon="6.49982">
        <ele>2184.8000488281</ele>
        <time>2011-03-06T13:00:26.000Z</time>
      </trkpt>
      <trkpt lat="45.90562" lon="6.49972">
        <ele>2184.1999511719</ele>
        <time>2011-03-06T13:00:28.000Z</time>
      </trkpt>
      <trkpt lat="45.90576" lon="6.49954">
        <ele>2182.1999511719</ele>
        <time>2011-03-06T13:00:34.000Z</time>
      </trkpt>
      <trkpt lat="45.90594" lon="6.49939">
        <ele>2179.6000976562</ele>
        <time>2011-03-06T13:00:41.000Z</time>
      </trkpt>
      <trkpt lat="45.90596" lon="6.49937">
        <ele>2179.1999511719</ele>
        <time>2011-03-06T13:00:45.000Z</time>
      </trkpt>
      <trkpt lat="45.90597" lon="6.49935">
        <ele>2179.6000976562</ele>
        <time>2011-03-06T13:02:33.000Z</time>
      </trkpt>
      <trkpt lat="45.9059" lon="6.49933">
        <ele>2178.1999511719</ele>
        <time>2011-03-06T13:02:49.000Z</time>
      </trkpt>
      <trkpt lat="45.90589" lon="6.49924">
        <ele>2176.3999023438</ele>
        <time>2011-03-06T13:02:52.000Z</time>
      </trkpt>
      <trkpt lat="45.9059" lon="6.49905">
        <ele>2173.6000976562</ele>
        <time>2011-03-06T13:02:55.000Z</time>
      </trkpt>
      <trkpt lat="45.90591" lon="6.49877">
        <ele>2167.8000488281</ele>
        <time>2011-03-06T13:02:59.000Z</time>
      </trkpt>
      <trkpt lat="45.9059" lon="6.49863">
        <ele>2166.6000976562</ele>
        <time>2011-03-06T13:03:01.000Z</time>
      </trkpt>
      <trkpt lat="45.90591" lon="6.49848">
        <ele>2165.1999511719</ele>
        <time>2011-03-06T13:03:03.000Z</time>
      </trkpt>
      <trkpt lat="45.90598" lon="6.49839">
        <ele>2164.8000488281</ele>
        <time>2011-03-06T13:03:06.000Z</time>
      </trkpt>
      <trkpt lat="45.90602" lon="6.49829">
        <ele>2160.8000488281</ele>
        <time>2011-03-06T13:03:09.000Z</time>
      </trkpt>
      <trkpt lat="45.906" lon="6.49825">
        <ele>2158.8000488281</ele>
        <time>2011-03-06T13:03:10.000Z</time>
      </trkpt>
      <trkpt lat="45.9058" lon="6.49797">
        <ele>2153.8000488281</ele>
        <time>2011-03-06T13:03:16.000Z</time>
      </trkpt>
      <trkpt lat="45.90572" lon="6.49778">
        <ele>2151.3999023438</ele>
        <time>2011-03-06T13:03:20.000Z</time>
      </trkpt>
      <trkpt lat="45.9057" lon="6.49775">
        <ele>2151</ele>
        <time>2011-03-06T13:03:21.000Z</time>
      </trkpt>
      <trkpt lat="45.90562" lon="6.49754">
        <ele>2147.6000976562</ele>
        <time>2011-03-06T13:03:25.000Z</time>
      </trkpt>
      <trkpt lat="45.90557" lon="6.49733">
        <ele>2144.8000488281</ele>
        <time>2011-03-06T13:03:29.000Z</time>
      </trkpt>
      <trkpt lat="45.90556" lon="6.49724">
        <ele>2144</ele>
        <time>2011-03-06T13:03:31.000Z</time>
      </trkpt>
      <trkpt lat="45.90557" lon="6.49719">
        <ele>2143.1999511719</ele>
        <time>2011-03-06T13:03:33.000Z</time>
      </trkpt>
      <trkpt lat="45.90561" lon="6.49713">
        <ele>2141.8000488281</ele>
        <time>2011-03-06T13:03:36.000Z</time>
      </trkpt>
      <trkpt lat="45.90562" lon="6.49698">
        <ele>2138.1999511719</ele>
        <time>2011-03-06T13:03:39.000Z</time>
      </trkpt>
      <trkpt lat="45.90565" lon="6.49697">
        <ele>2136.6000976562</ele>
        <time>2011-03-06T13:03:40.000Z</time>
      </trkpt>
      <trkpt lat="45.90583" lon="6.49674">
        <ele>2129.8000488281</ele>
        <time>2011-03-06T13:03:44.000Z</time>
      </trkpt>
      <trkpt lat="45.90577" lon="6.49653">
        <ele>2125.8000488281</ele>
        <time>2011-03-06T13:03:47.000Z</time>
      </trkpt>
      <trkpt lat="45.90576" lon="6.49648">
        <ele>2125.1999511719</ele>
        <time>2011-03-06T13:03:48.000Z</time>
      </trkpt>
      <trkpt lat="45.90592" lon="6.49646">
        <ele>2120.6000976562</ele>
        <time>2011-03-06T13:03:53.000Z</time>
      </trkpt>
      <trkpt lat="45.90597" lon="6.49635">
        <ele>2113.1999511719</ele>
        <time>2011-03-06T13:03:56.000Z</time>
      </trkpt>
      <trkpt lat="45.90616" lon="6.49637">
        <ele>2109.1999511719</ele>
        <time>2011-03-06T13:03:59.000Z</time>
      </trkpt>
      <trkpt lat="45.90611" lon="6.49622">
        <ele>2107.6000976562</ele>
        <time>2011-03-06T13:04:01.000Z</time>
      </trkpt>
      <trkpt lat="45.90618" lon="6.49601">
        <ele>2103.1999511719</ele>
        <time>2011-03-06T13:04:04.000Z</time>
      </trkpt>
      <trkpt lat="45.90625" lon="6.49599">
        <ele>2102.3999023438</ele>
        <time>2011-03-06T13:04:05.000Z</time>
      </trkpt>
      <trkpt lat="45.90653" lon="6.49559">
        <ele>2092.8000488281</ele>
        <time>2011-03-06T13:04:10.000Z</time>
      </trkpt>
      <trkpt lat="45.90658" lon="6.49548">
        <ele>2091.1999511719</ele>
        <time>2011-03-06T13:04:11.000Z</time>
      </trkpt>
      <trkpt lat="45.90681" lon="6.49516">
        <ele>2087.1999511719</ele>
        <time>2011-03-06T13:04:15.000Z</time>
      </trkpt>
      <trkpt lat="45.90699" lon="6.49495">
        <ele>2087</ele>
        <time>2011-03-06T13:04:19.000Z</time>
      </trkpt>
      <trkpt lat="45.9071" lon="6.49488">
        <ele>2087</ele>
        <time>2011-03-06T13:04:22.000Z</time>
      </trkpt>
      <trkpt lat="45.90712" lon="6.49489">
        <ele>2086.6000976562</ele>
        <time>2011-03-06T13:04:25.000Z</time>
      </trkpt>
      <trkpt lat="45.90723" lon="6.49492">
        <ele>2081</ele>
        <time>2011-03-06T13:05:40.000Z</time>
      </trkpt>
      <trkpt lat="45.90739" lon="6.49491">
        <ele>2077.3999023438</ele>
        <time>2011-03-06T13:05:45.000Z</time>
      </trkpt>
      <trkpt lat="45.9075" lon="6.49491">
        <ele>2075.3999023438</ele>
        <time>2011-03-06T13:05:49.000Z</time>
      </trkpt>
      <trkpt lat="45.90749" lon="6.4949">
        <ele>2075.1999511719</ele>
        <time>2011-03-06T13:05:51.000Z</time>
      </trkpt>
      <trkpt lat="45.90757" lon="6.49475">
        <ele>2069.6000976562</ele>
        <time>2011-03-06T13:05:57.000Z</time>
      </trkpt>
      <trkpt lat="45.90767" lon="6.49479">
        <ele>2064.6000976562</ele>
        <time>2011-03-06T13:05:59.000Z</time>
      </trkpt>
      <trkpt lat="45.90774" lon="6.49484">
        <ele>2060.8000488281</ele>
        <time>2011-03-06T13:06:03.000Z</time>
      </trkpt>
      <trkpt lat="45.90797" lon="6.49488">
        <ele>2057.1999511719</ele>
        <time>2011-03-06T13:06:20.000Z</time>
      </trkpt>
      <trkpt lat="45.90805" lon="6.49488">
        <ele>2054.8000488281</ele>
        <time>2011-03-06T13:06:22.000Z</time>
      </trkpt>
      <trkpt lat="45.90809" lon="6.49491">
        <ele>2053.6000976562</ele>
        <time>2011-03-06T13:06:26.000Z</time>
      </trkpt>
      <trkpt lat="45.90809" lon="6.49512">
        <ele>2052.1999511719</ele>
        <time>2011-03-06T13:06:43.000Z</time>
      </trkpt>
      <trkpt lat="45.90812" lon="6.49522">
        <ele>2050.6000976562</ele>
        <time>2011-03-06T13:06:48.000Z</time>
      </trkpt>
      <trkpt lat="45.90814" lon="6.49527">
        <ele>2049.6000976562</ele>
        <time>2011-03-06T13:06:50.000Z</time>
      </trkpt>
      <trkpt lat="45.90827" lon="6.49509">
        <ele>2044.4000244141</ele>
        <time>2011-03-06T13:06:54.000Z</time>
      </trkpt>
      <trkpt lat="45.90829" lon="6.49501">
        <ele>2043.1999511719</ele>
        <time>2011-03-06T13:06:55.000Z</time>
      </trkpt>
      <trkpt lat="45.90831" lon="6.495">
        <ele>2038.1999511719</ele>
        <time>2011-03-06T13:06:57.000Z</time>
      </trkpt>
      <trkpt lat="45.90838" lon="6.49516">
        <ele>2033.8000488281</ele>
        <time>2011-03-06T13:07:00.000Z</time>
      </trkpt>
      <trkpt lat="45.90845" lon="6.49513">
        <ele>2030.4000244141</ele>
        <time>2011-03-06T13:07:03.000Z</time>
      </trkpt>
      <trkpt lat="45.90845" lon="6.495">
        <ele>2027</ele>
        <time>2011-03-06T13:07:06.000Z</time>
      </trkpt>
      <trkpt lat="45.90843" lon="6.49497">
        <ele>2025.5999755859</ele>
        <time>2011-03-06T13:07:10.000Z</time>
      </trkpt>
      <trkpt lat="45.90839" lon="6.49496">
        <ele>2025.1999511719</ele>
        <time>2011-03-06T13:07:17.000Z</time>
      </trkpt>
      <trkpt lat="45.90848" lon="6.49509">
        <ele>2021.8000488281</ele>
        <time>2011-03-06T13:08:04.000Z</time>
      </trkpt>
      <trkpt lat="45.90851" lon="6.49535">
        <ele>2018.1999511719</ele>
        <time>2011-03-06T13:08:10.000Z</time>
      </trkpt>
      <trkpt lat="45.90861" lon="6.49549">
        <ele>2015.8000488281</ele>
        <time>2011-03-06T13:08:14.000Z</time>
      </trkpt>
      <trkpt lat="45.90869" lon="6.49556">
        <ele>2015</ele>
        <time>2011-03-06T13:08:19.000Z</time>
      </trkpt>
      <trkpt lat="45.90879" lon="6.49567">
        <ele>2013.1999511719</ele>
        <time>2011-03-06T13:08:24.000Z</time>
      </trkpt>
      <trkpt lat="45.90889" lon="6.49555">
        <ele>2010.5999755859</ele>
        <time>2011-03-06T13:08:28.000Z</time>
      </trkpt>
      <trkpt lat="45.90893" lon="6.49548">
        <ele>2009.8000488281</ele>
        <time>2011-03-06T13:08:29.000Z</time>
      </trkpt>
      <trkpt lat="45.90906" lon="6.49526">
        <ele>2005.1999511719</ele>
        <time>2011-03-06T13:08:33.000Z</time>
      </trkpt>
      <trkpt lat="45.90919" lon="6.4952">
        <ele>2001.4000244141</ele>
        <time>2011-03-06T13:08:37.000Z</time>
      </trkpt>
      <trkpt lat="45.90936" lon="6.49521">
        <ele>1999.8000488281</ele>
        <time>2011-03-06T13:08:40.000Z</time>
      </trkpt>
      <trkpt lat="45.90961" lon="6.49523">
        <ele>1990.1999511719</ele>
        <time>2011-03-06T13:08:45.000Z</time>
      </trkpt>
      <trkpt lat="45.90978" lon="6.49532">
        <ele>1987.8000488281</ele>
        <time>2011-03-06T13:08:50.000Z</time>
      </trkpt>
      <trkpt lat="45.9098" lon="6.49537">
        <ele>1987.1999511719</ele>
        <time>2011-03-06T13:08:53.000Z</time>
      </trkpt>
      <trkpt lat="45.90981" lon="6.49536">
        <ele>1987</ele>
        <time>2011-03-06T13:08:54.000Z</time>
      </trkpt>
      <trkpt lat="45.90982" lon="6.49546">
        <ele>1986.8000488281</ele>
        <time>2011-03-06T13:09:06.000Z</time>
      </trkpt>
      <trkpt lat="45.90983" lon="6.49552">
        <ele>1985.8000488281</ele>
        <time>2011-03-06T13:09:11.000Z</time>
      </trkpt>
      <trkpt lat="45.90982" lon="6.4956">
        <ele>1985.8000488281</ele>
        <time>2011-03-06T13:09:18.000Z</time>
      </trkpt>
      <trkpt lat="45.90982" lon="6.49562">
        <ele>1985.8000488281</ele>
        <time>2011-03-06T13:09:19.000Z</time>
      </trkpt>
      <trkpt lat="45.90988" lon="6.49573">
        <ele>1984.8000488281</ele>
        <time>2011-03-06T13:09:26.000Z</time>
      </trkpt>
      <trkpt lat="45.90999" lon="6.49583">
        <ele>1981.5999755859</ele>
        <time>2011-03-06T13:09:30.000Z</time>
      </trkpt>
      <trkpt lat="45.91008" lon="6.49575">
        <ele>1979.1999511719</ele>
        <time>2011-03-06T13:09:33.000Z</time>
      </trkpt>
      <trkpt lat="45.91029" lon="6.49563">
        <ele>1974</ele>
        <time>2011-03-06T13:09:37.000Z</time>
      </trkpt>
      <trkpt lat="45.91036" lon="6.49552">
        <ele>1971</ele>
        <time>2011-03-06T13:09:40.000Z</time>
      </trkpt>
      <trkpt lat="45.91047" lon="6.49545">
        <ele>1968.8000488281</ele>
        <time>2011-03-06T13:09:43.000Z</time>
      </trkpt>
      <trkpt lat="45.91054" lon="6.49535">
        <ele>1963.8000488281</ele>
        <time>2011-03-06T13:09:46.000Z</time>
      </trkpt>
      <trkpt lat="45.91059" lon="6.49522">
        <ele>1960.8000488281</ele>
        <time>2011-03-06T13:09:49.000Z</time>
      </trkpt>
      <trkpt lat="45.91061" lon="6.49518">
        <ele>1960.4000244141</ele>
        <time>2011-03-06T13:09:50.000Z</time>
      </trkpt>
      <trkpt lat="45.91062" lon="6.49512">
        <ele>1960.4000244141</ele>
        <time>2011-03-06T13:09:51.000Z</time>
      </trkpt>
      <trkpt lat="45.91066" lon="6.495">
        <ele>1960.4000244141</ele>
        <time>2011-03-06T13:09:53.000Z</time>
      </trkpt>
      <trkpt lat="45.91072" lon="6.49484">
        <ele>1952.8000488281</ele>
        <time>2011-03-06T13:09:57.000Z</time>
      </trkpt>
      <trkpt lat="45.91083" lon="6.49483">
        <ele>1942.8000488281</ele>
        <time>2011-03-06T13:10:00.000Z</time>
      </trkpt>
      <trkpt lat="45.91093" lon="6.49489">
        <ele>1936.4000244141</ele>
        <time>2011-03-06T13:10:05.000Z</time>
      </trkpt>
      <trkpt lat="45.91093" lon="6.49488">
        <ele>1936.1999511719</ele>
        <time>2011-03-06T13:10:06.000Z</time>
      </trkpt>
      <trkpt lat="45.91106" lon="6.49474">
        <ele>1931.4000244141</ele>
        <time>2011-03-06T13:10:23.000Z</time>
      </trkpt>
      <trkpt lat="45.91111" lon="6.49453">
        <ele>1924.1999511719</ele>
        <time>2011-03-06T13:10:27.000Z</time>
      </trkpt>
      <trkpt lat="45.91116" lon="6.49453">
        <ele>1921.1999511719</ele>
        <time>2011-03-06T13:10:29.000Z</time>
      </trkpt>
      <trkpt lat="45.91141" lon="6.49457">
        <ele>1913.4000244141</ele>
        <time>2011-03-06T13:10:35.000Z</time>
      </trkpt>
      <trkpt lat="45.91152" lon="6.49459">
        <ele>1910.1999511719</ele>
        <time>2011-03-06T13:10:39.000Z</time>
      </trkpt>
      <trkpt lat="45.91153" lon="6.4946">
        <ele>1910</ele>
        <time>2011-03-06T13:10:41.000Z</time>
      </trkpt>
      <trkpt lat="45.91162" lon="6.49449">
        <ele>1907.4000244141</ele>
        <time>2011-03-06T13:10:50.000Z</time>
      </trkpt>
      <trkpt lat="45.91167" lon="6.49429">
        <ele>1898.1999511719</ele>
        <time>2011-03-06T13:10:54.000Z</time>
      </trkpt>
      <trkpt lat="45.9117" lon="6.49427">
        <ele>1896.8000488281</ele>
        <time>2011-03-06T13:10:55.000Z</time>
      </trkpt>
      <trkpt lat="45.91173" lon="6.4942">
        <ele>1891.4000244141</ele>
        <time>2011-03-06T13:10:57.000Z</time>
      </trkpt>
      <trkpt lat="45.9119" lon="6.49404">
        <ele>1880.5999755859</ele>
        <time>2011-03-06T13:11:02.000Z</time>
      </trkpt>
      <trkpt lat="45.91199" lon="6.49393">
        <ele>1874.8000488281</ele>
        <time>2011-03-06T13:11:05.000Z</time>
      </trkpt>
      <trkpt lat="45.91202" lon="6.49392">
        <ele>1873</ele>
        <time>2011-03-06T13:11:06.000Z</time>
      </trkpt>
      <trkpt lat="45.91192" lon="6.49376">
        <ele>1867.1999511719</ele>
        <time>2011-03-06T13:11:10.000Z</time>
      </trkpt>
      <trkpt lat="45.91187" lon="6.49369">
        <ele>1865</ele>
        <time>2011-03-06T13:11:13.000Z</time>
      </trkpt>
      <trkpt lat="45.91181" lon="6.49357">
        <ele>1865</ele>
        <time>2011-03-06T13:11:18.000Z</time>
      </trkpt>
      <trkpt lat="45.91174" lon="6.4934">
        <ele>1865</ele>
        <time>2011-03-06T13:11:25.000Z</time>
      </trkpt>
      <trkpt lat="45.91187" lon="6.49345">
        <ele>1861.8000488281</ele>
        <time>2011-03-06T13:11:30.000Z</time>
      </trkpt>
      <trkpt lat="45.91199" lon="6.49348">
        <ele>1859</ele>
        <time>2011-03-06T13:11:33.000Z</time>
      </trkpt>
      <trkpt lat="45.91209" lon="6.49347">
        <ele>1852</ele>
        <time>2011-03-06T13:11:37.000Z</time>
      </trkpt>
      <trkpt lat="45.91216" lon="6.49325">
        <ele>1842.8000488281</ele>
        <time>2011-03-06T13:11:41.000Z</time>
      </trkpt>
      <trkpt lat="45.91221" lon="6.49328">
        <ele>1839.1999511719</ele>
        <time>2011-03-06T13:11:44.000Z</time>
      </trkpt>
      <trkpt lat="45.91228" lon="6.49341">
        <ele>1840</ele>
        <time>2011-03-06T13:11:48.000Z</time>
      </trkpt>
      <trkpt lat="45.91228" lon="6.49341">
        <ele>1839.8000488281</ele>
        <time>2011-03-06T13:11:53.000Z</time>
      </trkpt>
      <trkpt lat="45.91229" lon="6.49333">
        <ele>1837.8000488281</ele>
        <time>2011-03-06T13:13:13.000Z</time>
      </trkpt>
      <trkpt lat="45.91218" lon="6.49321">
        <ele>1833.8000488281</ele>
        <time>2011-03-06T13:13:17.000Z</time>
      </trkpt>
      <trkpt lat="45.91222" lon="6.49314">
        <ele>1831.1999511719</ele>
        <time>2011-03-06T13:13:22.000Z</time>
      </trkpt>
      <trkpt lat="45.91227" lon="6.49304">
        <ele>1825.8000488281</ele>
        <time>2011-03-06T13:13:26.000Z</time>
      </trkpt>
      <trkpt lat="45.9124" lon="6.49291">
        <ele>1821</ele>
        <time>2011-03-06T13:13:29.000Z</time>
      </trkpt>
      <trkpt lat="45.91237" lon="6.49278">
        <ele>1816</ele>
        <time>2011-03-06T13:13:32.000Z</time>
      </trkpt>
      <trkpt lat="45.91245" lon="6.49273">
        <ele>1812.4000244141</ele>
        <time>2011-03-06T13:13:34.000Z</time>
      </trkpt>
      <trkpt lat="45.91255" lon="6.49275">
        <ele>1808</ele>
        <time>2011-03-06T13:13:36.000Z</time>
      </trkpt>
      <trkpt lat="45.91271" lon="6.49265">
        <ele>1803.1999511719</ele>
        <time>2011-03-06T13:13:41.000Z</time>
      </trkpt>
      <trkpt lat="45.91272" lon="6.49265">
        <ele>1803</ele>
        <time>2011-03-06T13:13:42.000Z</time>
      </trkpt>
      <trkpt lat="45.91273" lon="6.49265">
        <ele>1802.8000488281</ele>
        <time>2011-03-06T13:13:44.000Z</time>
      </trkpt>
      <trkpt lat="45.91258" lon="6.49257">
        <ele>1800</ele>
        <time>2011-03-06T13:13:50.000Z</time>
      </trkpt>
      <trkpt lat="45.91252" lon="6.49249">
        <ele>1798.8000488281</ele>
        <time>2011-03-06T13:13:52.000Z</time>
      </trkpt>
      <trkpt lat="45.91248" lon="6.49244">
        <ele>1797.8000488281</ele>
        <time>2011-03-06T13:13:57.000Z</time>
      </trkpt>
      <trkpt lat="45.9125" lon="6.49248">
        <ele>1797.8000488281</ele>
        <time>2011-03-06T13:13:58.000Z</time>
      </trkpt>
      <trkpt lat="45.91253" lon="6.49243">
        <ele>1796.5999755859</ele>
        <time>2011-03-06T13:14:09.000Z</time>
      </trkpt>
      <trkpt lat="45.91264" lon="6.49231">
        <ele>1794.1999511719</ele>
        <time>2011-03-06T13:14:13.000Z</time>
      </trkpt>
      <trkpt lat="45.91265" lon="6.4922">
        <ele>1791.1999511719</ele>
        <time>2011-03-06T13:14:16.000Z</time>
      </trkpt>
      <trkpt lat="45.91276" lon="6.49217">
        <ele>1786.4000244141</ele>
        <time>2011-03-06T13:14:19.000Z</time>
      </trkpt>
      <trkpt lat="45.91278" lon="6.4921">
        <ele>1783.1999511719</ele>
        <time>2011-03-06T13:14:21.000Z</time>
      </trkpt>
      <trkpt lat="45.9128" lon="6.49202">
        <ele>1780.5999755859</ele>
        <time>2011-03-06T13:14:23.000Z</time>
      </trkpt>
      <trkpt lat="45.91286" lon="6.49191">
        <ele>1778.4000244141</ele>
        <time>2011-03-06T13:14:26.000Z</time>
      </trkpt>
      <trkpt lat="45.91287" lon="6.49189">
        <ele>1777</ele>
        <time>2011-03-06T13:14:28.000Z</time>
      </trkpt>
      <trkpt lat="45.91289" lon="6.49185">
        <ele>1776</ele>
        <time>2011-03-06T13:14:32.000Z</time>
      </trkpt>
      <trkpt lat="45.91294" lon="6.49171">
        <ele>1772.8000488281</ele>
        <time>2011-03-06T13:15:13.000Z</time>
      </trkpt>
      <trkpt lat="45.91291" lon="6.49169">
        <ele>1771.8000488281</ele>
        <time>2011-03-06T13:15:16.000Z</time>
      </trkpt>
      <trkpt lat="45.91304" lon="6.49167">
        <ele>1768.8000488281</ele>
        <time>2011-03-06T13:16:15.000Z</time>
      </trkpt>
      <trkpt lat="45.91308" lon="6.49169">
        <ele>1768</ele>
        <time>2011-03-06T13:16:17.000Z</time>
      </trkpt>
      <trkpt lat="45.91308" lon="6.4917">
        <ele>1767.8000488281</ele>
        <time>2011-03-06T13:16:18.000Z</time>
      </trkpt>
      <trkpt lat="45.91317" lon="6.49178">
        <ele>1765.4000244141</ele>
        <time>2011-03-06T13:16:51.000Z</time>
      </trkpt>
      <trkpt lat="45.91322" lon="6.49179">
        <ele>1764.4000244141</ele>
        <time>2011-03-06T13:16:54.000Z</time>
      </trkpt>
      <trkpt lat="45.91325" lon="6.49167">
        <ele>1762.4000244141</ele>
        <time>2011-03-06T13:16:58.000Z</time>
      </trkpt>
      <trkpt lat="45.91339" lon="6.49162">
        <ele>1756.1999511719</ele>
        <time>2011-03-06T13:17:02.000Z</time>
      </trkpt>
      <trkpt lat="45.91352" lon="6.49153">
        <ele>1750.4000244141</ele>
        <time>2011-03-06T13:17:07.000Z</time>
      </trkpt>
      <trkpt lat="45.91364" lon="6.49131">
        <ele>1743.4000244141</ele>
        <time>2011-03-06T13:17:11.000Z</time>
      </trkpt>
      <trkpt lat="45.91377" lon="6.49139">
        <ele>1741.4000244141</ele>
        <time>2011-03-06T13:17:14.000Z</time>
      </trkpt>
      <trkpt lat="45.91381" lon="6.49147">
        <ele>1739</ele>
        <time>2011-03-06T13:17:18.000Z</time>
      </trkpt>
      <trkpt lat="45.9138" lon="6.49147">
        <ele>1739</ele>
        <time>2011-03-06T13:17:19.000Z</time>
      </trkpt>
      <trkpt lat="45.91384" lon="6.4915">
        <ele>1738.1999511719</ele>
        <time>2011-03-06T13:17:33.000Z</time>
      </trkpt>
      <trkpt lat="45.91388" lon="6.49153">
        <ele>1738</ele>
        <time>2011-03-06T13:17:37.000Z</time>
      </trkpt>
      <trkpt lat="45.91393" lon="6.49152">
        <ele>1735.8000488281</ele>
        <time>2011-03-06T13:17:41.000Z</time>
      </trkpt>
      <trkpt lat="45.9141" lon="6.49155">
        <ele>1733.5999755859</ele>
        <time>2011-03-06T13:17:46.000Z</time>
      </trkpt>
      <trkpt lat="45.91411" lon="6.49155">
        <ele>1733.4000244141</ele>
        <time>2011-03-06T13:17:47.000Z</time>
      </trkpt>
      <trkpt lat="45.91425" lon="6.49145">
        <ele>1729</ele>
        <time>2011-03-06T13:17:54.000Z</time>
      </trkpt>
      <trkpt lat="45.91435" lon="6.49139">
        <ele>1725.5999755859</ele>
        <time>2011-03-06T13:17:56.000Z</time>
      </trkpt>
      <trkpt lat="45.91458" lon="6.49133">
        <ele>1720.4000244141</ele>
        <time>2011-03-06T13:18:01.000Z</time>
      </trkpt>
      <trkpt lat="45.91474" lon="6.49128">
        <ele>1717.8000488281</ele>
        <time>2011-03-06T13:18:05.000Z</time>
      </trkpt>
      <trkpt lat="45.91474" lon="6.49124">
        <ele>1717.5999755859</ele>
        <time>2011-03-06T13:18:09.000Z</time>
      </trkpt>
      <trkpt lat="45.91462" lon="6.49115">
        <ele>1713.1999511719</ele>
        <time>2011-03-06T13:19:05.000Z</time>
      </trkpt>
      <trkpt lat="45.91463" lon="6.49109">
        <ele>1708.8000488281</ele>
        <time>2011-03-06T13:19:09.000Z</time>
      </trkpt>
      <trkpt lat="45.91465" lon="6.49098">
        <ele>1704.1999511719</ele>
        <time>2011-03-06T13:19:13.000Z</time>
      </trkpt>
      <trkpt lat="45.91463" lon="6.49093">
        <ele>1697.8000488281</ele>
        <time>2011-03-06T13:19:17.000Z</time>
      </trkpt>
      <trkpt lat="45.91468" lon="6.49084">
        <ele>1694.4000244141</ele>
        <time>2011-03-06T13:19:21.000Z</time>
      </trkpt>
      <trkpt lat="45.9147" lon="6.49073">
        <ele>1687.5999755859</ele>
        <time>2011-03-06T13:19:26.000Z</time>
      </trkpt>
      <trkpt lat="45.91478" lon="6.49069">
        <ele>1682.8000488281</ele>
        <time>2011-03-06T13:19:30.000Z</time>
      </trkpt>
      <trkpt lat="45.91477" lon="6.4906">
        <ele>1680.1999511719</ele>
        <time>2011-03-06T13:19:34.000Z</time>
      </trkpt>
      <trkpt lat="45.91483" lon="6.49054">
        <ele>1676.5999755859</ele>
        <time>2011-03-06T13:19:37.000Z</time>
      </trkpt>
      <trkpt lat="45.91483" lon="6.49051">
        <ele>1676</ele>
        <time>2011-03-06T13:19:38.000Z</time>
      </trkpt>
      <trkpt lat="45.91483" lon="6.49044">
        <ele>1673.8000488281</ele>
        <time>2011-03-06T13:19:40.000Z</time>
      </trkpt>
      <trkpt lat="45.91492" lon="6.49034">
        <ele>1668.5999755859</ele>
        <time>2011-03-06T13:19:44.000Z</time>
      </trkpt>
      <trkpt lat="45.91493" lon="6.49035">
        <ele>1667.1999511719</ele>
        <time>2011-03-06T13:19:47.000Z</time>
      </trkpt>
      <trkpt lat="45.91494" lon="6.4902">
        <ele>1663.5999755859</ele>
        <time>2011-03-06T13:21:39.000Z</time>
      </trkpt>
      <trkpt lat="45.91494" lon="6.49009">
        <ele>1659</ele>
        <time>2011-03-06T13:21:43.000Z</time>
      </trkpt>
      <trkpt lat="45.91492" lon="6.48999">
        <ele>1654.5999755859</ele>
        <time>2011-03-06T13:21:47.000Z</time>
      </trkpt>
      <trkpt lat="45.915" lon="6.48997">
        <ele>1652</ele>
        <time>2011-03-06T13:21:50.000Z</time>
      </trkpt>
      <trkpt lat="45.915" lon="6.48997">
        <ele>1651</ele>
        <time>2011-03-06T13:21:52.000Z</time>
      </trkpt>
      <trkpt lat="45.91501" lon="6.48999">
        <ele>1650.5999755859</ele>
        <time>2011-03-06T13:22:00.000Z</time>
      </trkpt>
      <trkpt lat="45.91503" lon="6.49002">
        <ele>1650</ele>
        <time>2011-03-06T13:22:05.000Z</time>
      </trkpt>
      <trkpt lat="45.91513" lon="6.49004">
        <ele>1648.8000488281</ele>
        <time>2011-03-06T13:22:10.000Z</time>
      </trkpt>
      <trkpt lat="45.91524" lon="6.49005">
        <ele>1646.5999755859</ele>
        <time>2011-03-06T13:22:13.000Z</time>
      </trkpt>
      <trkpt lat="45.91526" lon="6.49004">
        <ele>1645.5999755859</ele>
        <time>2011-03-06T13:22:17.000Z</time>
      </trkpt>
      <trkpt lat="45.91528" lon="6.49003">
        <ele>1645</ele>
        <time>2011-03-06T13:23:11.000Z</time>
      </trkpt>
      <trkpt lat="45.91537" lon="6.49">
        <ele>1643.5999755859</ele>
        <time>2011-03-06T13:23:17.000Z</time>
      </trkpt>
      <trkpt lat="45.91539" lon="6.49">
        <ele>1643.5999755859</ele>
        <time>2011-03-06T13:23:18.000Z</time>
      </trkpt>
      <trkpt lat="45.91543" lon="6.48998">
        <ele>1642.1999511719</ele>
        <time>2011-03-06T13:23:21.000Z</time>
      </trkpt>
      <trkpt lat="45.91549" lon="6.48998">
        <ele>1641.5999755859</ele>
        <time>2011-03-06T13:23:37.000Z</time>
      </trkpt>
      <trkpt lat="45.91551" lon="6.48995">
        <ele>1640</ele>
        <time>2011-03-06T13:24:37.000Z</time>
      </trkpt>
      <trkpt lat="45.91554" lon="6.48994">
        <ele>1638.8000488281</ele>
        <time>2011-03-06T13:24:41.000Z</time>
      </trkpt>
      <trkpt lat="45.91554" lon="6.48988">
        <ele>1638.1999511719</ele>
        <time>2011-03-06T13:25:56.000Z</time>
      </trkpt>
      <trkpt lat="45.91555" lon="6.48986">
        <ele>1637.8000488281</ele>
        <time>2011-03-06T13:25:58.000Z</time>
      </trkpt>
      <trkpt lat="45.91554" lon="6.48981">
        <ele>1636</ele>
        <time>2011-03-06T13:26:31.000Z</time>
      </trkpt>
      <trkpt lat="45.91557" lon="6.48982">
        <ele>1635.1999511719</ele>
        <time>2011-03-06T13:26:37.000Z</time>
      </trkpt>
      <trkpt lat="45.91558" lon="6.48983">
        <ele>1635</ele>
        <time>2011-03-06T13:26:38.000Z</time>
      </trkpt>
      <trkpt lat="45.91568" lon="6.48993">
        <ele>1630.8000488281</ele>
        <time>2011-03-06T13:27:22.000Z</time>
      </trkpt>
      <trkpt lat="45.91571" lon="6.48984">
        <ele>1629.8000488281</ele>
        <time>2011-03-06T13:29:09.000Z</time>
      </trkpt>
      <trkpt lat="45.91577" lon="6.48975">
        <ele>1628.1999511719</ele>
        <time>2011-03-06T13:29:13.000Z</time>
      </trkpt>
      <trkpt lat="45.9158" lon="6.48971">
        <ele>1627.4000244141</ele>
        <time>2011-03-06T13:29:14.000Z</time>
      </trkpt>
      <trkpt lat="45.916" lon="6.48962">
        <ele>1623.4000244141</ele>
        <time>2011-03-06T13:29:19.000Z</time>
      </trkpt>
      <trkpt lat="45.91612" lon="6.4896">
        <ele>1622</ele>
        <time>2011-03-06T13:29:23.000Z</time>
      </trkpt>
      <trkpt lat="45.91616" lon="6.48956">
        <ele>1620.4000244141</ele>
        <time>2011-03-06T13:29:25.000Z</time>
      </trkpt>
      <trkpt lat="45.91629" lon="6.48941">
        <ele>1617</ele>
        <time>2011-03-06T13:29:30.000Z</time>
      </trkpt>
      <trkpt lat="45.91633" lon="6.48927">
        <ele>1613.1999511719</ele>
        <time>2011-03-06T13:29:33.000Z</time>
      </trkpt>
      <trkpt lat="45.91625" lon="6.48917">
        <ele>1606.8000488281</ele>
        <time>2011-03-06T13:29:37.000Z</time>
      </trkpt>
      <trkpt lat="45.91634" lon="6.48909">
        <ele>1602</ele>
        <time>2011-03-06T13:29:40.000Z</time>
      </trkpt>
      <trkpt lat="45.91649" lon="6.48901">
        <ele>1597</ele>
        <time>2011-03-06T13:29:45.000Z</time>
      </trkpt>
      <trkpt lat="45.91656" lon="6.4889">
        <ele>1593</ele>
        <time>2011-03-06T13:29:48.000Z</time>
      </trkpt>
      <trkpt lat="45.91661" lon="6.48888">
        <ele>1591.5999755859</ele>
        <time>2011-03-06T13:29:49.000Z</time>
      </trkpt>
      <trkpt lat="45.91663" lon="6.48872">
        <ele>1584</ele>
        <time>2011-03-06T13:29:54.000Z</time>
      </trkpt>
      <trkpt lat="45.91674" lon="6.48861">
        <ele>1578</ele>
        <time>2011-03-06T13:29:58.000Z</time>
      </trkpt>
      <trkpt lat="45.91678" lon="6.48848">
        <ele>1571.5999755859</ele>
        <time>2011-03-06T13:30:02.000Z</time>
      </trkpt>
      <trkpt lat="45.91679" lon="6.48843">
        <ele>1569.5999755859</ele>
        <time>2011-03-06T13:30:03.000Z</time>
      </trkpt>
      <trkpt lat="45.91681" lon="6.48832">
        <ele>1565.5999755859</ele>
        <time>2011-03-06T13:30:05.000Z</time>
      </trkpt>
      <trkpt lat="45.91674" lon="6.48821">
        <ele>1561.1999511719</ele>
        <time>2011-03-06T13:30:10.000Z</time>
      </trkpt>
      <trkpt lat="45.91675" lon="6.48823">
        <ele>1561.1999511719</ele>
        <time>2011-03-06T13:30:13.000Z</time>
      </trkpt>
      <trkpt lat="45.91674" lon="6.48814">
        <ele>1560.1999511719</ele>
        <time>2011-03-06T13:30:20.000Z</time>
      </trkpt>
      <trkpt lat="45.91673" lon="6.48806">
        <ele>1557.5999755859</ele>
        <time>2011-03-06T13:30:24.000Z</time>
      </trkpt>
      <trkpt lat="45.91673" lon="6.48793">
        <ele>1554.5999755859</ele>
        <time>2011-03-06T13:30:27.000Z</time>
      </trkpt>
      <trkpt lat="45.91682" lon="6.48792">
        <ele>1551.1999511719</ele>
        <time>2011-03-06T13:30:30.000Z</time>
      </trkpt>
      <trkpt lat="45.91685" lon="6.48793">
        <ele>1550.5999755859</ele>
        <time>2011-03-06T13:30:34.000Z</time>
      </trkpt>
      <trkpt lat="45.91701" lon="6.48789">
        <ele>1549</ele>
        <time>2011-03-06T13:31:09.000Z</time>
      </trkpt>
      <trkpt lat="45.91706" lon="6.48774">
        <ele>1546.1999511719</ele>
        <time>2011-03-06T13:31:18.000Z</time>
      </trkpt>
      <trkpt lat="45.91712" lon="6.48768">
        <ele>1543.1999511719</ele>
        <time>2011-03-06T13:31:20.000Z</time>
      </trkpt>
      <trkpt lat="45.91717" lon="6.48764">
        <ele>1540.4000244141</ele>
        <time>2011-03-06T13:31:24.000Z</time>
      </trkpt>
      <trkpt lat="45.91718" lon="6.48763">
        <ele>1540.4000244141</ele>
        <time>2011-03-06T13:31:25.000Z</time>
      </trkpt>
      <trkpt lat="45.91717" lon="6.48761">
        <ele>1540.4000244141</ele>
        <time>2011-03-06T13:31:30.000Z</time>
      </trkpt>
      <trkpt lat="45.91722" lon="6.48757">
        <ele>1540.1999511719</ele>
        <time>2011-03-06T13:31:38.000Z</time>
      </trkpt>
      <trkpt lat="45.9173" lon="6.48759">
        <ele>1540.1999511719</ele>
        <time>2011-03-06T13:31:44.000Z</time>
      </trkpt>
      <trkpt lat="45.91732" lon="6.48759">
        <ele>1540</ele>
        <time>2011-03-06T13:31:46.000Z</time>
      </trkpt>
      <trkpt lat="45.91741" lon="6.48764">
        <ele>1540.1999511719</ele>
        <time>2011-03-06T13:32:25.000Z</time>
      </trkpt>
      <trkpt lat="45.9174" lon="6.48764">
        <ele>1540.1999511719</ele>
        <time>2011-03-06T13:32:26.000Z</time>
      </trkpt>
      <trkpt lat="45.9174" lon="6.48762">
        <ele>1540.4000244141</ele>
        <time>2011-03-06T13:32:33.000Z</time>
      </trkpt>
      <trkpt lat="45.91742" lon="6.4876">
        <ele>1540.8000488281</ele>
        <time>2011-03-06T13:32:39.000Z</time>
      </trkpt>
      <trkpt lat="45.91744" lon="6.48754">
        <ele>1541.4000244141</ele>
        <time>2011-03-06T13:32:48.000Z</time>
      </trkpt>
      <trkpt lat="45.91745" lon="6.48753">
        <ele>1541.5999755859</ele>
        <time>2011-03-06T13:32:50.000Z</time>
      </trkpt>
      <trkpt lat="45.91748" lon="6.48749">
        <ele>1542</ele>
        <time>2011-03-06T13:32:56.000Z</time>
      </trkpt>
      <trkpt lat="45.91754" lon="6.48745">
        <ele>1542.4000244141</ele>
        <time>2011-03-06T13:33:02.000Z</time>
      </trkpt>
      <trkpt lat="45.91758" lon="6.48743">
        <ele>1543</ele>
        <time>2011-03-06T13:33:06.000Z</time>
      </trkpt>
      <trkpt lat="45.91761" lon="6.48739">
        <ele>1543.4000244141</ele>
        <time>2011-03-06T13:33:11.000Z</time>
      </trkpt>
      <trkpt lat="45.91762" lon="6.48733">
        <ele>1543.4000244141</ele>
        <time>2011-03-06T13:33:16.000Z</time>
      </trkpt>
      <trkpt lat="45.91763" lon="6.4873">
        <ele>1543.4000244141</ele>
        <time>2011-03-06T13:33:19.000Z</time>
      </trkpt>
      <trkpt lat="45.91765" lon="6.48725">
        <ele>1543.5999755859</ele>
        <time>2011-03-06T13:33:24.000Z</time>
      </trkpt>
      <trkpt lat="45.91766" lon="6.48725">
        <ele>1543.5999755859</ele>
        <time>2011-03-06T13:33:26.000Z</time>
      </trkpt>
      <trkpt lat="45.91767" lon="6.48723">
        <ele>1543.1999511719</ele>
        <time>2011-03-06T13:33:29.000Z</time>
      </trkpt>
      <trkpt lat="45.91769" lon="6.48722">
        <ele>1542.4000244141</ele>
        <time>2011-03-06T13:33:39.000Z</time>
      </trkpt>
      <trkpt lat="45.91771" lon="6.48723">
        <ele>1542</ele>
        <time>2011-03-06T13:33:40.000Z</time>
      </trkpt>
      <trkpt lat="45.9178" lon="6.48723">
        <ele>1540.5999755859</ele>
        <time>2011-03-06T13:33:47.000Z</time>
      </trkpt>
      <trkpt lat="45.91781" lon="6.48723">
        <ele>1539.1999511719</ele>
        <time>2011-03-06T13:33:52.000Z</time>
      </trkpt>
      <trkpt lat="45.91785" lon="6.4872">
        <ele>1537.4000244141</ele>
        <time>2011-03-06T13:33:58.000Z</time>
      </trkpt>
      <trkpt lat="45.91795" lon="6.48719">
        <ele>1532</ele>
        <time>2011-03-06T13:34:33.000Z</time>
      </trkpt>
      <trkpt lat="45.91802" lon="6.48723">
        <ele>1530.8000488281</ele>
        <time>2011-03-06T13:34:40.000Z</time>
      </trkpt>
      <trkpt lat="45.91805" lon="6.48723">
        <ele>1530.8000488281</ele>
        <time>2011-03-06T13:35:35.000Z</time>
      </trkpt>
      <trkpt lat="45.91806" lon="6.4872">
        <ele>1530.5999755859</ele>
        <time>2011-03-06T13:35:43.000Z</time>
      </trkpt>
      <trkpt lat="45.91815" lon="6.48736">
        <ele>1528.8000488281</ele>
        <time>2011-03-06T13:36:15.000Z</time>
      </trkpt>
      <trkpt lat="45.91824" lon="6.48741">
        <ele>1527.1999511719</ele>
        <time>2011-03-06T13:36:18.000Z</time>
      </trkpt>
      <trkpt lat="45.91831" lon="6.48739">
        <ele>1528</ele>
        <time>2011-03-06T13:36:22.000Z</time>
      </trkpt>
      <trkpt lat="45.91833" lon="6.48737">
        <ele>1527.8000488281</ele>
        <time>2011-03-06T13:36:25.000Z</time>
      </trkpt>
      <trkpt lat="45.91838" lon="6.48737">
        <ele>1527</ele>
        <time>2011-03-06T13:36:29.000Z</time>
      </trkpt>
      <trkpt lat="45.91842" lon="6.48736">
        <ele>1526.5999755859</ele>
        <time>2011-03-06T13:36:33.000Z</time>
      </trkpt>
      <trkpt lat="45.91846" lon="6.48738">
        <ele>1526.1999511719</ele>
        <time>2011-03-06T13:36:46.000Z</time>
      </trkpt>
      <trkpt lat="45.91852" lon="6.48738">
        <ele>1525.4000244141</ele>
        <time>2011-03-06T13:36:53.000Z</time>
      </trkpt>
      <trkpt lat="45.91853" lon="6.48738">
        <ele>1525.1999511719</ele>
        <time>2011-03-06T13:36:54.000Z</time>
      </trkpt>
      <trkpt lat="45.91864" lon="6.48744">
        <ele>1522.8000488281</ele>
        <time>2011-03-06T13:37:05.000Z</time>
      </trkpt>
      <trkpt lat="45.91872" lon="6.48745">
        <ele>1520.5999755859</ele>
        <time>2011-03-06T13:37:09.000Z</time>
      </trkpt>
      <trkpt lat="45.91874" lon="6.4875">
        <ele>1518.4000244141</ele>
        <time>2011-03-06T13:37:47.000Z</time>
      </trkpt>
      <trkpt lat="45.91875" lon="6.4875">
        <ele>1518</ele>
        <time>2011-03-06T13:37:48.000Z</time>
      </trkpt>
      <trkpt lat="45.91886" lon="6.48747">
        <ele>1516</ele>
        <time>2011-03-06T13:37:52.000Z</time>
      </trkpt>
      <trkpt lat="45.91896" lon="6.48746">
        <ele>1513.4000244141</ele>
        <time>2011-03-06T13:37:54.000Z</time>
      </trkpt>
      <trkpt lat="45.91907" lon="6.48743">
        <ele>1512.1999511719</ele>
        <time>2011-03-06T13:37:56.000Z</time>
      </trkpt>
      <trkpt lat="45.91928" lon="6.4874">
        <ele>1511.1999511719</ele>
        <time>2011-03-06T13:38:01.000Z</time>
      </trkpt>
      <trkpt lat="45.91943" lon="6.48736">
        <ele>1509.1999511719</ele>
        <time>2011-03-06T13:38:05.000Z</time>
      </trkpt>
      <trkpt lat="45.91952" lon="6.48736">
        <ele>1507.4000244141</ele>
        <time>2011-03-06T13:38:09.000Z</time>
      </trkpt>
      <trkpt lat="45.91952" lon="6.48736">
        <ele>1507.1999511719</ele>
        <time>2011-03-06T13:38:10.000Z</time>
      </trkpt>
      <trkpt lat="45.91967" lon="6.48722">
        <ele>1503.5999755859</ele>
        <time>2011-03-06T13:38:24.000Z</time>
      </trkpt>
      <trkpt lat="45.9198" lon="6.48698">
        <ele>1497.5999755859</ele>
        <time>2011-03-06T13:38:28.000Z</time>
      </trkpt>
      <trkpt lat="45.91984" lon="6.48677">
        <ele>1494.8000488281</ele>
        <time>2011-03-06T13:38:30.000Z</time>
      </trkpt>
      <trkpt lat="45.92009" lon="6.48621">
        <ele>1484.8000488281</ele>
        <time>2011-03-06T13:38:36.000Z</time>
      </trkpt>
      <trkpt lat="45.92015" lon="6.48616">
        <ele>1483.8000488281</ele>
        <time>2011-03-06T13:38:37.000Z</time>
      </trkpt>
      <trkpt lat="45.92026" lon="6.48606">
        <ele>1482</ele>
        <time>2011-03-06T13:38:39.000Z</time>
      </trkpt>
      <trkpt lat="45.92047" lon="6.48583">
        <ele>1478.8000488281</ele>
        <time>2011-03-06T13:38:44.000Z</time>
      </trkpt>
      <trkpt lat="45.92054" lon="6.4858">
        <ele>1477.8000488281</ele>
        <time>2011-03-06T13:38:49.000Z</time>
      </trkpt>
      <trkpt lat="45.92051" lon="6.48571">
        <ele>1475.1999511719</ele>
        <time>2011-03-06T13:38:53.000Z</time>
      </trkpt>
      <trkpt lat="45.9205" lon="6.4857">
        <ele>1474.4000244141</ele>
        <time>2011-03-06T13:38:55.000Z</time>
      </trkpt>
      <trkpt lat="45.9205" lon="6.48571">
        <ele>1474.4000244141</ele>
        <time>2011-03-06T13:38:56.000Z</time>
      </trkpt>
      <trkpt lat="45.92052" lon="6.48559">
        <ele>1472.4000244141</ele>
        <time>2011-03-06T13:39:12.000Z</time>
      </trkpt>
      <trkpt lat="45.92045" lon="6.4855">
        <ele>1471.5999755859</ele>
        <time>2011-03-06T13:39:18.000Z</time>
      </trkpt>
      <trkpt lat="45.92035" lon="6.48538">
        <ele>1469.8000488281</ele>
        <time>2011-03-06T13:39:22.000Z</time>
      </trkpt>
      <trkpt lat="45.9204" lon="6.48522">
        <ele>1467.8000488281</ele>
        <time>2011-03-06T13:39:26.000Z</time>
      </trkpt>
      <trkpt lat="45.92049" lon="6.48501">
        <ele>1464.4000244141</ele>
        <time>2011-03-06T13:39:29.000Z</time>
      </trkpt>
      <trkpt lat="45.92052" lon="6.48494">
        <ele>1463.5999755859</ele>
        <time>2011-03-06T13:39:30.000Z</time>
      </trkpt>
      <trkpt lat="45.92064" lon="6.48467">
        <ele>1459.8000488281</ele>
        <time>2011-03-06T13:39:35.000Z</time>
      </trkpt>
      <trkpt lat="45.92074" lon="6.48453">
        <ele>1456.5999755859</ele>
        <time>2011-03-06T13:39:39.000Z</time>
      </trkpt>
      <trkpt lat="45.92076" lon="6.48452">
        <ele>1456.1999511719</ele>
        <time>2011-03-06T13:39:40.000Z</time>
      </trkpt>
      <trkpt lat="45.92079" lon="6.48455">
        <ele>1455.4000244141</ele>
        <time>2011-03-06T13:39:43.000Z</time>
      </trkpt>
      <trkpt lat="45.92086" lon="6.48455">
        <ele>1454</ele>
        <time>2011-03-06T13:40:11.000Z</time>
      </trkpt>
      <trkpt lat="45.92087" lon="6.48449">
        <ele>1453.5999755859</ele>
        <time>2011-03-06T13:40:16.000Z</time>
      </trkpt>
      <trkpt lat="45.92087" lon="6.48448">
        <ele>1453.5999755859</ele>
        <time>2011-03-06T13:40:18.000Z</time>
      </trkpt>
      <trkpt lat="45.9209" lon="6.48438">
        <ele>1453.5999755859</ele>
        <time>2011-03-06T13:40:33.000Z</time>
      </trkpt>
      <trkpt lat="45.92095" lon="6.48434">
        <ele>1453</ele>
        <time>2011-03-06T13:40:35.000Z</time>
      </trkpt>
      <trkpt lat="45.92108" lon="6.48419">
        <ele>1450.5999755859</ele>
        <time>2011-03-06T13:40:39.000Z</time>
      </trkpt>
      <trkpt lat="45.92126" lon="6.48398">
        <ele>1447.8000488281</ele>
        <time>2011-03-06T13:40:43.000Z</time>
      </trkpt>
      <trkpt lat="45.92139" lon="6.48385">
        <ele>1447</ele>
        <time>2011-03-06T13:40:46.000Z</time>
      </trkpt>
      <trkpt lat="45.92151" lon="6.48373">
        <ele>1445.5999755859</ele>
        <time>2011-03-06T13:40:49.000Z</time>
      </trkpt>
      <trkpt lat="45.92154" lon="6.4837">
        <ele>1445.1999511719</ele>
        <time>2011-03-06T13:40:50.000Z</time>
      </trkpt>
      <trkpt lat="45.92169" lon="6.48359">
        <ele>1442.4000244141</ele>
        <time>2011-03-06T13:40:54.000Z</time>
      </trkpt>
      <trkpt lat="45.92169" lon="6.48357">
        <ele>1441</ele>
        <time>2011-03-06T13:40:57.000Z</time>
      </trkpt>
      <trkpt lat="45.92169" lon="6.48356">
        <ele>1441</ele>
        <time>2011-03-06T13:40:59.000Z</time>
      </trkpt>
      <trkpt lat="45.92162" lon="6.48345">
        <ele>1440.4000244141</ele>
        <time>2011-03-06T13:41:05.000Z</time>
      </trkpt>
      <trkpt lat="45.92161" lon="6.48341">
        <ele>1440.4000244141</ele>
        <time>2011-03-06T13:41:09.000Z</time>
      </trkpt>
      <trkpt lat="45.92166" lon="6.48339">
        <ele>1439.4000244141</ele>
        <time>2011-03-06T13:41:45.000Z</time>
      </trkpt>
      <trkpt lat="45.92166" lon="6.48339">
        <ele>1439</ele>
        <time>2011-03-06T13:41:46.000Z</time>
      </trkpt>
      <trkpt lat="45.92191" lon="6.48326">
        <ele>1434.1999511719</ele>
        <time>2011-03-06T13:41:54.000Z</time>
      </trkpt>
      <trkpt lat="45.92213" lon="6.48313">
        <ele>1431.1999511719</ele>
        <time>2011-03-06T13:41:59.000Z</time>
      </trkpt>
      <trkpt lat="45.9222" lon="6.48309">
        <ele>1431.4000244141</ele>
        <time>2011-03-06T13:42:04.000Z</time>
      </trkpt>
      <trkpt lat="45.92231" lon="6.48301">
        <ele>1430.4000244141</ele>
        <time>2011-03-06T13:42:09.000Z</time>
      </trkpt>
      <trkpt lat="45.92253" lon="6.48287">
        <ele>1427.5999755859</ele>
        <time>2011-03-06T13:42:15.000Z</time>
      </trkpt>
      <trkpt lat="45.92257" lon="6.48285">
        <ele>1427.4000244141</ele>
        <time>2011-03-06T13:42:16.000Z</time>
      </trkpt>
      <trkpt lat="45.92274" lon="6.48275">
        <ele>1427</ele>
        <time>2011-03-06T13:42:22.000Z</time>
      </trkpt>
      <trkpt lat="45.92283" lon="6.48268">
        <ele>1427</ele>
        <time>2011-03-06T13:42:29.000Z</time>
      </trkpt>
      <trkpt lat="45.92291" lon="6.48264">
        <ele>1427</ele>
        <time>2011-03-06T13:42:35.000Z</time>
      </trkpt>
      <trkpt lat="45.923" lon="6.4826">
        <ele>1426.8000488281</ele>
        <time>2011-03-06T13:42:42.000Z</time>
      </trkpt>
      <trkpt lat="45.92312" lon="6.48257">
        <ele>1426.5999755859</ele>
        <time>2011-03-06T13:42:51.000Z</time>
      </trkpt>
      <trkpt lat="45.92314" lon="6.48257">
        <ele>1426.8000488281</ele>
        <time>2011-03-06T13:42:52.000Z</time>
      </trkpt>
      <trkpt lat="45.92322" lon="6.48259">
        <ele>1427</ele>
        <time>2011-03-06T13:42:59.000Z</time>
      </trkpt>
      <trkpt lat="45.92323" lon="6.48259">
        <ele>1427</ele>
        <time>2011-03-06T13:43:00.000Z</time>
      </trkpt>
      <trkpt lat="45.92328" lon="6.48258">
        <ele>1427.1999511719</ele>
        <time>2011-03-06T13:43:06.000Z</time>
      </trkpt>
    </trkseg>
  </trk>
</gpx>